<?xml version='1.0' encoding='UTF-8'?><gpx version="1.1" creator="JPX - https://github.com/jenetics/jpx" xmlns="http://www.topografix.com/GPX/1/1"><trk><trkseg><trkpt lat="37.803007922058434" lon="12.775309924532982"><ele>197.00000000000003</ele><time>2026-04-04T12:36:26Z</time></trkpt><trkpt lat="37.802915722026896" lon="12.775236131358026"><ele>197.0</ele><time>2026-04-04T12:36:28Z</time></trkpt><trkpt lat="37.80284161008451" lon="12.77517791775985"><ele>197.0</ele><time>2026-04-04T12:36:30Z</time></trkpt><trkpt lat="37.8027888357506" lon="12.775129386330676"><ele>197.0</ele><time>2026-04-04T12:36:31Z</time></trkpt><trkpt lat="37.802742652060914" lon="12.775060039613019"><ele>197.00000000000003</ele><time>2026-04-04T12:36:32Z</time></trkpt><trkpt lat="37.80268712243592" lon="12.774989325935378"><ele>197.0</ele><time>2026-04-04T12:36:33Z</time></trkpt><trkpt lat="37.80262204640661" lon="12.774898504435823"><ele>196.2</ele><time>2026-04-04T12:36:34Z</time></trkpt><trkpt lat="37.802537757869025" lon="12.77479266090684"><ele>195.39999999999998</ele><time>2026-04-04T12:36:35Z</time></trkpt><trkpt lat="37.80245309000487" lon="12.774691891444895"><ele>194.60000000000002</ele><time>2026-04-04T12:36:36Z</time></trkpt><trkpt lat="37.802380525793424" lon="12.774600443969153"><ele>193.8</ele><time>2026-04-04T12:36:36.999Z</time></trkpt><trkpt lat="37.802316048862714" lon="12.774513710914796"><ele>193.0</ele><time>2026-04-04T12:36:37.999Z</time></trkpt><trkpt lat="37.80225767065339" lon="12.774436833169343"><ele>192.99999999999997</ele><time>2026-04-04T12:36:38.999Z</time></trkpt><trkpt lat="37.802206173986995" lon="12.774369185540412"><ele>193.0</ele><time>2026-04-04T12:36:39.999Z</time></trkpt><trkpt lat="37.802156604136414" lon="12.774304649917045"><ele>193.0</ele><time>2026-04-04T12:36:40.999Z</time></trkpt><trkpt lat="37.80210472690816" lon="12.774237506811195"><ele>193.0</ele><time>2026-04-04T12:36:41.999Z</time></trkpt><trkpt lat="37.802037136092956" lon="12.774158827191977"><ele>192.99999999999997</ele><time>2026-04-04T12:36:42.999Z</time></trkpt><trkpt lat="37.80196223171092" lon="12.774060816218505"><ele>193.0</ele><time>2026-04-04T12:36:43.999Z</time></trkpt><trkpt lat="37.80187628848391" lon="12.773953236248744"><ele>192.75</ele><time>2026-04-04T12:36:44.999Z</time></trkpt><trkpt lat="37.80178316984665" lon="12.773837936807196"><ele>192.5</ele><time>2026-04-04T12:36:45.999Z</time></trkpt><trkpt lat="37.801689231645014" lon="12.773721712736487"><ele>192.25</ele><time>2026-04-04T12:36:46.999Z</time></trkpt><trkpt lat="37.80159361766787" lon="12.773605875495173"><ele>192.0</ele><time>2026-04-04T12:36:47.999Z</time></trkpt><trkpt lat="37.801500297304806" lon="12.773487391398636"><ele>192.39999999999998</ele><time>2026-04-04T12:36:48.999Z</time></trkpt><trkpt lat="37.80141741864169" lon="12.773377802471964"><ele>192.79999999999998</ele><time>2026-04-04T12:36:49.999Z</time></trkpt><trkpt lat="37.80133710236899" lon="12.773278876559157"><ele>193.2</ele><time>2026-04-04T12:36:50.999Z</time></trkpt><trkpt lat="37.80126364101606" lon="12.773183285975099"><ele>193.6</ele><time>2026-04-04T12:36:51.999Z</time></trkpt><trkpt lat="37.80119363310016" lon="12.773093522072488"><ele>194.0</ele><time>2026-04-04T12:36:52.999Z</time></trkpt><trkpt lat="37.801127295706635" lon="12.773012063968585"><ele>194.0</ele><time>2026-04-04T12:36:53.999Z</time></trkpt><trkpt lat="37.80104629924" lon="12.772916861991744"><ele>194.0</ele><time>2026-04-04T12:36:54.999Z</time></trkpt><trkpt lat="37.80096091071452" lon="12.772809215642656"><ele>194.0</ele><time>2026-04-04T12:36:55.999Z</time></trkpt><trkpt lat="37.800872421858216" lon="12.77269654424381"><ele>194.0</ele><time>2026-04-04T12:36:56.999Z</time></trkpt><trkpt lat="37.80078282508248" lon="12.772582845716908"><ele>193.25</ele><time>2026-04-04T12:36:57.999Z</time></trkpt><trkpt lat="37.80068641049087" lon="12.772467102235733"><ele>192.5</ele><time>2026-04-04T12:36:58.999Z</time></trkpt><trkpt lat="37.80059596737658" lon="12.772355594634913"><ele>191.75</ele><time>2026-04-04T12:36:59.999Z</time></trkpt><trkpt lat="37.800501519935054" lon="12.772249341182594"><ele>191.0</ele><time>2026-04-04T12:37:00.999Z</time></trkpt><trkpt lat="37.80041304900021" lon="12.772148082369661"><ele>191.0</ele><time>2026-04-04T12:37:01.999Z</time></trkpt><trkpt lat="37.800348835252244" lon="12.772076905025354"><ele>191.0</ele><time>2026-04-04T12:37:02.999Z</time></trkpt><trkpt lat="37.800435981433615" lon="12.771938087212854"><ele>191.0</ele><time>2026-04-04T12:37:07.999Z</time></trkpt><trkpt lat="37.80050607002803" lon="12.771911476049276"><ele>191.0</ele><time>2026-04-04T12:37:08.999Z</time></trkpt><trkpt lat="37.80059690600521" lon="12.771838580703738"><ele>191.0</ele><time>2026-04-04T12:37:09.999Z</time></trkpt><trkpt lat="37.80070250593708" lon="12.77177008022676"><ele>190.8</ele><time>2026-04-04T12:37:10.999Z</time></trkpt><trkpt lat="37.80080054500109" lon="12.771725661095903"><ele>190.60000000000002</ele><time>2026-04-04T12:37:11.999Z</time></trkpt><trkpt lat="37.8008766781158" lon="12.771673715553948"><ele>190.4</ele><time>2026-04-04T12:37:12.999Z</time></trkpt><trkpt lat="37.800911633907695" lon="12.77153157798455"><ele>190.2</ele><time>2026-04-04T12:37:13.999Z</time></trkpt><trkpt lat="37.80100446356132" lon="12.771453309796152"><ele>190.0</ele><time>2026-04-04T12:37:14.999Z</time></trkpt><trkpt lat="37.801229858767435" lon="12.77165724518725"><ele>190.75</ele><time>2026-04-04T12:37:15.999Z</time></trkpt><trkpt lat="37.80133217976138" lon="12.771651707104823"><ele>191.5</ele><time>2026-04-04T12:37:16.999Z</time></trkpt><trkpt lat="37.801428297474516" lon="12.771666033520459"><ele>192.25</ele><time>2026-04-04T12:37:17.999Z</time></trkpt><trkpt lat="37.801511611493076" lon="12.771688984935796"><ele>193.0</ele><time>2026-04-04T12:37:18.999Z</time></trkpt><trkpt lat="37.8015506854132" lon="12.771911969013239"><ele>193.0</ele><time>2026-04-04T12:37:19.999Z</time></trkpt><trkpt lat="37.80163839230205" lon="12.771934033640813"><ele>193.0</ele><time>2026-04-04T12:37:20.999Z</time></trkpt><trkpt lat="37.80170507486215" lon="12.771950809126793"><ele>193.0</ele><time>2026-04-04T12:37:21.999Z</time></trkpt><trkpt lat="37.80180826905009" lon="12.771677279444996"><ele>193.0</ele><time>2026-04-04T12:37:22.999Z</time></trkpt><trkpt lat="37.80187211326867" lon="12.771648832445475"><ele>193.4</ele><time>2026-04-04T12:37:23.999Z</time></trkpt><trkpt lat="37.801972650106094" lon="12.77159421696784"><ele>193.8</ele><time>2026-04-04T12:37:25.999Z</time></trkpt><trkpt lat="37.80205494340748" lon="12.771540503522308"><ele>194.2</ele><time>2026-04-04T12:37:27.999Z</time></trkpt><trkpt lat="37.8021200776112" lon="12.771459676869801"><ele>194.6</ele><time>2026-04-04T12:37:29.999Z</time></trkpt><trkpt lat="37.80216624792715" lon="12.771345143593322"><ele>195.0</ele><time>2026-04-04T12:37:31.999Z</time></trkpt><trkpt lat="37.802232598822386" lon="12.771260768635505"><ele>195.0</ele><time>2026-04-04T12:37:33.999Z</time></trkpt><trkpt lat="37.80232427473581" lon="12.771175753344115"><ele>195.0</ele><time>2026-04-04T12:37:35.999Z</time></trkpt><trkpt lat="37.80237202051381" lon="12.771113729855099"><ele>195.0</ele><time>2026-04-04T12:37:37.999Z</time></trkpt><trkpt lat="37.802414458399454" lon="12.771016117260375"><ele>195.0</ele><time>2026-04-04T12:37:40.999Z</time></trkpt><trkpt lat="37.80237662292716" lon="12.770910551519918"><ele>195.0</ele><time>2026-04-04T12:37:42.999Z</time></trkpt><trkpt lat="37.802327476670825" lon="12.770855702487658"><ele>195.0</ele><time>2026-04-04T12:37:43.999Z</time></trkpt><trkpt lat="37.80227509332737" lon="12.77078998755465"><ele>193.6</ele><time>2026-04-04T12:37:44.999Z</time></trkpt><trkpt lat="37.80221573771224" lon="12.770691595906742"><ele>192.2</ele><time>2026-04-04T12:37:45.999Z</time></trkpt><trkpt lat="37.80217147029308" lon="12.770597846741145"><ele>190.8</ele><time>2026-04-04T12:37:46.999Z</time></trkpt><trkpt lat="37.802127869593015" lon="12.770511318287207"><ele>189.4</ele><time>2026-04-04T12:37:47.999Z</time></trkpt><trkpt lat="37.802079667669496" lon="12.770409579872448"><ele>188.0</ele><time>2026-04-04T12:37:48.999Z</time></trkpt><trkpt lat="37.802027788422876" lon="12.77028961672786"><ele>187.0</ele><time>2026-04-04T12:37:49.999Z</time></trkpt><trkpt lat="37.80197193223882" lon="12.770190470299433"><ele>186.0</ele><time>2026-04-04T12:37:50.999Z</time></trkpt><trkpt lat="37.80192907385033" lon="12.770086423795226"><ele>185.0</ele><time>2026-04-04T12:37:51.999Z</time></trkpt><trkpt lat="37.80189021655251" lon="12.770010468276073"><ele>184.0</ele><time>2026-04-04T12:37:52.999Z</time></trkpt><trkpt lat="37.80185252796015" lon="12.769927738470123"><ele>183.0</ele><time>2026-04-04T12:37:53.999Z</time></trkpt><trkpt lat="37.80182005524621" lon="12.769845500922262"><ele>182.0</ele><time>2026-04-04T12:37:54.999Z</time></trkpt><trkpt lat="37.80178502623012" lon="12.769770987885336"><ele>181.33333333333331</ele><time>2026-04-04T12:37:55.999Z</time></trkpt><trkpt lat="37.80174958019875" lon="12.769704538707884"><ele>180.66666666666666</ele><time>2026-04-04T12:37:56.999Z</time></trkpt><trkpt lat="37.80169725777671" lon="12.769629404873957"><ele>180.0</ele><time>2026-04-04T12:37:59.999Z</time></trkpt><trkpt lat="37.80165152238766" lon="12.769563582219956"><ele>179.33333333333334</ele><time>2026-04-04T12:38:02.999Z</time></trkpt><trkpt lat="37.80156617993358" lon="12.769515141739104"><ele>178.66666666666669</ele><time>2026-04-04T12:38:04.999Z</time></trkpt><trkpt lat="37.80148072213033" lon="12.769453199470417"><ele>178.0</ele><time>2026-04-04T12:38:06.999Z</time></trkpt><trkpt lat="37.80142605257906" lon="12.769384389607174"><ele>178.0</ele><time>2026-04-04T12:38:08.999Z</time></trkpt><trkpt lat="37.80135910243804" lon="12.769427921280007"><ele>178.0</ele><time>2026-04-04T12:38:11.999Z</time></trkpt><trkpt lat="37.80130847037101" lon="12.769503329009535"><ele>178.0</ele><time>2026-04-04T12:38:13.999Z</time></trkpt><trkpt lat="37.80124066742965" lon="12.769540232374512"><ele>178.0</ele><time>2026-04-04T12:38:16.999Z</time></trkpt><trkpt lat="37.80121595640346" lon="12.76940825032138"><ele>178.0</ele><time>2026-04-04T12:38:19.999Z</time></trkpt><trkpt lat="37.801180711424855" lon="12.769311965171005"><ele>178.0</ele><time>2026-04-04T12:38:21.999Z</time></trkpt><trkpt lat="37.80111073455031" lon="12.769183768526402"><ele>177.8</ele><time>2026-04-04T12:38:23.999Z</time></trkpt><trkpt lat="37.801056948380406" lon="12.769060210897795"><ele>177.60000000000002</ele><time>2026-04-04T12:38:25.999Z</time></trkpt><trkpt lat="37.801014121717074" lon="12.768964005745653"><ele>177.39999999999998</ele><time>2026-04-04T12:38:27.999Z</time></trkpt><trkpt lat="37.80094208099896" lon="12.768916837577532"><ele>177.2</ele><time>2026-04-04T12:38:30.999Z</time></trkpt><trkpt lat="37.80087539183734" lon="12.768899447820134"><ele>177.0</ele><time>2026-04-04T12:38:32.999Z</time></trkpt><trkpt lat="37.80076658889106" lon="12.768912403999526"><ele>176.39999999999998</ele><time>2026-04-04T12:38:34.999Z</time></trkpt><trkpt lat="37.80068401848835" lon="12.76898133165836"><ele>175.79999999999998</ele><time>2026-04-04T12:38:36.999Z</time></trkpt><trkpt lat="37.800596231429076" lon="12.769021753521272"><ele>175.2</ele><time>2026-04-04T12:38:38.999Z</time></trkpt><trkpt lat="37.800679609780325" lon="12.768983283846362"><ele>174.6</ele><time>2026-04-04T12:39:22.999Z</time></trkpt><trkpt lat="37.80076897212694" lon="12.768916330525348"><ele>174.0</ele><time>2026-04-04T12:39:24.999Z</time></trkpt><trkpt lat="37.80083706131565" lon="12.768893549141184"><ele>174.0</ele><time>2026-04-04T12:39:26.999Z</time></trkpt><trkpt lat="37.80091283419917" lon="12.768892390718877"><ele>174.0</ele><time>2026-04-04T12:39:28.999Z</time></trkpt><trkpt lat="37.80096775317429" lon="12.768940326802383"><ele>174.0</ele><time>2026-04-04T12:39:30.999Z</time></trkpt><trkpt lat="37.80101666213829" lon="12.76907680453263"><ele>174.0</ele><time>2026-04-04T12:39:32.999Z</time></trkpt><trkpt lat="37.8010534243976" lon="12.769153277271647"><ele>174.0</ele><time>2026-04-04T12:39:33.999Z</time></trkpt><trkpt lat="37.80109706775244" lon="12.76924712166848"><ele>174.0</ele><time>2026-04-04T12:39:34.999Z</time></trkpt><trkpt lat="37.80114171169726" lon="12.769347185403667"><ele>174.66666666666666</ele><time>2026-04-04T12:39:35.999Z</time></trkpt><trkpt lat="37.801186090586825" lon="12.76945804206283"><ele>175.33333333333334</ele><time>2026-04-04T12:39:36.999Z</time></trkpt><trkpt lat="37.80123674849044" lon="12.769555519729122"><ele>176.0</ele><time>2026-04-04T12:39:37.999Z</time></trkpt><trkpt lat="37.80127269653252" lon="12.769636707826326"><ele>176.66666666666669</ele><time>2026-04-04T12:39:38.999Z</time></trkpt><trkpt lat="37.801305878807305" lon="12.769715746941076"><ele>177.33333333333334</ele><time>2026-04-04T12:39:40.999Z</time></trkpt><trkpt lat="37.80137210451586" lon="12.769818896743486"><ele>178.0</ele><time>2026-04-04T12:39:42.999Z</time></trkpt><trkpt lat="37.801416178184" lon="12.769880758706503"><ele>178.0</ele><time>2026-04-04T12:39:43.999Z</time></trkpt><trkpt lat="37.80146415980779" lon="12.769967464542585"><ele>178.0</ele><time>2026-04-04T12:39:44.999Z</time></trkpt><trkpt lat="37.80151556321044" lon="12.770068883910929"><ele>178.0</ele><time>2026-04-04T12:39:45.999Z</time></trkpt><trkpt lat="37.80155784260204" lon="12.770150004477344"><ele>178.0</ele><time>2026-04-04T12:39:46.999Z</time></trkpt><trkpt lat="37.801600179350594" lon="12.770220058896454"><ele>178.0</ele><time>2026-04-04T12:39:47.999Z</time></trkpt><trkpt lat="37.80163683351706" lon="12.770319256085273"><ele>178.0</ele><time>2026-04-04T12:39:48.999Z</time></trkpt><trkpt lat="37.801660459898905" lon="12.770408385891326"><ele>179.0</ele><time>2026-04-04T12:39:49.999Z</time></trkpt><trkpt lat="37.801697848979806" lon="12.770508137323505"><ele>180.0</ele><time>2026-04-04T12:39:50.999Z</time></trkpt><trkpt lat="37.801750587410126" lon="12.770594781270358"><ele>181.0</ele><time>2026-04-04T12:39:51.999Z</time></trkpt><trkpt lat="37.80180382238838" lon="12.770706714465945"><ele>182.0</ele><time>2026-04-04T12:39:52.999Z</time></trkpt><trkpt lat="37.80183740325268" lon="12.770775923940768"><ele>183.0</ele><time>2026-04-04T12:39:53.999Z</time></trkpt><trkpt lat="37.80187501008707" lon="12.770858062831424"><ele>184.0</ele><time>2026-04-04T12:39:54.999Z</time></trkpt><trkpt lat="37.801903336382274" lon="12.770940950202098"><ele>185.83333333333334</ele><time>2026-04-04T12:39:55.999Z</time></trkpt><trkpt lat="37.80197469920804" lon="12.771067157300735"><ele>187.66666666666669</ele><time>2026-04-04T12:39:57.999Z</time></trkpt><trkpt lat="37.802010683220786" lon="12.771143794250559"><ele>189.5</ele><time>2026-04-04T12:39:58.999Z</time></trkpt><trkpt lat="37.8020461978792" lon="12.77123019439568"><ele>191.33333333333334</ele><time>2026-04-04T12:39:59.999Z</time></trkpt><trkpt lat="37.802076941550965" lon="12.771301205157732"><ele>193.16666666666666</ele><time>2026-04-04T12:40:00.999Z</time></trkpt><trkpt lat="37.8021082954401" lon="12.771381182859333"><ele>195.0</ele><time>2026-04-04T12:40:01.999Z</time></trkpt><trkpt lat="37.80213449782869" lon="12.771488307732758"><ele>195.0</ele><time>2026-04-04T12:40:03.999Z</time></trkpt><trkpt lat="37.80207951980636" lon="12.771567980505624"><ele>195.0</ele><time>2026-04-04T12:40:05.999Z</time></trkpt><trkpt lat="37.802002533180016" lon="12.771609713726194"><ele>195.0</ele><time>2026-04-04T12:40:06.999Z</time></trkpt><trkpt lat="37.801937769443526" lon="12.771636159111289"><ele>195.0</ele><time>2026-04-04T12:40:07.999Z</time></trkpt><trkpt lat="37.801867801324384" lon="12.771666017437633"><ele>195.0</ele><time>2026-04-04T12:40:08.999Z</time></trkpt><trkpt lat="37.80178539635762" lon="12.771699404654639"><ele>195.0</ele><time>2026-04-04T12:40:09.999Z</time></trkpt><trkpt lat="37.8017137355872" lon="12.771723829720267"><ele>194.6</ele><time>2026-04-04T12:40:10.999Z</time></trkpt><trkpt lat="37.80161814640968" lon="12.771746203984694"><ele>194.2</ele><time>2026-04-04T12:40:11.999Z</time></trkpt><trkpt lat="37.801575880490006" lon="12.771866438941485"><ele>193.8</ele><time>2026-04-04T12:40:12.999Z</time></trkpt><trkpt lat="37.80145991302432" lon="12.771869162171747"><ele>193.4</ele><time>2026-04-04T12:40:13.999Z</time></trkpt><trkpt lat="37.801396522761905" lon="12.771864976011738"><ele>193.0</ele><time>2026-04-04T12:40:14.999Z</time></trkpt><trkpt lat="37.801302316389695" lon="12.771858754822993"><ele>192.66666666666666</ele><time>2026-04-04T12:40:15.999Z</time></trkpt><trkpt lat="37.80127603595861" lon="12.771933423160371"><ele>192.33333333333331</ele><time>2026-04-04T12:40:16.999Z</time></trkpt><trkpt lat="37.801298102006506" lon="12.772022946556659"><ele>192.0</ele><time>2026-04-04T12:40:17.999Z</time></trkpt><trkpt lat="37.80123239825838" lon="12.77208055190149"><ele>191.66666666666666</ele><time>2026-04-04T12:40:18.999Z</time></trkpt><trkpt lat="37.80112728932732" lon="12.772149083338055"><ele>191.33333333333331</ele><time>2026-04-04T12:40:19.999Z</time></trkpt><trkpt lat="37.801039860430734" lon="12.772206195840587"><ele>191.0</ele><time>2026-04-04T12:40:20.999Z</time></trkpt><trkpt lat="37.80064392764798" lon="12.772065893976466"><ele>191.0</ele><time>2026-04-04T12:40:21.999Z</time></trkpt><trkpt lat="37.80056924969119" lon="12.772024885474561"><ele>191.0</ele><time>2026-04-04T12:40:23.999Z</time></trkpt><trkpt lat="37.80046630364064" lon="12.771832230472373"><ele>191.0</ele><time>2026-04-04T12:40:24.999Z</time></trkpt><trkpt lat="37.80040949392349" lon="12.77191239530703"><ele>191.0</ele><time>2026-04-04T12:40:25.999Z</time></trkpt><trkpt lat="37.80035959860478" lon="12.771982803156511"><ele>191.0</ele><time>2026-04-04T12:40:26.999Z</time></trkpt><trkpt lat="37.800317136966825" lon="12.77205369329981"><ele>191.0</ele><time>2026-04-04T12:40:28.999Z</time></trkpt><trkpt lat="37.800275771963626" lon="12.771988339867237"><ele>191.0</ele><time>2026-04-04T12:40:29.999Z</time></trkpt><trkpt lat="37.800140103835226" lon="12.771889866770689"><ele>191.0</ele><time>2026-04-04T12:40:31.999Z</time></trkpt><trkpt lat="37.80005970335196" lon="12.771806866617872"><ele>191.0</ele><time>2026-04-04T12:40:32.999Z</time></trkpt><trkpt lat="37.79997647437051" lon="12.771728756817431"><ele>191.0</ele><time>2026-04-04T12:40:33.999Z</time></trkpt><trkpt lat="37.79988647981591" lon="12.771646313325382"><ele>189.25</ele><time>2026-04-04T12:40:34.999Z</time></trkpt><trkpt lat="37.79978810799297" lon="12.771566444259745"><ele>187.5</ele><time>2026-04-04T12:40:35.999Z</time></trkpt><trkpt lat="37.79968701305411" lon="12.771484640754501"><ele>185.75</ele><time>2026-04-04T12:40:36.999Z</time></trkpt><trkpt lat="37.79959038582632" lon="12.77139907920611"><ele>184.0</ele><time>2026-04-04T12:40:37.999Z</time></trkpt><trkpt lat="37.799497370417036" lon="12.771298079749709"><ele>184.0</ele><time>2026-04-04T12:40:38.999Z</time></trkpt><trkpt lat="37.79940529844777" lon="12.771195967622312"><ele>184.0</ele><time>2026-04-04T12:40:39.999Z</time></trkpt><trkpt lat="37.799321364194604" lon="12.77110055759159"><ele>184.0</ele><time>2026-04-04T12:40:40.999Z</time></trkpt><trkpt lat="37.79924641809362" lon="12.770984594892427"><ele>184.0</ele><time>2026-04-04T12:40:41.999Z</time></trkpt><trkpt lat="37.79917862462031" lon="12.77086198310843"><ele>182.25</ele><time>2026-04-04T12:40:42.999Z</time></trkpt><trkpt lat="37.799102189749206" lon="12.770738251573315"><ele>180.5</ele><time>2026-04-04T12:40:43.999Z</time></trkpt><trkpt lat="37.79902549839832" lon="12.770616234210603"><ele>178.75</ele><time>2026-04-04T12:40:44.999Z</time></trkpt><trkpt lat="37.79895154740598" lon="12.770485574831874"><ele>177.0</ele><time>2026-04-04T12:40:45.999Z</time></trkpt><trkpt lat="37.79888786434096" lon="12.7703627043022"><ele>177.0</ele><time>2026-04-04T12:40:46.999Z</time></trkpt><trkpt lat="37.79882506058071" lon="12.770229026915027"><ele>177.0</ele><time>2026-04-04T12:40:47.999Z</time></trkpt><trkpt lat="37.79876888208967" lon="12.770089896111692"><ele>177.0</ele><time>2026-04-04T12:40:48.999Z</time></trkpt><trkpt lat="37.798717220691074" lon="12.769951862587028"><ele>177.0</ele><time>2026-04-04T12:40:49.999Z</time></trkpt><trkpt lat="37.79866420703482" lon="12.76981052592372"><ele>175.8</ele><time>2026-04-04T12:40:50.999Z</time></trkpt><trkpt lat="37.7986044638071" lon="12.769677760244223"><ele>174.6</ele><time>2026-04-04T12:40:51.999Z</time></trkpt><trkpt lat="37.798551002098726" lon="12.769551534044414"><ele>173.4</ele><time>2026-04-04T12:40:52.999Z</time></trkpt><trkpt lat="37.79850516947886" lon="12.769429007657"><ele>172.20000000000002</ele><time>2026-04-04T12:40:53.999Z</time></trkpt><trkpt lat="37.79847000102897" lon="12.769337212645075"><ele>171.0</ele><time>2026-04-04T12:40:54.999Z</time></trkpt><trkpt lat="37.79843377087462" lon="12.769262373870156"><ele>170.60000000000002</ele><time>2026-04-04T12:40:55.999Z</time></trkpt><trkpt lat="37.798407453245176" lon="12.769185884185704"><ele>170.2</ele><time>2026-04-04T12:40:56.999Z</time></trkpt><trkpt lat="37.79836939553734" lon="12.769055276418465"><ele>169.8</ele><time>2026-04-04T12:40:58.999Z</time></trkpt><trkpt lat="37.79831102397458" lon="12.768935396656907"><ele>169.39999999999998</ele><time>2026-04-04T12:41:00.999Z</time></trkpt><trkpt lat="37.79827629338543" lon="12.768855170896707"><ele>169.0</ele><time>2026-04-04T12:41:01.999Z</time></trkpt><trkpt lat="37.79823463476477" lon="12.768754097438125"><ele>169.0</ele><time>2026-04-04T12:41:02.999Z</time></trkpt><trkpt lat="37.798193194966196" lon="12.768647262277252"><ele>169.0</ele><time>2026-04-04T12:41:03.999Z</time></trkpt><trkpt lat="37.79815619770078" lon="12.768536351243084"><ele>169.0</ele><time>2026-04-04T12:41:04.999Z</time></trkpt><trkpt lat="37.79811368926363" lon="12.768435419366448"><ele>169.0</ele><time>2026-04-04T12:41:05.999Z</time></trkpt><trkpt lat="37.798067889945386" lon="12.768328301510413"><ele>169.0</ele><time>2026-04-04T12:41:06.999Z</time></trkpt><trkpt lat="37.798018301274084" lon="12.76822245895502"><ele>169.39999999999998</ele><time>2026-04-04T12:41:07.999Z</time></trkpt><trkpt lat="37.79796946682474" lon="12.768122139517027"><ele>169.8</ele><time>2026-04-04T12:41:08.999Z</time></trkpt><trkpt lat="37.79792129662737" lon="12.768001314276377"><ele>170.2</ele><time>2026-04-04T12:41:09.999Z</time></trkpt><trkpt lat="37.797874614065066" lon="12.767902103440365"><ele>170.60000000000002</ele><time>2026-04-04T12:41:10.999Z</time></trkpt><trkpt lat="37.79782617864068" lon="12.767824278145158"><ele>171.0</ele><time>2026-04-04T12:41:11.999Z</time></trkpt><trkpt lat="37.797758791688075" lon="12.767747116200747"><ele>171.0</ele><time>2026-04-04T12:41:12.999Z</time></trkpt><trkpt lat="37.79771008837839" lon="12.76765614155616"><ele>171.0</ele><time>2026-04-04T12:41:13.999Z</time></trkpt><trkpt lat="37.79766715619944" lon="12.767556683245068"><ele>171.0</ele><time>2026-04-04T12:41:14.999Z</time></trkpt><trkpt lat="37.79762767231578" lon="12.767468121398089"><ele>171.0</ele><time>2026-04-04T12:41:15.999Z</time></trkpt><trkpt lat="37.79758722227682" lon="12.767388255173877"><ele>171.0</ele><time>2026-04-04T12:41:16.999Z</time></trkpt><trkpt lat="37.7975429764961" lon="12.767309802580646"><ele>171.0</ele><time>2026-04-04T12:41:17.999Z</time></trkpt><trkpt lat="37.79748418341325" lon="12.767198649345804"><ele>171.0</ele><time>2026-04-04T12:41:19.999Z</time></trkpt><trkpt lat="37.7974116376461" lon="12.767090308270927"><ele>171.0</ele><time>2026-04-04T12:41:21.999Z</time></trkpt><trkpt lat="37.79737241179606" lon="12.76702664472643"><ele>171.0</ele><time>2026-04-04T12:41:22.999Z</time></trkpt><trkpt lat="37.797327906652285" lon="12.766953376226096"><ele>171.0</ele><time>2026-04-04T12:41:23.999Z</time></trkpt><trkpt lat="37.797292318970044" lon="12.766866962777494"><ele>171.0</ele><time>2026-04-04T12:41:24.999Z</time></trkpt><trkpt lat="37.79724735635317" lon="12.766789214778715"><ele>171.0</ele><time>2026-04-04T12:41:25.999Z</time></trkpt><trkpt lat="37.79720238127107" lon="12.766712556898698"><ele>171.0</ele><time>2026-04-04T12:41:26.999Z</time></trkpt><trkpt lat="37.79715670249996" lon="12.76663064819537"><ele>171.0</ele><time>2026-04-04T12:41:27.999Z</time></trkpt><trkpt lat="37.79711127930565" lon="12.766536399000199"><ele>171.0</ele><time>2026-04-04T12:41:28.999Z</time></trkpt><trkpt lat="37.79705247994181" lon="12.766430974048916"><ele>171.0</ele><time>2026-04-04T12:41:29.999Z</time></trkpt><trkpt lat="37.79699908683918" lon="12.766332680853372"><ele>171.0</ele><time>2026-04-04T12:41:30.999Z</time></trkpt><trkpt lat="37.79695332659497" lon="12.766239472690575"><ele>171.0</ele><time>2026-04-04T12:41:31.999Z</time></trkpt><trkpt lat="37.79689990872671" lon="12.766138127109484"><ele>171.0</ele><time>2026-04-04T12:41:32.999Z</time></trkpt><trkpt lat="37.796846701906674" lon="12.766049070952526"><ele>171.0</ele><time>2026-04-04T12:41:33.999Z</time></trkpt><trkpt lat="37.796794772619116" lon="12.765946571458326"><ele>171.0</ele><time>2026-04-04T12:41:34.999Z</time></trkpt><trkpt lat="37.79675878074878" lon="12.765849465203111"><ele>171.0</ele><time>2026-04-04T12:41:35.999Z</time></trkpt><trkpt lat="37.79672508517169" lon="12.765759178570534"><ele>171.0</ele><time>2026-04-04T12:41:36.999Z</time></trkpt><trkpt lat="37.79668381602982" lon="12.765646425962538"><ele>171.0</ele><time>2026-04-04T12:41:37.999Z</time></trkpt><trkpt lat="37.796647531340476" lon="12.765537757950407"><ele>171.0</ele><time>2026-04-04T12:41:38.999Z</time></trkpt><trkpt lat="37.79660181102312" lon="12.765420350694514"><ele>171.0</ele><time>2026-04-04T12:41:39.999Z</time></trkpt><trkpt lat="37.79656947471333" lon="12.765312379257688"><ele>171.0</ele><time>2026-04-04T12:41:40.999Z</time></trkpt><trkpt lat="37.79653517824446" lon="12.765201138470319"><ele>171.0</ele><time>2026-04-04T12:41:41.999Z</time></trkpt><trkpt lat="37.79649484628051" lon="12.765089691851628"><ele>171.0</ele><time>2026-04-04T12:41:42.999Z</time></trkpt><trkpt lat="37.796455475745674" lon="12.76498346907404"><ele>171.0</ele><time>2026-04-04T12:41:43.999Z</time></trkpt><trkpt lat="37.79642177903482" lon="12.764877246500765"><ele>171.0</ele><time>2026-04-04T12:41:44.999Z</time></trkpt><trkpt lat="37.796393563352865" lon="12.764766011681246"><ele>171.0</ele><time>2026-04-04T12:41:45.999Z</time></trkpt><trkpt lat="37.79635584280251" lon="12.764658481999282"><ele>171.0</ele><time>2026-04-04T12:41:46.999Z</time></trkpt><trkpt lat="37.796304404924925" lon="12.764537303140264"><ele>171.0</ele><time>2026-04-04T12:41:47.999Z</time></trkpt><trkpt lat="37.79625114237928" lon="12.764420614827372"><ele>170.60000000000002</ele><time>2026-04-04T12:41:48.999Z</time></trkpt><trkpt lat="37.79621318080599" lon="12.764308326416131"><ele>170.2</ele><time>2026-04-04T12:41:49.999Z</time></trkpt><trkpt lat="37.7961812363368" lon="12.764185601274542"><ele>169.8</ele><time>2026-04-04T12:41:50.999Z</time></trkpt><trkpt lat="37.79614687950527" lon="12.764081896203109"><ele>169.39999999999998</ele><time>2026-04-04T12:41:51.999Z</time></trkpt><trkpt lat="37.796111090471044" lon="12.763966018269576"><ele>169.0</ele><time>2026-04-04T12:41:52.999Z</time></trkpt><trkpt lat="37.79607320365753" lon="12.763847262644171"><ele>169.0</ele><time>2026-04-04T12:41:53.999Z</time></trkpt><trkpt lat="37.79603335548699" lon="12.76373761795891"><ele>169.0</ele><time>2026-04-04T12:41:54.999Z</time></trkpt><trkpt lat="37.795992640265" lon="12.763633939647866"><ele>169.0</ele><time>2026-04-04T12:41:55.999Z</time></trkpt><trkpt lat="37.79594987118547" lon="12.763524075416424"><ele>169.0</ele><time>2026-04-04T12:41:56.999Z</time></trkpt><trkpt lat="37.79591000126346" lon="12.76340547503347"><ele>169.0</ele><time>2026-04-04T12:41:57.999Z</time></trkpt><trkpt lat="37.79587342497253" lon="12.763301323097574"><ele>168.0</ele><time>2026-04-04T12:41:58.999Z</time></trkpt><trkpt lat="37.79582779608446" lon="12.763196941142178"><ele>167.0</ele><time>2026-04-04T12:41:59.999Z</time></trkpt><trkpt lat="37.7957824710331" lon="12.763108032387118"><ele>166.0</ele><time>2026-04-04T12:42:00.999Z</time></trkpt><trkpt lat="37.79573193211489" lon="12.76301709751308"><ele>165.0</ele><time>2026-04-04T12:42:01.999Z</time></trkpt><trkpt lat="37.79569624515689" lon="12.762944432599813"><ele>164.0</ele><time>2026-04-04T12:42:02.999Z</time></trkpt><trkpt lat="37.79563056151061" lon="12.762811432402547"><ele>164.66666666666666</ele><time>2026-04-04T12:42:04.999Z</time></trkpt><trkpt lat="37.79556901519002" lon="12.762682313655182"><ele>165.33333333333334</ele><time>2026-04-04T12:42:06.999Z</time></trkpt><trkpt lat="37.79552351287344" lon="12.762582188925421"><ele>166.0</ele><time>2026-04-04T12:42:08.999Z</time></trkpt><trkpt lat="37.79574501632503" lon="12.762459671215915"><ele>166.0</ele><time>2026-04-04T12:42:25.999Z</time></trkpt><trkpt lat="37.79582125829771" lon="12.76240447716507"><ele>166.0</ele><time>2026-04-04T12:42:26.999Z</time></trkpt><trkpt lat="37.79587614612178" lon="12.762343457668624"><ele>166.0</ele><time>2026-04-04T12:42:27.999Z</time></trkpt><trkpt lat="37.79596162415775" lon="12.762307207182143"><ele>166.0</ele><time>2026-04-04T12:42:28.999Z</time></trkpt><trkpt lat="37.796040286986724" lon="12.762260003405233"><ele>166.0</ele><time>2026-04-04T12:42:29.999Z</time></trkpt><trkpt lat="37.79611678358227" lon="12.76219156895175"><ele>166.0</ele><time>2026-04-04T12:42:30.999Z</time></trkpt><trkpt lat="37.796229480048495" lon="12.762116805142739"><ele>167.16666666666669</ele><time>2026-04-04T12:42:32.999Z</time></trkpt><trkpt lat="37.796270632963015" lon="12.762041558246537"><ele>168.33333333333334</ele><time>2026-04-04T12:42:33.999Z</time></trkpt><trkpt lat="37.79634136966152" lon="12.761956473279813"><ele>169.5</ele><time>2026-04-04T12:42:34.999Z</time></trkpt><trkpt lat="37.79631438759363" lon="12.761874800966496"><ele>170.66666666666666</ele><time>2026-04-04T12:42:35.999Z</time></trkpt><trkpt lat="37.79636264463765" lon="12.761786797023008"><ele>171.83333333333331</ele><time>2026-04-04T12:42:36.999Z</time></trkpt><trkpt lat="37.79641558081161" lon="12.761695316560667"><ele>173.0</ele><time>2026-04-04T12:42:37.999Z</time></trkpt><trkpt lat="37.79647176459158" lon="12.761606518631151"><ele>173.66666666666666</ele><time>2026-04-04T12:42:38.999Z</time></trkpt><trkpt lat="37.796800571765466" lon="12.761748755502179"><ele>174.33333333333334</ele><time>2026-04-04T12:42:39.999Z</time></trkpt><trkpt lat="37.79687474947401" lon="12.761694672239352"><ele>175.0</ele><time>2026-04-04T12:42:40.999Z</time></trkpt><trkpt lat="37.79694696549947" lon="12.761648650830763"><ele>177.4</ele><time>2026-04-04T12:42:41.999Z</time></trkpt><trkpt lat="37.79705375179778" lon="12.761569389878618"><ele>179.8</ele><time>2026-04-04T12:42:43.999Z</time></trkpt><trkpt lat="37.79704582136359" lon="12.761437818468453"><ele>182.2</ele><time>2026-04-04T12:42:45.999Z</time></trkpt><trkpt lat="37.7970266444227" lon="12.761357424803084"><ele>184.6</ele><time>2026-04-04T12:42:46.999Z</time></trkpt><trkpt lat="37.79700067374826" lon="12.761272440633554"><ele>187.0</ele><time>2026-04-04T12:42:48.999Z</time></trkpt><trkpt lat="37.796975780708536" lon="12.761160246770386"><ele>187.0</ele><time>2026-04-04T12:42:50.999Z</time></trkpt><trkpt lat="37.796951801308815" lon="12.761042305761265"><ele>187.0</ele><time>2026-04-04T12:42:52.999Z</time></trkpt><trkpt lat="37.796935026357446" lon="12.760956209768555"><ele>187.0</ele><time>2026-04-04T12:42:53.999Z</time></trkpt><trkpt lat="37.796916788260326" lon="12.760861214762219"><ele>187.0</ele><time>2026-04-04T12:42:55.999Z</time></trkpt><trkpt lat="37.79701693098907" lon="12.760783448079328"><ele>187.0</ele><time>2026-04-04T12:42:58.999Z</time></trkpt><trkpt lat="37.797099676525924" lon="12.760725210313579"><ele>187.5</ele><time>2026-04-04T12:43:00.999Z</time></trkpt><trkpt lat="37.797176925252735" lon="12.76067690212469"><ele>188.0</ele><time>2026-04-04T12:43:01.999Z</time></trkpt><trkpt lat="37.79725059278547" lon="12.760630602905989"><ele>188.5</ele><time>2026-04-04T12:43:03.999Z</time></trkpt><trkpt lat="37.79730564289009" lon="12.760557577871278"><ele>189.0</ele><time>2026-04-04T12:43:13.999Z</time></trkpt><trkpt lat="37.79737886979636" lon="12.760542689490794"><ele>189.5</ele><time>2026-04-04T12:43:57.999Z</time></trkpt><trkpt lat="37.797458180354724" lon="12.760466924967194"><ele>190.0</ele><time>2026-04-04T12:43:59.999Z</time></trkpt><trkpt lat="37.79752953660422" lon="12.760419850040801"><ele>190.0</ele><time>2026-04-04T12:44:01.999Z</time></trkpt><trkpt lat="37.79759696485224" lon="12.760372139664847"><ele>190.0</ele><time>2026-04-04T12:44:03.999Z</time></trkpt><trkpt lat="37.79765181853564" lon="12.760330614259386"><ele>190.0</ele><time>2026-04-04T12:44:05.999Z</time></trkpt><trkpt lat="37.79771460787956" lon="12.760303249877074"><ele>190.0</ele><time>2026-04-04T12:44:07.999Z</time></trkpt><trkpt lat="37.797766168199615" lon="12.760251824842964"><ele>190.0</ele><time>2026-04-04T12:45:03Z</time></trkpt><trkpt lat="37.79770791081752" lon="12.760151750383992"><ele>190.0</ele><time>2026-04-04T12:45:49Z</time></trkpt><trkpt lat="37.79763948887287" lon="12.760086831637086"><ele>189.2</ele><time>2026-04-04T12:45:51Z</time></trkpt><trkpt lat="37.79756902927549" lon="12.759994601519635"><ele>188.4</ele><time>2026-04-04T12:45:53Z</time></trkpt><trkpt lat="37.7975093276085" lon="12.75990894530479"><ele>187.60000000000002</ele><time>2026-04-04T12:45:55Z</time></trkpt><trkpt lat="37.79744667065376" lon="12.759830242297697"><ele>186.8</ele><time>2026-04-04T12:45:57Z</time></trkpt><trkpt lat="37.79738490609587" lon="12.759742567101652"><ele>186.0</ele><time>2026-04-04T12:45:59Z</time></trkpt><trkpt lat="37.79731004514574" lon="12.759652445782047"><ele>186.0</ele><time>2026-04-04T12:46:01Z</time></trkpt><trkpt lat="37.7972325857912" lon="12.759548367412805"><ele>186.0</ele><time>2026-04-04T12:46:03Z</time></trkpt><trkpt lat="37.797181610535" lon="12.759492007411323"><ele>186.0</ele><time>2026-04-04T12:46:04Z</time></trkpt><trkpt lat="37.797125357777766" lon="12.759420420330759"><ele>186.0</ele><time>2026-04-04T12:46:05Z</time></trkpt><trkpt lat="37.79703196878073" lon="12.759306690023678"><ele>186.0</ele><time>2026-04-04T12:46:07Z</time></trkpt><trkpt lat="37.79695906061597" lon="12.75919621349515"><ele>186.20000000000002</ele><time>2026-04-04T12:46:09Z</time></trkpt><trkpt lat="37.7969080852426" lon="12.75911785009722"><ele>186.4</ele><time>2026-04-04T12:46:11Z</time></trkpt><trkpt lat="37.79683858682874" lon="12.759041142246954"><ele>186.6</ele><time>2026-04-04T12:46:13Z</time></trkpt><trkpt lat="37.79676448304643" lon="12.758933094744885"><ele>186.8</ele><time>2026-04-04T12:46:15Z</time></trkpt><trkpt lat="37.79668087974388" lon="12.758815459286145"><ele>187.0</ele><time>2026-04-04T12:46:16.999Z</time></trkpt><trkpt lat="37.796611024736684" lon="12.758728514262001"><ele>185.0</ele><time>2026-04-04T12:46:18.999Z</time></trkpt><trkpt lat="37.796560230733256" lon="12.758661673105733"><ele>183.0</ele><time>2026-04-04T12:46:20.999Z</time></trkpt><trkpt lat="37.79653147518425" lon="12.758568932566662"><ele>181.0</ele><time>2026-04-04T12:46:41.999Z</time></trkpt><trkpt lat="37.79655966214234" lon="12.758665810611088"><ele>179.0</ele><time>2026-04-04T12:47:02.999Z</time></trkpt><trkpt lat="37.79661332701017" lon="12.758728260515984"><ele>177.0</ele><time>2026-04-04T12:47:04.999Z</time></trkpt><trkpt lat="37.79669114603038" lon="12.758832848658646"><ele>175.0</ele><time>2026-04-04T12:47:06.999Z</time></trkpt><trkpt lat="37.79678212516599" lon="12.758958030466294"><ele>177.2</ele><time>2026-04-04T12:47:09Z</time></trkpt><trkpt lat="37.79683609164441" lon="12.759027373680983"><ele>179.4</ele><time>2026-04-04T12:47:10Z</time></trkpt><trkpt lat="37.79689347182604" lon="12.759096968079815"><ele>181.60000000000002</ele><time>2026-04-04T12:47:11Z</time></trkpt><trkpt lat="37.79699656367259" lon="12.75921651291654"><ele>183.8</ele><time>2026-04-04T12:47:12Z</time></trkpt><trkpt lat="37.79706290074453" lon="12.75930754552468"><ele>186.0</ele><time>2026-04-04T12:47:13Z</time></trkpt><trkpt lat="37.797132455778545" lon="12.759402453103373"><ele>186.0</ele><time>2026-04-04T12:47:14Z</time></trkpt><trkpt lat="37.79719325915693" lon="12.75948299562798"><ele>186.0</ele><time>2026-04-04T12:47:15Z</time></trkpt><trkpt lat="37.79725640055395" lon="12.759569113387599"><ele>186.0</ele><time>2026-04-04T12:47:16Z</time></trkpt><trkpt lat="37.79731437659597" lon="12.75965192344229"><ele>186.0</ele><time>2026-04-04T12:47:17Z</time></trkpt><trkpt lat="37.79737197778053" lon="12.759727086835063"><ele>186.0</ele><time>2026-04-04T12:47:18Z</time></trkpt><trkpt lat="37.79743048833847" lon="12.759798794207653"><ele>186.0</ele><time>2026-04-04T12:47:19Z</time></trkpt><trkpt lat="37.79748151686321" lon="12.759869735919363"><ele>186.0</ele><time>2026-04-04T12:47:20Z</time></trkpt><trkpt lat="37.79755223951065" lon="12.759960925729882"><ele>186.0</ele><time>2026-04-04T12:47:21Z</time></trkpt><trkpt lat="37.79760709813958" lon="12.760028008672451"><ele>186.0</ele><time>2026-04-04T12:47:22Z</time></trkpt><trkpt lat="37.79766143058722" lon="12.760110465611447"><ele>186.0</ele><time>2026-04-04T12:47:23Z</time></trkpt><trkpt lat="37.79771302481517" lon="12.760187754444253"><ele>186.0</ele><time>2026-04-04T12:47:24Z</time></trkpt><trkpt lat="37.797775451091375" lon="12.760262822683247"><ele>186.0</ele><time>2026-04-04T12:47:25Z</time></trkpt><trkpt lat="37.79783956326827" lon="12.760355274515678"><ele>189.60000000000002</ele><time>2026-04-04T12:47:26Z</time></trkpt><trkpt lat="37.79794564910998" lon="12.760431803649194"><ele>193.2</ele><time>2026-04-04T12:47:28Z</time></trkpt><trkpt lat="37.79801061768854" lon="12.760567783484081"><ele>196.8</ele><time>2026-04-04T12:47:29Z</time></trkpt><trkpt lat="37.79807069927122" lon="12.760638913779951"><ele>200.39999999999998</ele><time>2026-04-04T12:47:30Z</time></trkpt><trkpt lat="37.79812952930116" lon="12.76071307900759"><ele>204.0</ele><time>2026-04-04T12:47:31Z</time></trkpt><trkpt lat="37.798188222522384" lon="12.760784641140233"><ele>204.0</ele><time>2026-04-04T12:47:32Z</time></trkpt><trkpt lat="37.798241584878404" lon="12.760849270022065"><ele>204.0</ele><time>2026-04-04T12:47:33Z</time></trkpt><trkpt lat="37.798284947525154" lon="12.760918104455051"><ele>204.0</ele><time>2026-04-04T12:47:34Z</time></trkpt><trkpt lat="37.798359421697754" lon="12.761026840050278"><ele>204.0</ele><time>2026-04-04T12:47:36Z</time></trkpt><trkpt lat="37.798434335682245" lon="12.761125036706686"><ele>204.0</ele><time>2026-04-04T12:47:38Z</time></trkpt><trkpt lat="37.79848116523145" lon="12.761204990885737"><ele>204.0</ele><time>2026-04-04T12:47:42Z</time></trkpt><trkpt lat="37.79853078780428" lon="12.761267921116545"><ele>203.79999999999998</ele><time>2026-04-04T12:47:45Z</time></trkpt><trkpt lat="37.798561771741234" lon="12.761348819837051"><ele>203.6</ele><time>2026-04-04T12:47:51Z</time></trkpt><trkpt lat="37.79864855987152" lon="12.761497420475814"><ele>203.4</ele><time>2026-04-04T12:47:53Z</time></trkpt><trkpt lat="37.79869955927421" lon="12.761581168793638"><ele>203.2</ele><time>2026-04-04T12:47:54Z</time></trkpt><trkpt lat="37.79870839670824" lon="12.76169546366301"><ele>203.0</ele><time>2026-04-04T12:47:55Z</time></trkpt><trkpt lat="37.79875482477669" lon="12.76178395581056"><ele>201.83333333333334</ele><time>2026-04-04T12:47:56Z</time></trkpt><trkpt lat="37.79880025951899" lon="12.761870554664661"><ele>200.66666666666669</ele><time>2026-04-04T12:47:57Z</time></trkpt><trkpt lat="37.798842680839584" lon="12.76195140994569"><ele>199.5</ele><time>2026-04-04T12:47:58Z</time></trkpt><trkpt lat="37.79887793236672" lon="12.762018599555745"><ele>198.33333333333331</ele><time>2026-04-04T12:47:59Z</time></trkpt><trkpt lat="37.79891479327931" lon="12.762089157581332"><ele>197.16666666666666</ele><time>2026-04-04T12:48:00Z</time></trkpt><trkpt lat="37.798975053195555" lon="12.762205858155987"><ele>196.0</ele><time>2026-04-04T12:48:02Z</time></trkpt><trkpt lat="37.799034811885846" lon="12.762321587986204"><ele>195.99999999999997</ele><time>2026-04-04T12:48:04Z</time></trkpt><trkpt lat="37.79908250421053" lon="12.762412555127202"><ele>196.0</ele><time>2026-04-04T12:48:06Z</time></trkpt><trkpt lat="37.79913354639203" lon="12.762508044605603"><ele>196.0</ele><time>2026-04-04T12:48:15Z</time></trkpt><trkpt lat="37.79917718185612" lon="12.762586704657796"><ele>196.0</ele><time>2026-04-04T12:48:17Z</time></trkpt><trkpt lat="37.79921901711089" lon="12.762660098607315"><ele>195.99999999999997</ele><time>2026-04-04T12:48:41.999Z</time></trkpt><trkpt lat="37.79927576608914" lon="12.762723905200673"><ele>196.0</ele><time>2026-04-04T12:48:55.999Z</time></trkpt><trkpt lat="37.79966073955666" lon="12.7627934404641"><ele>195.83333333333331</ele><time>2026-04-04T12:49:01.999Z</time></trkpt><trkpt lat="37.79971426432992" lon="12.762722059048146"><ele>195.66666666666666</ele><time>2026-04-04T12:49:03.999Z</time></trkpt><trkpt lat="37.79977196893124" lon="12.762641427420537"><ele>195.5</ele><time>2026-04-04T12:49:05.999Z</time></trkpt><trkpt lat="37.79982886294634" lon="12.76256205108329"><ele>195.33333333333331</ele><time>2026-04-04T12:49:07.999Z</time></trkpt><trkpt lat="37.79989882345567" lon="12.762469684246257"><ele>195.16666666666666</ele><time>2026-04-04T12:49:11Z</time></trkpt><trkpt lat="37.79996024102952" lon="12.762393330138575"><ele>195.0</ele><time>2026-04-04T12:49:13Z</time></trkpt><trkpt lat="37.80000439274811" lon="12.762333684591011"><ele>196.5</ele><time>2026-04-04T12:49:14Z</time></trkpt><trkpt lat="37.80003251952456" lon="12.762262340512907"><ele>198.0</ele><time>2026-04-04T12:49:17Z</time></trkpt><trkpt lat="37.80019554876781" lon="12.76206758207259"><ele>199.5</ele><time>2026-04-04T12:49:23Z</time></trkpt><trkpt lat="37.800258346668166" lon="12.761980947877097"><ele>201.0</ele><time>2026-04-04T12:49:24Z</time></trkpt><trkpt lat="37.80032580166288" lon="12.76189651066068"><ele>205.25</ele><time>2026-04-04T12:49:25Z</time></trkpt><trkpt lat="37.80041002441935" lon="12.761808557184635"><ele>209.5</ele><time>2026-04-04T12:49:27Z</time></trkpt><trkpt lat="37.80030481592297" lon="12.761639035030386"><ele>213.75</ele><time>2026-04-04T12:49:29Z</time></trkpt><trkpt lat="37.80035461363371" lon="12.76153025437314"><ele>218.0</ele><time>2026-04-04T12:49:36Z</time></trkpt><trkpt lat="37.80039062279367" lon="12.761447196911979"><ele>218.0</ele><time>2026-04-04T12:49:38Z</time></trkpt><trkpt lat="37.800375053576346" lon="12.761341083591514"><ele>218.0</ele><time>2026-04-04T12:50:06Z</time></trkpt><trkpt lat="37.80036236832586" lon="12.76125121240022"><ele>218.0</ele><time>2026-04-04T12:50:09Z</time></trkpt><trkpt lat="37.800405415504" lon="12.761138603661404"><ele>218.0</ele><time>2026-04-04T12:50:12Z</time></trkpt><trkpt lat="37.80049855780192" lon="12.761049394923438"><ele>218.0</ele><time>2026-04-04T12:50:14Z</time></trkpt><trkpt lat="37.800576654394156" lon="12.760952422448106"><ele>219.8</ele><time>2026-04-04T12:50:16Z</time></trkpt><trkpt lat="37.80066382108817" lon="12.760829973905421"><ele>221.60000000000002</ele><time>2026-04-04T12:50:18Z</time></trkpt><trkpt lat="37.800753576035696" lon="12.760721774107997"><ele>223.39999999999998</ele><time>2026-04-04T12:50:20Z</time></trkpt><trkpt lat="37.80080378509754" lon="12.76065457648246"><ele>225.2</ele><time>2026-04-04T12:50:21Z</time></trkpt><trkpt lat="37.800847970413486" lon="12.760594099090197"><ele>227.0</ele><time>2026-04-04T12:50:22Z</time></trkpt><trkpt lat="37.80089838563517" lon="12.76052463506337"><ele>227.0</ele><time>2026-04-04T12:50:23Z</time></trkpt><trkpt lat="37.80095030987981" lon="12.760461757415865"><ele>227.0</ele><time>2026-04-04T12:50:24Z</time></trkpt><trkpt lat="37.8010281818814" lon="12.760379356025968"><ele>227.0</ele><time>2026-04-04T12:50:26Z</time></trkpt><trkpt lat="37.80111327064129" lon="12.760270595378731"><ele>227.0</ele><time>2026-04-04T12:50:27.998Z</time></trkpt><trkpt lat="37.8011678362227" lon="12.760201405271507"><ele>227.0</ele><time>2026-04-04T12:50:28.998Z</time></trkpt><trkpt lat="37.801238785467206" lon="12.76010658404132"><ele>232.16666666666669</ele><time>2026-04-04T12:50:30.998Z</time></trkpt><trkpt lat="37.8013095084195" lon="12.760006729476347"><ele>237.33333333333334</ele><time>2026-04-04T12:50:32.998Z</time></trkpt><trkpt lat="37.80139747590036" lon="12.759974314136453"><ele>242.5</ele><time>2026-04-04T12:50:53.999Z</time></trkpt><trkpt lat="37.801462237047495" lon="12.760033535127848"><ele>247.66666666666669</ele><time>2026-04-04T12:51:01.999Z</time></trkpt><trkpt lat="37.801519960425985" lon="12.760073857183603"><ele>252.83333333333334</ele><time>2026-04-04T12:51:16Z</time></trkpt><trkpt lat="37.8014623002452" lon="12.760040720419621"><ele>258.0</ele><time>2026-04-04T12:52:17Z</time></trkpt><trkpt lat="37.801404912378814" lon="12.759981852011391"><ele>257.99999999999994</ele><time>2026-04-04T12:52:19Z</time></trkpt><trkpt lat="37.8013302090027" lon="12.759940933092082"><ele>258.0</ele><time>2026-04-04T12:52:22.001Z</time></trkpt><trkpt lat="37.801283247382095" lon="12.759886534398126"><ele>258.0</ele><time>2026-04-04T12:52:24.001Z</time></trkpt><trkpt lat="37.80122110867047" lon="12.759835330776909"><ele>258.0</ele><time>2026-04-04T12:52:26.001Z</time></trkpt><trkpt lat="37.80115270463413" lon="12.759790489045303"><ele>258.0</ele><time>2026-04-04T12:52:29.001Z</time></trkpt><trkpt lat="37.80109033742777" lon="12.759750960807715"><ele>257.99999999999994</ele><time>2026-04-04T12:52:32.001Z</time></trkpt><trkpt lat="37.801041808866884" lon="12.759813918336532"><ele>258.0</ele><time>2026-04-04T12:52:54.999Z</time></trkpt><trkpt lat="37.80100029451721" lon="12.759721122663501"><ele>255.16666666666666</ele><time>2026-04-04T12:52:58.999Z</time></trkpt><trkpt lat="37.80095313147473" lon="12.75964817074375"><ele>252.33333333333331</ele><time>2026-04-04T12:53:00.999Z</time></trkpt><trkpt lat="37.80089482395543" lon="12.759587103882131"><ele>249.5</ele><time>2026-04-04T12:53:02.999Z</time></trkpt><trkpt lat="37.800836683397286" lon="12.759529429613767"><ele>246.66666666666666</ele><time>2026-04-04T12:53:04.999Z</time></trkpt><trkpt lat="37.80076984559829" lon="12.759462892615053"><ele>243.83333333333331</ele><time>2026-04-04T12:53:07Z</time></trkpt><trkpt lat="37.80069081827056" lon="12.759443600574276"><ele>241.0</ele><time>2026-04-04T12:53:10Z</time></trkpt><trkpt lat="37.8006458601644" lon="12.759502339016356"><ele>241.0</ele><time>2026-04-04T12:53:55Z</time></trkpt><trkpt lat="37.80060170270303" lon="12.759577004366882"><ele>241.00000000000003</ele><time>2026-04-04T12:53:58.001Z</time></trkpt><trkpt lat="37.800540912350925" lon="12.75962200152383"><ele>241.0</ele><time>2026-04-04T12:54:01.001Z</time></trkpt><trkpt lat="37.80046893198812" lon="12.759679969534144"><ele>241.0</ele><time>2026-04-04T12:54:19.001Z</time></trkpt><trkpt lat="37.800422354218874" lon="12.759745380051553"><ele>241.00000000000003</ele><time>2026-04-04T12:54:23.001Z</time></trkpt><trkpt lat="37.8003636946728" lon="12.759803008517212"><ele>241.0</ele><time>2026-04-04T12:54:28.001Z</time></trkpt><trkpt lat="37.80030210676566" lon="12.759846195546995"><ele>241.0</ele><time>2026-04-04T12:54:31.001Z</time></trkpt><trkpt lat="37.80023217621792" lon="12.759905990866397"><ele>241.0</ele><time>2026-04-04T12:54:36.001Z</time></trkpt><trkpt lat="37.800175914821864" lon="12.759952320543936"><ele>241.00000000000003</ele><time>2026-04-04T12:54:39.999Z</time></trkpt><trkpt lat="37.80012398199667" lon="12.76003599910762"><ele>241.0</ele><time>2026-04-04T12:54:54.999Z</time></trkpt><trkpt lat="37.80008970442896" lon="12.760117563223002"><ele>241.0</ele><time>2026-04-04T12:55:00Z</time></trkpt><trkpt lat="37.80004070160783" lon="12.760055123040514"><ele>241.00000000000003</ele><time>2026-04-04T12:55:04Z</time></trkpt><trkpt lat="37.80007379725391" lon="12.759958844949324"><ele>241.0</ele><time>2026-04-04T12:55:06Z</time></trkpt><trkpt lat="37.80007248563026" lon="12.759878553558258"><ele>241.0</ele><time>2026-04-04T12:55:11Z</time></trkpt><trkpt lat="37.80016054260059" lon="12.759796658607184"><ele>240.99999999999997</ele><time>2026-04-04T12:55:14Z</time></trkpt><trkpt lat="37.800238642796394" lon="12.759727562623027"><ele>241.0</ele><time>2026-04-04T12:55:16Z</time></trkpt><trkpt lat="37.800290313033784" lon="12.75968063828408"><ele>241.0</ele><time>2026-04-04T12:55:17Z</time></trkpt><trkpt lat="37.800352697343875" lon="12.759636321565745"><ele>241.0</ele><time>2026-04-04T12:55:18Z</time></trkpt><trkpt lat="37.80043287633311" lon="12.75956105517119"><ele>240.99999999999997</ele><time>2026-04-04T12:55:20Z</time></trkpt><trkpt lat="37.80049395364678" lon="12.759508376911217"><ele>241.0</ele><time>2026-04-04T12:55:21Z</time></trkpt><trkpt lat="37.80056642375101" lon="12.75944888486241"><ele>241.0</ele><time>2026-04-04T12:55:22Z</time></trkpt><trkpt lat="37.80062180209793" lon="12.759403124081695"><ele>241.00000000000003</ele><time>2026-04-04T12:55:23Z</time></trkpt><trkpt lat="37.80061469300362" lon="12.759300674706255"><ele>241.0</ele><time>2026-04-04T12:55:25Z</time></trkpt><trkpt lat="37.800556787856" lon="12.75925823843966"><ele>241.0</ele><time>2026-04-04T12:55:27Z</time></trkpt><trkpt lat="37.80049372913585" lon="12.759236626206114"><ele>241.00000000000003</ele><time>2026-04-04T12:55:31Z</time></trkpt><trkpt lat="37.80042799688135" lon="12.759216162163872"><ele>241.0</ele><time>2026-04-04T12:55:34Z</time></trkpt><trkpt lat="37.80036311953482" lon="12.759160769289958"><ele>241.0</ele><time>2026-04-04T12:55:41.001Z</time></trkpt><trkpt lat="37.800297336340165" lon="12.759183753964155"><ele>240.66666666666666</ele><time>2026-04-04T12:55:44.001Z</time></trkpt><trkpt lat="37.80021910019641" lon="12.7592194189629"><ele>240.33333333333331</ele><time>2026-04-04T12:55:47.001Z</time></trkpt><trkpt lat="37.8001468092962" lon="12.759222995824455"><ele>240.0</ele><time>2026-04-04T12:55:50.001Z</time></trkpt><trkpt lat="37.80005360246876" lon="12.759226735746513"><ele>239.66666666666669</ele><time>2026-04-04T12:55:53.001Z</time></trkpt><trkpt lat="37.799995048477605" lon="12.75927123064412"><ele>239.33333333333334</ele><time>2026-04-04T12:55:55.001Z</time></trkpt><trkpt lat="37.79992196526472" lon="12.759314525098418"><ele>239.0</ele><time>2026-04-04T12:55:58.001Z</time></trkpt><trkpt lat="37.79985760100434" lon="12.759324820401012"><ele>239.00000000000003</ele><time>2026-04-04T12:56:00.001Z</time></trkpt><trkpt lat="37.7997710980341" lon="12.759333309134732"><ele>239.0</ele><time>2026-04-04T12:56:03.001Z</time></trkpt><trkpt lat="37.799703356283715" lon="12.759373266281834"><ele>239.0</ele><time>2026-04-04T12:56:06.001Z</time></trkpt><trkpt lat="37.799631283241226" lon="12.759457967457822"><ele>239.0</ele><time>2026-04-04T12:56:09.001Z</time></trkpt><trkpt lat="37.79955356362475" lon="12.759512710568734"><ele>239.00000000000003</ele><time>2026-04-04T12:56:11.001Z</time></trkpt><trkpt lat="37.79949239137354" lon="12.759570181795162"><ele>239.0</ele><time>2026-04-04T12:56:13.001Z</time></trkpt><trkpt lat="37.799442847420636" lon="12.759658129797575"><ele>237.33333333333334</ele><time>2026-04-04T12:56:16.001Z</time></trkpt><trkpt lat="37.799426855326864" lon="12.759746666049065"><ele>235.66666666666669</ele><time>2026-04-04T12:56:18.001Z</time></trkpt><trkpt lat="37.79941361144633" lon="12.75983254943388"><ele>234.0</ele><time>2026-04-04T12:56:20.001Z</time></trkpt><trkpt lat="37.799387648160184" lon="12.759926216763361"><ele>232.33333333333331</ele><time>2026-04-04T12:56:22.001Z</time></trkpt><trkpt lat="37.79932331550861" lon="12.759996894998295"><ele>230.66666666666666</ele><time>2026-04-04T12:56:24.001Z</time></trkpt><trkpt lat="37.79924461753129" lon="12.7600525110453"><ele>229.0</ele><time>2026-04-04T12:56:26.001Z</time></trkpt><trkpt lat="37.79918898220129" lon="12.760105372888003"><ele>227.0</ele><time>2026-04-04T12:56:28.001Z</time></trkpt><trkpt lat="37.79918263232145" lon="12.76018735922978"><ele>224.99999999999997</ele><time>2026-04-04T12:56:31.001Z</time></trkpt><trkpt lat="37.79923261038104" lon="12.760296416252494"><ele>222.99999999999997</ele><time>2026-04-04T12:56:33.002Z</time></trkpt><trkpt lat="37.799290946455905" lon="12.760401754039458"><ele>221.0</ele><time>2026-04-04T12:56:35.002Z</time></trkpt><trkpt lat="37.79931785363445" lon="12.760497119819266"><ele>219.0</ele><time>2026-04-04T12:56:38.002Z</time></trkpt><trkpt lat="37.79920922014466" lon="12.760588322617998"><ele>218.0</ele><time>2026-04-04T12:56:40.002Z</time></trkpt><trkpt lat="37.79913235628089" lon="12.760673187611829"><ele>216.99999999999997</ele><time>2026-04-04T12:56:41.002Z</time></trkpt><trkpt lat="37.799039002481784" lon="12.760740691368323"><ele>215.99999999999997</ele><time>2026-04-04T12:56:42.002Z</time></trkpt><trkpt lat="37.79895964415659" lon="12.76081502693431"><ele>215.0</ele><time>2026-04-04T12:56:43.002Z</time></trkpt><trkpt lat="37.79884466324121" lon="12.760905154209516"><ele>214.0</ele><time>2026-04-04T12:56:45.002Z</time></trkpt><trkpt lat="37.79874431728121" lon="12.760985304582467"><ele>214.0</ele><time>2026-04-04T12:56:46.999Z</time></trkpt><trkpt lat="37.79864544823392" lon="12.761031751393748"><ele>213.99999999999997</ele><time>2026-04-04T12:56:48.999Z</time></trkpt><trkpt lat="37.7985662806801" lon="12.761081926969627"><ele>213.99999999999997</ele><time>2026-04-04T12:56:50.999Z</time></trkpt><trkpt lat="37.798507831944605" lon="12.76111892407206"><ele>214.0</ele><time>2026-04-04T12:56:52.999Z</time></trkpt><trkpt lat="37.79844921140839" lon="12.761167409125267"><ele>214.0</ele><time>2026-04-04T12:57:41.001Z</time></trkpt><trkpt lat="37.798581021882384" lon="12.761422779547047"><ele>211.79999999999998</ele><time>2026-04-04T12:57:50.001Z</time></trkpt><trkpt lat="37.7986382172594" lon="12.76154119483061"><ele>209.59999999999997</ele><time>2026-04-04T12:57:52.001Z</time></trkpt><trkpt lat="37.79868144275379" lon="12.761606342179784"><ele>207.4</ele><time>2026-04-04T12:57:53.001Z</time></trkpt><trkpt lat="37.798716063608545" lon="12.761710076853475"><ele>205.2</ele><time>2026-04-04T12:57:54.001Z</time></trkpt><trkpt lat="37.7987704967704" lon="12.761813826739356"><ele>203.0</ele><time>2026-04-04T12:57:55.001Z</time></trkpt><trkpt lat="37.79881927405954" lon="12.76190679649198"><ele>201.60000000000002</ele><time>2026-04-04T12:57:56.001Z</time></trkpt><trkpt lat="37.79887116652126" lon="12.762005703809148"><ele>200.20000000000002</ele><time>2026-04-04T12:57:57.001Z</time></trkpt><trkpt lat="37.79892968993039" lon="12.762118006749345"><ele>198.8</ele><time>2026-04-04T12:57:58.001Z</time></trkpt><trkpt lat="37.79897098192841" lon="12.762197973626725"><ele>197.4</ele><time>2026-04-04T12:57:59.001Z</time></trkpt><trkpt lat="37.79903124169344" lon="12.762314673897105"><ele>196.0</ele><time>2026-04-04T12:58:01.001Z</time></trkpt><trkpt lat="37.7990820926762" lon="12.762411774299562"><ele>195.99999999999997</ele><time>2026-04-04T12:58:03.001Z</time></trkpt><trkpt lat="37.79913266316828" lon="12.762506452458915"><ele>196.0</ele><time>2026-04-04T12:58:05.001Z</time></trkpt><trkpt lat="37.79919409799447" lon="12.762592652666529"><ele>196.0</ele><time>2026-04-04T12:58:07.001Z</time></trkpt><trkpt lat="37.79922744519027" lon="12.762674285029487"><ele>196.0</ele><time>2026-04-04T12:58:11.001Z</time></trkpt><trkpt lat="37.7992772951546" lon="12.762758194261195"><ele>195.99999999999997</ele><time>2026-04-04T12:58:15.001Z</time></trkpt><trkpt lat="37.79934050425802" lon="12.762867675868627"><ele>196.0</ele><time>2026-04-04T12:58:18.001Z</time></trkpt><trkpt lat="37.799387867307516" lon="12.762939767015906"><ele>195.8</ele><time>2026-04-04T12:58:20.001Z</time></trkpt><trkpt lat="37.79944225455662" lon="12.763002993809145"><ele>195.60000000000002</ele><time>2026-04-04T12:58:22.001Z</time></trkpt><trkpt lat="37.799602815756835" lon="12.762954163597776"><ele>195.4</ele><time>2026-04-04T12:58:24.001Z</time></trkpt><trkpt lat="37.799679626627224" lon="12.76292709614225"><ele>195.2</ele><time>2026-04-04T12:58:27.002Z</time></trkpt><trkpt lat="37.79971943593583" lon="12.762849221353116"><ele>195.0</ele><time>2026-04-04T12:58:29.002Z</time></trkpt><trkpt lat="37.79976283392136" lon="12.762779262087031"><ele>195.0</ele><time>2026-04-04T12:58:31.002Z</time></trkpt><trkpt lat="37.79980884136934" lon="12.76270898380955"><ele>195.0</ele><time>2026-04-04T12:58:33.002Z</time></trkpt><trkpt lat="37.79985573070908" lon="12.762654812530045"><ele>195.0</ele><time>2026-04-04T12:58:37.002Z</time></trkpt><trkpt lat="37.79991886012712" lon="12.762669205336895"><ele>195.0</ele><time>2026-04-04T12:58:39.002Z</time></trkpt><trkpt lat="37.799986337682995" lon="12.762615385253449"><ele>195.0</ele><time>2026-04-04T12:58:41.002Z</time></trkpt><trkpt lat="37.800043058509836" lon="12.762555931764863"><ele>195.0</ele><time>2026-04-04T12:58:44.002Z</time></trkpt><trkpt lat="37.800102444181945" lon="12.76248255753435"><ele>195.0</ele><time>2026-04-04T12:58:49.002Z</time></trkpt><trkpt lat="37.80011851123987" lon="12.762365121521837"><ele>196.0</ele><time>2026-04-04T12:58:51.002Z</time></trkpt><trkpt lat="37.8001423425754" lon="12.762288555925998"><ele>197.0</ele><time>2026-04-04T12:58:52Z</time></trkpt><trkpt lat="37.80023737575414" lon="12.762213857264765"><ele>198.0</ele><time>2026-04-04T12:58:54Z</time></trkpt><trkpt lat="37.80029118004308" lon="12.7621517380212"><ele>199.0</ele><time>2026-04-04T12:58:55Z</time></trkpt><trkpt lat="37.800332344572865" lon="12.762069170505955"><ele>200.0</ele><time>2026-04-04T12:58:56Z</time></trkpt><trkpt lat="37.80037774153374" lon="12.761945661080121"><ele>201.0</ele><time>2026-04-04T12:58:58Z</time></trkpt><trkpt lat="37.8004109002992" lon="12.761869581092176"><ele>203.42857142857142</ele><time>2026-04-04T12:59:01Z</time></trkpt><trkpt lat="37.80044634049721" lon="12.76179638564295"><ele>205.85714285714286</ele><time>2026-04-04T12:59:08Z</time></trkpt><trkpt lat="37.80052278768953" lon="12.761783234412205"><ele>208.28571428571428</ele><time>2026-04-04T12:59:11Z</time></trkpt><trkpt lat="37.800590071620654" lon="12.761725612744396"><ele>210.71428571428572</ele><time>2026-04-04T12:59:17Z</time></trkpt><trkpt lat="37.800646746870676" lon="12.76165465936529"><ele>213.14285714285717</ele><time>2026-04-04T12:59:33.001Z</time></trkpt><trkpt lat="37.80068888816746" lon="12.761590736216363"><ele>215.57142857142858</ele><time>2026-04-04T12:59:43.001Z</time></trkpt><trkpt lat="37.80074158907607" lon="12.76153272629376"><ele>218.0</ele><time>2026-04-04T12:59:47.001Z</time></trkpt><trkpt lat="37.8007877615579" lon="12.761461404174408"><ele>218.00000000000003</ele><time>2026-04-04T12:59:50.001Z</time></trkpt><trkpt lat="37.80082731034277" lon="12.761398285455316"><ele>218.0</ele><time>2026-04-04T12:59:52.001Z</time></trkpt><trkpt lat="37.8008835776908" lon="12.761302921376128"><ele>218.0</ele><time>2026-04-04T12:59:55.001Z</time></trkpt><trkpt lat="37.800913467115414" lon="12.7612301164964"><ele>218.0</ele><time>2026-04-04T12:59:57.001Z</time></trkpt><trkpt lat="37.80098211806763" lon="12.761165157039455"><ele>218.00000000000003</ele><time>2026-04-04T13:00:00.001Z</time></trkpt><trkpt lat="37.80103195820707" lon="12.761113312746678"><ele>218.0</ele><time>2026-04-04T13:00:02.001Z</time></trkpt><trkpt lat="37.801092603959916" lon="12.761031335447951"><ele>221.16666666666669</ele><time>2026-04-04T13:00:05.001Z</time></trkpt><trkpt lat="37.80113884832561" lon="12.760958034649951"><ele>224.33333333333334</ele><time>2026-04-04T13:00:08.001Z</time></trkpt><trkpt lat="37.80114718665543" lon="12.760863625885857"><ele>227.5</ele><time>2026-04-04T13:00:21.002Z</time></trkpt><trkpt lat="37.80121087051907" lon="12.760787145017972"><ele>230.66666666666669</ele><time>2026-04-04T13:00:34.002Z</time></trkpt><trkpt lat="37.801243993061945" lon="12.760676065447864"><ele>233.83333333333334</ele><time>2026-04-04T13:00:43.002Z</time></trkpt><trkpt lat="37.801285070817606" lon="12.76060645433921"><ele>237.0</ele><time>2026-04-04T13:00:46.002Z</time></trkpt><trkpt lat="37.801337110122105" lon="12.760536680649318"><ele>237.0</ele><time>2026-04-04T13:00:49.002Z</time></trkpt><trkpt lat="37.80137987247718" lon="12.760458280870235"><ele>237.0</ele><time>2026-04-04T13:00:51.002Z</time></trkpt><trkpt lat="37.80142148142447" lon="12.76039420049134"><ele>237.0</ele><time>2026-04-04T13:00:53.002Z</time></trkpt><trkpt lat="37.80148094744192" lon="12.760312334743048"><ele>237.0</ele><time>2026-04-04T13:00:56.002Z</time></trkpt><trkpt lat="37.80154772732496" lon="12.760254990984853"><ele>237.0</ele><time>2026-04-04T13:00:59Z</time></trkpt><trkpt lat="37.8016198738535" lon="12.76021747727763"><ele>237.0</ele><time>2026-04-04T13:01:02Z</time></trkpt><trkpt lat="37.80168730943459" lon="12.760144076442995"><ele>239.99999999999997</ele><time>2026-04-04T13:01:32.001Z</time></trkpt><trkpt lat="37.80172895095292" lon="12.760080210087109"><ele>243.0</ele><time>2026-04-04T13:01:34.001Z</time></trkpt><trkpt lat="37.80178449852056" lon="12.76003393084883"><ele>245.99999999999997</ele><time>2026-04-04T13:02:06.001Z</time></trkpt><trkpt lat="37.80185239026788" lon="12.76001530980681"><ele>248.99999999999997</ele><time>2026-04-04T13:04:02.001Z</time></trkpt><trkpt lat="37.80181014101905" lon="12.759927000544293"><ele>252.0</ele><time>2026-04-04T13:07:05.002Z</time></trkpt><trkpt lat="37.801762540105415" lon="12.759871249927878"><ele>254.99999999999997</ele><time>2026-04-04T13:07:08.002Z</time></trkpt><trkpt lat="37.801692631393536" lon="12.759817866833533"><ele>258.0</ele><time>2026-04-04T13:07:46.001Z</time></trkpt><trkpt lat="37.801621764534914" lon="12.75975852800515"><ele>258.0</ele><time>2026-04-04T13:08:02.001Z</time></trkpt><trkpt lat="37.80171534725179" lon="12.759740536410737"><ele>258.0</ele><time>2026-04-04T13:09:10.002Z</time></trkpt><trkpt lat="37.801779883354264" lon="12.75970731534031"><ele>258.0</ele><time>2026-04-04T13:09:31.001Z</time></trkpt><trkpt lat="37.801851586682496" lon="12.759629931610567"><ele>274.0</ele><time>2026-04-04T13:09:34.001Z</time></trkpt></trkseg><trkseg><trkpt lat="37.80201490254265" lon="12.759521887765708"><ele>274.00000000000006</ele><time>2026-04-04T13:29:33Z</time></trkpt><trkpt lat="37.802057309456785" lon="12.759608017164549"><ele>274.0</ele><time>2026-04-04T13:38:02.001Z</time></trkpt><trkpt lat="37.80210220212524" lon="12.75966984436149"><ele>274.0</ele><time>2026-04-04T13:38:18.001Z</time></trkpt><trkpt lat="37.80214642443528" lon="12.759729134441702"><ele>274.0</ele><time>2026-04-04T13:38:35.001Z</time></trkpt><trkpt lat="37.802198572142714" lon="12.759778573307095"><ele>274.0</ele><time>2026-04-04T13:38:52.999Z</time></trkpt><trkpt lat="37.802241114090485" lon="12.75984134640084"><ele>274.00000000000006</ele><time>2026-04-04T13:39:28Z</time></trkpt><trkpt lat="37.802279197407664" lon="12.759943340997863"><ele>274.0</ele><time>2026-04-04T13:39:57.001Z</time></trkpt><trkpt lat="37.80233290728703" lon="12.759996165990941"><ele>274.00000000000006</ele><time>2026-04-04T13:40:14.001Z</time></trkpt><trkpt lat="37.80240563362574" lon="12.75999082052411"><ele>274.0</ele><time>2026-04-04T13:40:48.002Z</time></trkpt><trkpt lat="37.80247438955905" lon="12.759994082191291"><ele>274.0</ele><time>2026-04-04T13:41:15Z</time></trkpt><trkpt lat="37.80254118631645" lon="12.759998079667785"><ele>274.0</ele><time>2026-04-04T13:42:17.001Z</time></trkpt><trkpt lat="37.802611488971415" lon="12.760020379927857"><ele>274.0</ele><time>2026-04-04T13:42:49.002Z</time></trkpt><trkpt lat="37.80271142621684" lon="12.760049112929575"><ele>274.00000000000006</ele><time>2026-04-04T13:43:27Z</time></trkpt><trkpt lat="37.80277526436211" lon="12.760066614187467"><ele>274.0</ele><time>2026-04-04T13:43:35.001Z</time></trkpt><trkpt lat="37.80284752464618" lon="12.760092477547394"><ele>276.0</ele><time>2026-04-04T13:43:55.001Z</time></trkpt><trkpt lat="37.80291610887905" lon="12.760127334429514"><ele>276.0</ele><time>2026-04-04T13:44:10.001Z</time></trkpt><trkpt lat="37.80297824543974" lon="12.760152754137877"><ele>276.0</ele><time>2026-04-04T13:44:13.001Z</time></trkpt></trkseg><trkseg><trkpt lat="37.803571673525944" lon="12.758731504192946"><ele>303.0</ele><time>2026-04-04T14:05:06Z</time></trkpt><trkpt lat="37.80362897094841" lon="12.758675308296828"><ele>303.0</ele><time>2026-04-04T14:05:09Z</time></trkpt><trkpt lat="37.80366107601792" lon="12.758604655859578"><ele>303.0</ele><time>2026-04-04T14:05:11Z</time></trkpt><trkpt lat="37.80359330827438" lon="12.758525394337202"><ele>303.0</ele><time>2026-04-04T14:05:18Z</time></trkpt><trkpt lat="37.80354890536947" lon="12.75845144066706"><ele>303.0</ele><time>2026-04-04T14:05:20Z</time></trkpt><trkpt lat="37.80351152091069" lon="12.758377203639045"><ele>303.0</ele><time>2026-04-04T14:05:22Z</time></trkpt><trkpt lat="37.80346533382631" lon="12.758290697962948"><ele>306.6666666666667</ele><time>2026-04-04T14:05:25Z</time></trkpt><trkpt lat="37.80342413093602" lon="12.758227683997424"><ele>310.3333333333333</ele><time>2026-04-04T14:05:27Z</time></trkpt><trkpt lat="37.80337250135443" lon="12.758142257355306"><ele>314.0</ele><time>2026-04-04T14:05:29Z</time></trkpt><trkpt lat="37.803336134783926" lon="12.75807373549981"><ele>317.66666666666663</ele><time>2026-04-04T14:05:31Z</time></trkpt><trkpt lat="37.80327407914344" lon="12.757985146638307"><ele>321.3333333333333</ele><time>2026-04-04T14:05:34Z</time></trkpt><trkpt lat="37.80323540036984" lon="12.757914633747218"><ele>325.0</ele><time>2026-04-04T14:05:37Z</time></trkpt><trkpt lat="37.80315972235237" lon="12.757803641713037"><ele>325.0</ele><time>2026-04-04T14:05:40Z</time></trkpt><trkpt lat="37.80307748282719" lon="12.75771183083808"><ele>325.0</ele><time>2026-04-04T14:05:42Z</time></trkpt><trkpt lat="37.80298505098263" lon="12.757612418013426"><ele>325.0</ele><time>2026-04-04T14:05:44Z</time></trkpt><trkpt lat="37.802933573184504" lon="12.757549955172971"><ele>325.0</ele><time>2026-04-04T14:05:45Z</time></trkpt><trkpt lat="37.8028907525984" lon="12.757485660431218"><ele>325.0</ele><time>2026-04-04T14:05:46Z</time></trkpt><trkpt lat="37.80282943566095" lon="12.757401455369655"><ele>326.66666666666663</ele><time>2026-04-04T14:05:49Z</time></trkpt><trkpt lat="37.80277204879135" lon="12.757293911489528"><ele>328.3333333333333</ele><time>2026-04-04T14:05:52Z</time></trkpt><trkpt lat="37.802723414149185" lon="12.757193661534716"><ele>330.0</ele><time>2026-04-04T14:05:54Z</time></trkpt><trkpt lat="37.802684421023656" lon="12.757126540036726"><ele>331.6666666666667</ele><time>2026-04-04T14:05:56Z</time></trkpt><trkpt lat="37.80263925934268" lon="12.757039304123067"><ele>333.33333333333337</ele><time>2026-04-04T14:05:58Z</time></trkpt><trkpt lat="37.80259432622147" lon="12.756948643643506"><ele>335.0</ele><time>2026-04-04T14:06:00Z</time></trkpt><trkpt lat="37.80255933661375" lon="12.75683247631634"><ele>336.5</ele><time>2026-04-04T14:06:03Z</time></trkpt><trkpt lat="37.80256575096054" lon="12.756722967553317"><ele>338.0</ele><time>2026-04-04T14:06:05Z</time></trkpt><trkpt lat="37.80260329680062" lon="12.756636366180034"><ele>339.5</ele><time>2026-04-04T14:06:07Z</time></trkpt><trkpt lat="37.80268214629028" lon="12.756583904030688"><ele>341.0</ele><time>2026-04-04T14:06:09Z</time></trkpt><trkpt lat="37.80272007417144" lon="12.756515220362557"><ele>342.5</ele><time>2026-04-04T14:06:11Z</time></trkpt><trkpt lat="37.802731332317805" lon="12.7564158335061"><ele>344.0</ele><time>2026-04-04T14:06:13Z</time></trkpt><trkpt lat="37.8027012181112" lon="12.756314430880586"><ele>345.5</ele><time>2026-04-04T14:06:15Z</time></trkpt><trkpt lat="37.80265246042224" lon="12.7562203815215"><ele>347.0</ele><time>2026-04-04T14:06:17Z</time></trkpt><trkpt lat="37.80261831544507" lon="12.756141513961301"><ele>348.5</ele><time>2026-04-04T14:06:19Z</time></trkpt><trkpt lat="37.802589243786954" lon="12.756052269294912"><ele>350.0</ele><time>2026-04-04T14:06:21Z</time></trkpt><trkpt lat="37.80256013888962" lon="12.755944929714934"><ele>351.5</ele><time>2026-04-04T14:06:24Z</time></trkpt><trkpt lat="37.80252617880675" lon="12.75585922400921"><ele>353.0</ele><time>2026-04-04T14:06:26Z</time></trkpt><trkpt lat="37.802482805701004" lon="12.755763409789243"><ele>353.0</ele><time>2026-04-04T14:06:29Z</time></trkpt><trkpt lat="37.802481593078056" lon="12.755669496460937"><ele>353.0</ele><time>2026-04-04T14:06:32Z</time></trkpt><trkpt lat="37.802478889695465" lon="12.755574737049402"><ele>353.0</ele><time>2026-04-04T14:06:42Z</time></trkpt><trkpt lat="37.802508779252314" lon="12.755499698984838"><ele>353.0</ele><time>2026-04-04T14:06:47Z</time></trkpt><trkpt lat="37.802547428441656" lon="12.755408036507252"><ele>353.0</ele><time>2026-04-04T14:06:51Z</time></trkpt><trkpt lat="37.8024957712679" lon="12.75532764678796"><ele>353.0</ele><time>2026-04-04T14:06:56Z</time></trkpt><trkpt lat="37.80245488212635" lon="12.755265459565122"><ele>353.0</ele><time>2026-04-04T14:07:03Z</time></trkpt><trkpt lat="37.80241179483977" lon="12.755202919894046"><ele>350.4</ele><time>2026-04-04T14:07:05Z</time></trkpt><trkpt lat="37.80238504039067" lon="12.755110927555553"><ele>347.79999999999995</ele><time>2026-04-04T14:07:07Z</time></trkpt><trkpt lat="37.80234721710647" lon="12.755008621242073"><ele>345.2</ele><time>2026-04-04T14:07:09Z</time></trkpt><trkpt lat="37.80229607209671" lon="12.754882076374102"><ele>342.6</ele><time>2026-04-04T14:07:11Z</time></trkpt><trkpt lat="37.8022486934626" lon="12.754739320927195"><ele>340.0</ele><time>2026-04-04T14:07:13Z</time></trkpt><trkpt lat="37.80221932761228" lon="12.754661780117948"><ele>340.0</ele><time>2026-04-04T14:07:14Z</time></trkpt><trkpt lat="37.802188771857686" lon="12.75457482423991"><ele>340.0</ele><time>2026-04-04T14:07:15Z</time></trkpt><trkpt lat="37.80215781576241" lon="12.754494502906102"><ele>340.0</ele><time>2026-04-04T14:07:16Z</time></trkpt><trkpt lat="37.80213031954994" lon="12.75442094217398"><ele>340.0</ele><time>2026-04-04T14:07:17Z</time></trkpt><trkpt lat="37.80209008889415" lon="12.75431506085542"><ele>340.0</ele><time>2026-04-04T14:07:19Z</time></trkpt><trkpt lat="37.802021579854426" lon="12.754261758757647"><ele>340.0</ele><time>2026-04-04T14:07:21Z</time></trkpt><trkpt lat="37.801991075091344" lon="12.754138784529319"><ele>337.6</ele><time>2026-04-04T14:07:23Z</time></trkpt><trkpt lat="37.8019750995154" lon="12.754009513329024"><ele>335.2</ele><time>2026-04-04T14:07:25Z</time></trkpt><trkpt lat="37.80194918703293" lon="12.753872281661408"><ele>332.79999999999995</ele><time>2026-04-04T14:07:27Z</time></trkpt><trkpt lat="37.801929690557074" lon="12.753753502468413"><ele>330.4</ele><time>2026-04-04T14:07:29Z</time></trkpt><trkpt lat="37.80184274072273" lon="12.753619094355205"><ele>328.0</ele><time>2026-04-04T14:07:31Z</time></trkpt><trkpt lat="37.801775171953295" lon="12.753486697370569"><ele>325.8333333333333</ele><time>2026-04-04T14:07:33Z</time></trkpt><trkpt lat="37.801752503759054" lon="12.75341118542644"><ele>323.66666666666663</ele><time>2026-04-04T14:07:34Z</time></trkpt><trkpt lat="37.801704465672685" lon="12.753274981074679"><ele>321.5</ele><time>2026-04-04T14:07:36Z</time></trkpt><trkpt lat="37.80166960192948" lon="12.753164259799433"><ele>319.3333333333333</ele><time>2026-04-04T14:07:38Z</time></trkpt><trkpt lat="37.801651469882316" lon="12.75306925134086"><ele>317.1666666666667</ele><time>2026-04-04T14:07:39Z</time></trkpt><trkpt lat="37.80162400779376" lon="12.752961971185819"><ele>315.0</ele><time>2026-04-04T14:07:40Z</time></trkpt><trkpt lat="37.8015832177295" lon="12.752843626682344"><ele>315.0</ele><time>2026-04-04T14:07:41Z</time></trkpt><trkpt lat="37.801539016704645" lon="12.752707044547371"><ele>315.0</ele><time>2026-04-04T14:07:42Z</time></trkpt><trkpt lat="37.80150168581989" lon="12.752558386324074"><ele>315.0</ele><time>2026-04-04T14:07:43Z</time></trkpt><trkpt lat="37.80144799624683" lon="12.752389277299786"><ele>315.0</ele><time>2026-04-04T14:07:44Z</time></trkpt><trkpt lat="37.801385239703635" lon="12.7522018207522"><ele>315.2</ele><time>2026-04-04T14:07:45Z</time></trkpt><trkpt lat="37.80132944256372" lon="12.752053522819072"><ele>315.4</ele><time>2026-04-04T14:07:46Z</time></trkpt><trkpt lat="37.8012796437643" lon="12.751916231984044"><ele>315.6</ele><time>2026-04-04T14:07:47Z</time></trkpt><trkpt lat="37.80125232492109" lon="12.751799459850474"><ele>315.8</ele><time>2026-04-04T14:07:48Z</time></trkpt><trkpt lat="37.80121428979699" lon="12.751703160034005"><ele>316.0</ele><time>2026-04-04T14:07:49Z</time></trkpt><trkpt lat="37.80117285771685" lon="12.751604298131275"><ele>317.16666666666663</ele><time>2026-04-04T14:07:50Z</time></trkpt><trkpt lat="37.80112830623484" lon="12.751492833994591"><ele>318.3333333333333</ele><time>2026-04-04T14:07:51Z</time></trkpt><trkpt lat="37.80106387597062" lon="12.75141200844874"><ele>319.5</ele><time>2026-04-04T14:07:52Z</time></trkpt><trkpt lat="37.80100009733705" lon="12.751305340211832"><ele>320.6666666666667</ele><time>2026-04-04T14:07:53Z</time></trkpt><trkpt lat="37.80095531108063" lon="12.751215917394733"><ele>321.83333333333337</ele><time>2026-04-04T14:07:54Z</time></trkpt><trkpt lat="37.80091317517143" lon="12.751156217506058"><ele>323.0</ele><time>2026-04-04T14:07:55Z</time></trkpt><trkpt lat="37.800864348553304" lon="12.75108500615356"><ele>322.79999999999995</ele><time>2026-04-04T14:07:57Z</time></trkpt><trkpt lat="37.80090383388547" lon="12.750997602919783"><ele>322.6</ele><time>2026-04-04T14:08:07Z</time></trkpt><trkpt lat="37.801010497918014" lon="12.750921861567422"><ele>322.4</ele><time>2026-04-04T14:08:09Z</time></trkpt><trkpt lat="37.80107627347665" lon="12.750860446991958"><ele>322.20000000000005</ele><time>2026-04-04T14:08:10Z</time></trkpt><trkpt lat="37.8011446299219" lon="12.750786613608513"><ele>322.0</ele><time>2026-04-04T14:08:11Z</time></trkpt><trkpt lat="37.801222259292615" lon="12.750703158045633"><ele>322.0</ele><time>2026-04-04T14:08:12Z</time></trkpt><trkpt lat="37.80129087732311" lon="12.750632270211684"><ele>322.0</ele><time>2026-04-04T14:08:13Z</time></trkpt><trkpt lat="37.80136334952293" lon="12.750556693001682"><ele>322.0</ele><time>2026-04-04T14:08:14Z</time></trkpt><trkpt lat="37.801429060746614" lon="12.7504883078997"><ele>322.0</ele><time>2026-04-04T14:08:15Z</time></trkpt><trkpt lat="37.801501107950884" lon="12.750416446800575"><ele>322.0</ele><time>2026-04-04T14:08:16Z</time></trkpt><trkpt lat="37.80156320602246" lon="12.75035532994097"><ele>322.0</ele><time>2026-04-04T14:08:17Z</time></trkpt><trkpt lat="37.80162315172538" lon="12.750292739234986"><ele>322.0</ele><time>2026-04-04T14:08:18Z</time></trkpt><trkpt lat="37.80169324088603" lon="12.750219404158901"><ele>322.0</ele><time>2026-04-04T14:08:20Z</time></trkpt><trkpt lat="37.80164824388538" lon="12.750064641690052"><ele>322.0</ele><time>2026-04-04T14:08:29Z</time></trkpt><trkpt lat="37.80161125861034" lon="12.749986700795098"><ele>322.0</ele><time>2026-04-04T14:08:30Z</time></trkpt><trkpt lat="37.80159267010663" lon="12.749898192518133"><ele>322.0</ele><time>2026-04-04T14:08:31Z</time></trkpt><trkpt lat="37.80157624532897" lon="12.749812795141086"><ele>322.0</ele><time>2026-04-04T14:08:32Z</time></trkpt><trkpt lat="37.80155795258715" lon="12.749724756689249"><ele>321.0</ele><time>2026-04-04T14:08:33Z</time></trkpt><trkpt lat="37.80155380132261" lon="12.74963833816533"><ele>320.0</ele><time>2026-04-04T14:08:34Z</time></trkpt><trkpt lat="37.80156225560936" lon="12.749547900944684"><ele>319.0</ele><time>2026-04-04T14:08:35Z</time></trkpt><trkpt lat="37.801583405718404" lon="12.749448613201137"><ele>318.0</ele><time>2026-04-04T14:08:36Z</time></trkpt><trkpt lat="37.80161758709932" lon="12.749350591248364"><ele>317.0</ele><time>2026-04-04T14:08:37Z</time></trkpt><trkpt lat="37.801662836615165" lon="12.749243656421314"><ele>316.0</ele><time>2026-04-04T14:08:38Z</time></trkpt><trkpt lat="37.80171638268212" lon="12.749168365682493"><ele>315.2</ele><time>2026-04-04T14:08:39Z</time></trkpt><trkpt lat="37.80178840286388" lon="12.749092750750615"><ele>314.40000000000003</ele><time>2026-04-04T14:08:40Z</time></trkpt><trkpt lat="37.8018475893919" lon="12.749011247262086"><ele>313.6</ele><time>2026-04-04T14:08:41Z</time></trkpt><trkpt lat="37.80188215062721" lon="12.748898522122472"><ele>312.8</ele><time>2026-04-04T14:08:42Z</time></trkpt><trkpt lat="37.801911942875" lon="12.748761287127909"><ele>312.0</ele><time>2026-04-04T14:08:43Z</time></trkpt><trkpt lat="37.801940961690455" lon="12.748642494032037"><ele>310.6</ele><time>2026-04-04T14:08:44Z</time></trkpt><trkpt lat="37.80196981188944" lon="12.748533521253753"><ele>309.2</ele><time>2026-04-04T14:08:45Z</time></trkpt><trkpt lat="37.80199312112382" lon="12.74842419418236"><ele>307.8</ele><time>2026-04-04T14:08:46Z</time></trkpt><trkpt lat="37.802015697059694" lon="12.748295176731542"><ele>306.4</ele><time>2026-04-04T14:08:47Z</time></trkpt><trkpt lat="37.802033396375435" lon="12.748168745465845"><ele>305.0</ele><time>2026-04-04T14:08:48Z</time></trkpt><trkpt lat="37.80204664614741" lon="12.748040392503743"><ele>305.0</ele><time>2026-04-04T14:08:49Z</time></trkpt><trkpt lat="37.8020714291978" lon="12.747921878747938"><ele>305.0</ele><time>2026-04-04T14:08:50Z</time></trkpt><trkpt lat="37.80210316979156" lon="12.747814872293867"><ele>305.0</ele><time>2026-04-04T14:08:51Z</time></trkpt><trkpt lat="37.80212506762176" lon="12.747684452117051"><ele>305.0</ele><time>2026-04-04T14:08:53Z</time></trkpt><trkpt lat="37.80215201323102" lon="12.747563127308343"><ele>305.0</ele><time>2026-04-04T14:08:55Z</time></trkpt><trkpt lat="37.80217991272462" lon="12.747452394629564"><ele>304.0</ele><time>2026-04-04T14:08:58Z</time></trkpt><trkpt lat="37.80218669382009" lon="12.747340349834532"><ele>303.0</ele><time>2026-04-04T14:09:00Z</time></trkpt><trkpt lat="37.80214892793265" lon="12.747206350717313"><ele>302.0</ele><time>2026-04-04T14:09:02Z</time></trkpt><trkpt lat="37.802125383893696" lon="12.74712933136248"><ele>301.0</ele><time>2026-04-04T14:09:03Z</time></trkpt><trkpt lat="37.80209585014886" lon="12.747051672528809"><ele>300.0</ele><time>2026-04-04T14:09:04Z</time></trkpt><trkpt lat="37.80205666085971" lon="12.74691358972599"><ele>298.1666666666667</ele><time>2026-04-04T14:09:06Z</time></trkpt><trkpt lat="37.8020004790506" lon="12.746794910369376"><ele>296.3333333333333</ele><time>2026-04-04T14:09:08Z</time></trkpt><trkpt lat="37.80196100135103" lon="12.746671020786826"><ele>294.5</ele><time>2026-04-04T14:09:10Z</time></trkpt><trkpt lat="37.802006508904" lon="12.746568447724623"><ele>292.66666666666663</ele><time>2026-04-04T14:09:12Z</time></trkpt><trkpt lat="37.80207428170191" lon="12.746590190635338"><ele>290.8333333333333</ele><time>2026-04-04T14:09:14Z</time></trkpt><trkpt lat="37.80210787951119" lon="12.746661342682492"><ele>289.0</ele><time>2026-04-04T14:09:17Z</time></trkpt><trkpt lat="37.80216911634323" lon="12.746735638300649"><ele>289.0</ele><time>2026-04-04T14:09:22Z</time></trkpt><trkpt lat="37.80222494342873" lon="12.746826260267158"><ele>289.0</ele><time>2026-04-04T14:09:24Z</time></trkpt><trkpt lat="37.80226587291449" lon="12.746888755295217"><ele>289.0</ele><time>2026-04-04T14:09:26Z</time></trkpt><trkpt lat="37.80231028362646" lon="12.746970475405309"><ele>289.0</ele><time>2026-04-04T14:09:28Z</time></trkpt><trkpt lat="37.8023698324156" lon="12.747066068898574"><ele>289.0</ele><time>2026-04-04T14:09:30Z</time></trkpt><trkpt lat="37.80244338194595" lon="12.747095641207167"><ele>289.0</ele><time>2026-04-04T14:09:33Z</time></trkpt><trkpt lat="37.80250295035494" lon="12.747064434690637"><ele>289.0</ele><time>2026-04-04T14:09:37Z</time></trkpt><trkpt lat="37.80247588400566" lon="12.746991743400036"><ele>289.0</ele><time>2026-04-04T14:09:41Z</time></trkpt><trkpt lat="37.80243432897344" lon="12.746902822042847"><ele>289.0</ele><time>2026-04-04T14:09:44Z</time></trkpt><trkpt lat="37.80239474293865" lon="12.746815598263897"><ele>289.0</ele><time>2026-04-04T14:09:47Z</time></trkpt><trkpt lat="37.80235102883624" lon="12.746737685888016"><ele>289.0</ele><time>2026-04-04T14:09:50Z</time></trkpt><trkpt lat="37.802342294742026" lon="12.746645436675314"><ele>289.0</ele><time>2026-04-04T14:09:54Z</time></trkpt><trkpt lat="37.802304218892445" lon="12.746578602858468"><ele>289.0</ele><time>2026-04-04T14:09:57Z</time></trkpt><trkpt lat="37.80227070084329" lon="12.746491094443334"><ele>289.0</ele><time>2026-04-04T14:10:00Z</time></trkpt><trkpt lat="37.80221574730197" lon="12.746417451539529"><ele>289.0</ele><time>2026-04-04T14:10:03Z</time></trkpt><trkpt lat="37.80218750237298" lon="12.74634473437492"><ele>289.0</ele><time>2026-04-04T14:10:06Z</time></trkpt><trkpt lat="37.80216990820193" lon="12.746252399240678"><ele>289.0</ele><time>2026-04-04T14:10:09Z</time></trkpt><trkpt lat="37.802135897002664" lon="12.746160309977281"><ele>289.0</ele><time>2026-04-04T14:10:12Z</time></trkpt><trkpt lat="37.802107390891024" lon="12.746054877783978"><ele>289.0</ele><time>2026-04-04T14:10:15Z</time></trkpt><trkpt lat="37.802094287309245" lon="12.745970041660817"><ele>286.2857142857143</ele><time>2026-04-04T14:10:18Z</time></trkpt><trkpt lat="37.80210262354896" lon="12.745860595977375"><ele>283.57142857142856</ele><time>2026-04-04T14:10:21Z</time></trkpt><trkpt lat="37.802121785838885" lon="12.745776930665949"><ele>280.85714285714283</ele><time>2026-04-04T14:10:24Z</time></trkpt><trkpt lat="37.80213264144558" lon="12.74569077575811"><ele>278.1428571428571</ele><time>2026-04-04T14:10:27Z</time></trkpt><trkpt lat="37.80213597901281" lon="12.745603543466181"><ele>275.4285714285714</ele><time>2026-04-04T14:10:30Z</time></trkpt><trkpt lat="37.80213847819498" lon="12.745519561870776"><ele>272.7142857142857</ele><time>2026-04-04T14:10:33Z</time></trkpt><trkpt lat="37.802116312116425" lon="12.74542069511549"><ele>270.0</ele><time>2026-04-04T14:10:36Z</time></trkpt><trkpt lat="37.802105147882834" lon="12.745318198356095"><ele>270.0</ele><time>2026-04-04T14:10:39Z</time></trkpt><trkpt lat="37.80210570864724" lon="12.74522996290083"><ele>270.0</ele><time>2026-04-04T14:10:42Z</time></trkpt><trkpt lat="37.8020984976485" lon="12.745136394115374"><ele>270.0</ele><time>2026-04-04T14:10:45Z</time></trkpt><trkpt lat="37.802098138275376" lon="12.74502738447366"><ele>270.0</ele><time>2026-04-04T14:10:48Z</time></trkpt><trkpt lat="37.80209009204841" lon="12.744911960880186"><ele>270.0</ele><time>2026-04-04T14:10:51Z</time></trkpt><trkpt lat="37.80210083170937" lon="12.744826481459816"><ele>270.0</ele><time>2026-04-04T14:10:53Z</time></trkpt><trkpt lat="37.80210153489239" lon="12.74471357179316"><ele>267.3333333333333</ele><time>2026-04-04T14:10:56Z</time></trkpt><trkpt lat="37.80208779875995" lon="12.744597619182734"><ele>264.6666666666667</ele><time>2026-04-04T14:10:59Z</time></trkpt><trkpt lat="37.80207369520475" lon="12.744478902151885"><ele>262.0</ele><time>2026-04-04T14:11:02Z</time></trkpt><trkpt lat="37.80207813818362" lon="12.744378830197224"><ele>259.33333333333337</ele><time>2026-04-04T14:11:05Z</time></trkpt><trkpt lat="37.802104723081044" lon="12.744285201236314"><ele>256.6666666666667</ele><time>2026-04-04T14:11:08Z</time></trkpt><trkpt lat="37.80211937597006" lon="12.744194764050654"><ele>254.0</ele><time>2026-04-04T14:11:11Z</time></trkpt><trkpt lat="37.80213702142706" lon="12.744105487624251"><ele>251.50000000000003</ele><time>2026-04-04T14:11:14Z</time></trkpt><trkpt lat="37.80216698211552" lon="12.74402155423361"><ele>249.0</ele><time>2026-04-04T14:11:17Z</time></trkpt><trkpt lat="37.80219985695853" lon="12.743932267634934"><ele>246.5</ele><time>2026-04-04T14:11:19Z</time></trkpt><trkpt lat="37.80221954203913" lon="12.743851353098458"><ele>244.0</ele><time>2026-04-04T14:11:21Z</time></trkpt><trkpt lat="37.8022443309615" lon="12.743760515832514"><ele>241.50000000000003</ele><time>2026-04-04T14:11:24Z</time></trkpt><trkpt lat="37.80226180601476" lon="12.743658117005966"><ele>239.0</ele><time>2026-04-04T14:11:28Z</time></trkpt><trkpt lat="37.802290745245976" lon="12.743567569750075"><ele>237.00000000000003</ele><time>2026-04-04T14:11:31Z</time></trkpt><trkpt lat="37.80230401877277" lon="12.743471325846636"><ele>235.0</ele><time>2026-04-04T14:11:33Z</time></trkpt><trkpt lat="37.80231518871379" lon="12.743375222640262"><ele>233.00000000000003</ele><time>2026-04-04T14:11:35Z</time></trkpt><trkpt lat="37.802326167222965" lon="12.74328073833855"><ele>231.00000000000003</ele><time>2026-04-04T14:11:38Z</time></trkpt><trkpt lat="37.80231791020563" lon="12.743201519763163"><ele>229.0</ele><time>2026-04-04T14:11:44Z</time></trkpt><trkpt lat="37.802322139132855" lon="12.743116553698309"><ele>227.00000000000003</ele><time>2026-04-04T14:11:48Z</time></trkpt><trkpt lat="37.80228975668657" lon="12.743034734105343"><ele>225.00000000000003</ele><time>2026-04-04T14:12:08Z</time></trkpt><trkpt lat="37.802271675620354" lon="12.742936489630882"><ele>225.00000000000003</ele><time>2026-04-04T14:12:11Z</time></trkpt><trkpt lat="37.80225494157526" lon="12.742853041381734"><ele>225.0</ele><time>2026-04-04T14:12:15Z</time></trkpt><trkpt lat="37.80220481567893" lon="12.742779354048029"><ele>225.00000000000003</ele><time>2026-04-04T14:12:21Z</time></trkpt><trkpt lat="37.802163753315135" lon="12.742702196624947"><ele>225.00000000000003</ele><time>2026-04-04T14:12:25Z</time></trkpt><trkpt lat="37.80217697430928" lon="12.74262187049975"><ele>225.0</ele><time>2026-04-04T14:12:41Z</time></trkpt><trkpt lat="37.8021457414877" lon="12.742537207504933"><ele>225.00000000000003</ele><time>2026-04-04T14:12:55Z</time></trkpt><trkpt lat="37.80210130242079" lon="12.742476272738115"><ele>225.00000000000003</ele><time>2026-04-04T14:13:07Z</time></trkpt><trkpt lat="37.80206418228679" lon="12.742395380480803"><ele>224.8571428571429</ele><time>2026-04-04T14:13:19Z</time></trkpt><trkpt lat="37.80201676793086" lon="12.742312697215414"><ele>224.71428571428572</ele><time>2026-04-04T14:13:25Z</time></trkpt><trkpt lat="37.80199230345126" lon="12.742227673224805"><ele>224.57142857142858</ele><time>2026-04-04T14:13:36Z</time></trkpt><trkpt lat="37.8019613683605" lon="12.742126660816579"><ele>224.42857142857144</ele><time>2026-04-04T14:13:40Z</time></trkpt><trkpt lat="37.80193509228152" lon="12.742052495084339"><ele>224.28571428571428</ele><time>2026-04-04T14:13:43Z</time></trkpt><trkpt lat="37.80192253761625" lon="12.741972621787541"><ele>224.14285714285714</ele><time>2026-04-04T14:13:46Z</time></trkpt><trkpt lat="37.80186036612463" lon="12.74200036334295"><ele>224.0</ele><time>2026-04-04T14:14:09Z</time></trkpt><trkpt lat="37.80178879995567" lon="12.742091315208514"><ele>224.00000000000003</ele><time>2026-04-04T14:15:30Z</time></trkpt><trkpt lat="37.80174902943186" lon="12.742163075234766"><ele>224.0</ele><time>2026-04-04T14:15:33Z</time></trkpt><trkpt lat="37.80170424609118" lon="12.742221445704807"><ele>224.0</ele><time>2026-04-04T14:15:36Z</time></trkpt><trkpt lat="37.80164099562804" lon="12.742316706460445"><ele>224.0</ele><time>2026-04-04T14:15:39Z</time></trkpt><trkpt lat="37.801591633183754" lon="12.742398835870066"><ele>224.00000000000003</ele><time>2026-04-04T14:15:41Z</time></trkpt><trkpt lat="37.80152299766252" lon="12.742490146526565"><ele>224.0</ele><time>2026-04-04T14:15:43Z</time></trkpt><trkpt lat="37.80147747864639" lon="12.74256051717088"><ele>224.00000000000003</ele><time>2026-04-04T14:15:45Z</time></trkpt><trkpt lat="37.80141508591801" lon="12.742637927928119"><ele>224.0</ele><time>2026-04-04T14:15:47Z</time></trkpt><trkpt lat="37.801361907411994" lon="12.74270371088391"><ele>224.0</ele><time>2026-04-04T14:15:49Z</time></trkpt><trkpt lat="37.8013025816832" lon="12.742791176202523"><ele>224.0</ele><time>2026-04-04T14:15:51Z</time></trkpt><trkpt lat="37.80123043628802" lon="12.742866695773115"><ele>224.00000000000003</ele><time>2026-04-04T14:15:53Z</time></trkpt><trkpt lat="37.80114575568765" lon="12.742936138237125"><ele>224.0</ele><time>2026-04-04T14:15:55Z</time></trkpt><trkpt lat="37.80107114607741" lon="12.742959676982958"><ele>224.42857142857144</ele><time>2026-04-04T14:16:06Z</time></trkpt><trkpt lat="37.80101412891919" lon="12.742892975629966"><ele>224.85714285714286</ele><time>2026-04-04T14:16:09Z</time></trkpt><trkpt lat="37.80097221305385" lon="12.74283037459116"><ele>225.28571428571428</ele><time>2026-04-04T14:16:11Z</time></trkpt><trkpt lat="37.80090828417982" lon="12.742757006621135"><ele>225.71428571428572</ele><time>2026-04-04T14:16:15Z</time></trkpt><trkpt lat="37.8008710912035" lon="12.742686705632972"><ele>226.14285714285717</ele><time>2026-04-04T14:16:18Z</time></trkpt><trkpt lat="37.80081246693829" lon="12.742648648080031"><ele>226.57142857142858</ele><time>2026-04-04T14:16:22Z</time></trkpt><trkpt lat="37.800746918573736" lon="12.742612717637886"><ele>227.0</ele><time>2026-04-04T14:16:34Z</time></trkpt><trkpt lat="37.80070153862616" lon="12.742541667603758"><ele>227.00000000000003</ele><time>2026-04-04T14:16:36Z</time></trkpt><trkpt lat="37.80066282912566" lon="12.74247382202629"><ele>227.0</ele><time>2026-04-04T14:16:38Z</time></trkpt><trkpt lat="37.800608740516914" lon="12.742406880359034"><ele>227.0</ele><time>2026-04-04T14:16:41Z</time></trkpt><trkpt lat="37.8005501191959" lon="12.742341005747143"><ele>227.0</ele><time>2026-04-04T14:16:43Z</time></trkpt><trkpt lat="37.800476651315186" lon="12.742255598816735"><ele>227.00000000000003</ele><time>2026-04-04T14:16:45Z</time></trkpt><trkpt lat="37.800420199189844" lon="12.7421771013827"><ele>227.0</ele><time>2026-04-04T14:16:47Z</time></trkpt><trkpt lat="37.800394532034574" lon="12.742103802498873"><ele>227.00000000000003</ele><time>2026-04-04T14:16:51Z</time></trkpt><trkpt lat="37.8004178409151" lon="12.742184178452506"><ele>227.0</ele><time>2026-04-04T14:17:19Z</time></trkpt><trkpt lat="37.80035134491346" lon="12.742187761826848"><ele>227.0</ele><time>2026-04-04T14:17:22Z</time></trkpt><trkpt lat="37.800373711118944" lon="12.742094676473773"><ele>227.0</ele><time>2026-04-04T14:17:24Z</time></trkpt><trkpt lat="37.800406466257826" lon="12.742000006054317"><ele>227.00000000000003</ele><time>2026-04-04T14:17:26Z</time></trkpt><trkpt lat="37.80040459741904" lon="12.741906029753165"><ele>227.0</ele><time>2026-04-04T14:17:28Z</time></trkpt><trkpt lat="37.800352175301626" lon="12.74177745903214"><ele>224.16666666666669</ele><time>2026-04-04T14:17:30Z</time></trkpt><trkpt lat="37.80031003202019" lon="12.741709723883574"><ele>221.33333333333334</ele><time>2026-04-04T14:17:31Z</time></trkpt><trkpt lat="37.800252647035286" lon="12.74163239008805"><ele>218.5</ele><time>2026-04-04T14:17:33Z</time></trkpt><trkpt lat="37.80020711728517" lon="12.741560033178903"><ele>215.66666666666669</ele><time>2026-04-04T14:17:36Z</time></trkpt><trkpt lat="37.80019808451344" lon="12.741471139283231"><ele>212.83333333333334</ele><time>2026-04-04T14:18:01Z</time></trkpt><trkpt lat="37.8002048529285" lon="12.74135880230926"><ele>210.0</ele><time>2026-04-04T14:18:05Z</time></trkpt><trkpt lat="37.80029178212879" lon="12.74129724604852"><ele>210.0</ele><time>2026-04-04T14:18:07Z</time></trkpt><trkpt lat="37.800376297396845" lon="12.74123033506837"><ele>210.0</ele><time>2026-04-04T14:18:09Z</time></trkpt><trkpt lat="37.80046545271754" lon="12.741159927084714"><ele>210.0</ele><time>2026-04-04T14:18:11Z</time></trkpt><trkpt lat="37.8005781090598" lon="12.741126040929068"><ele>210.0</ele><time>2026-04-04T14:18:13Z</time></trkpt><trkpt lat="37.800683907250544" lon="12.741104628394389"><ele>210.0</ele><time>2026-04-04T14:18:15Z</time></trkpt><trkpt lat="37.800799716044295" lon="12.741075082975549"><ele>208.2</ele><time>2026-04-04T14:18:17Z</time></trkpt><trkpt lat="37.80090360268041" lon="12.741016764457935"><ele>206.4</ele><time>2026-04-04T14:18:19Z</time></trkpt><trkpt lat="37.800991864494335" lon="12.740949518479152"><ele>204.60000000000002</ele><time>2026-04-04T14:18:21Z</time></trkpt><trkpt lat="37.801066777735215" lon="12.740850417674007"><ele>202.8</ele><time>2026-04-04T14:18:23Z</time></trkpt><trkpt lat="37.80112288554153" lon="12.740748511055745"><ele>201.0</ele><time>2026-04-04T14:18:25Z</time></trkpt><trkpt lat="37.801178278033575" lon="12.74065075396863"><ele>201.0</ele><time>2026-04-04T14:18:27Z</time></trkpt><trkpt lat="37.80123127919359" lon="12.740564883882504"><ele>201.0</ele><time>2026-04-04T14:18:29Z</time></trkpt><trkpt lat="37.8012715551501" lon="12.740490093639997"><ele>201.0</ele><time>2026-04-04T14:18:31Z</time></trkpt><trkpt lat="37.801320146684674" lon="12.740401325737864"><ele>201.0</ele><time>2026-04-04T14:18:33Z</time></trkpt><trkpt lat="37.801378250979596" lon="12.740289971565113"><ele>201.0</ele><time>2026-04-04T14:18:35Z</time></trkpt><trkpt lat="37.80144601645372" lon="12.740159270763654"><ele>200.8</ele><time>2026-04-04T14:18:37Z</time></trkpt><trkpt lat="37.80151457293859" lon="12.740040051200998"><ele>200.60000000000002</ele><time>2026-04-04T14:18:39Z</time></trkpt><trkpt lat="37.80155635602253" lon="12.739975286105384"><ele>200.4</ele><time>2026-04-04T14:18:40Z</time></trkpt><trkpt lat="37.80161163958516" lon="12.739885787140283"><ele>200.2</ele><time>2026-04-04T14:18:41Z</time></trkpt><trkpt lat="37.80166663790258" lon="12.739782059722037"><ele>200.0</ele><time>2026-04-04T14:18:42Z</time></trkpt><trkpt lat="37.80171548928517" lon="12.739686892584668"><ele>200.00000000000003</ele><time>2026-04-04T14:18:43Z</time></trkpt><trkpt lat="37.801758732464826" lon="12.739588759917709"><ele>200.0</ele><time>2026-04-04T14:18:44Z</time></trkpt><trkpt lat="37.8017873207984" lon="12.739483858577676"><ele>200.0</ele><time>2026-04-04T14:18:45Z</time></trkpt><trkpt lat="37.80180556362604" lon="12.739385558393307"><ele>200.0</ele><time>2026-04-04T14:18:46Z</time></trkpt><trkpt lat="37.80182563384076" lon="12.739276737018296"><ele>200.00000000000003</ele><time>2026-04-04T14:18:47Z</time></trkpt><trkpt lat="37.80184521934571" lon="12.73916583538534"><ele>200.0</ele><time>2026-04-04T14:18:48Z</time></trkpt><trkpt lat="37.801861337649036" lon="12.739053204470398"><ele>200.2</ele><time>2026-04-04T14:18:49Z</time></trkpt><trkpt lat="37.80188064453913" lon="12.738936826050155"><ele>200.4</ele><time>2026-04-04T14:18:50Z</time></trkpt><trkpt lat="37.801910698214115" lon="12.738823293647517"><ele>200.60000000000002</ele><time>2026-04-04T14:18:51Z</time></trkpt><trkpt lat="37.80195338831642" lon="12.738718462342021"><ele>200.8</ele><time>2026-04-04T14:18:52Z</time></trkpt><trkpt lat="37.80200648531679" lon="12.738617976627175"><ele>201.0</ele><time>2026-04-04T14:18:53Z</time></trkpt><trkpt lat="37.802068308093794" lon="12.738529785274086"><ele>201.0</ele><time>2026-04-04T14:18:54Z</time></trkpt><trkpt lat="37.80214467437631" lon="12.738443254548585"><ele>201.0</ele><time>2026-04-04T14:18:55Z</time></trkpt><trkpt lat="37.80222695653978" lon="12.738363772551487"><ele>201.0</ele><time>2026-04-04T14:18:56Z</time></trkpt><trkpt lat="37.8023105189403" lon="12.738274939189367"><ele>201.0</ele><time>2026-04-04T14:18:57Z</time></trkpt><trkpt lat="37.80239194965723" lon="12.738192902056129"><ele>201.0</ele><time>2026-04-04T14:18:58Z</time></trkpt><trkpt lat="37.80248287908028" lon="12.738141934569473"><ele>201.0</ele><time>2026-04-04T14:18:59Z</time></trkpt><trkpt lat="37.80257043810706" lon="12.738090092372993"><ele>201.0</ele><time>2026-04-04T14:19:00Z</time></trkpt><trkpt lat="37.802660505840336" lon="12.7380459776833"><ele>201.0</ele><time>2026-04-04T14:19:01Z</time></trkpt><trkpt lat="37.80274985812432" lon="12.738011944287603"><ele>201.0</ele><time>2026-04-04T14:19:02Z</time></trkpt><trkpt lat="37.802846396835044" lon="12.737986541531354"><ele>201.0</ele><time>2026-04-04T14:19:03Z</time></trkpt><trkpt lat="37.802945276209826" lon="12.737970799788831"><ele>202.0</ele><time>2026-04-04T14:19:04Z</time></trkpt><trkpt lat="37.80305442359276" lon="12.73795914239841"><ele>203.0</ele><time>2026-04-04T14:19:05Z</time></trkpt><trkpt lat="37.80316638844544" lon="12.737950546636311"><ele>204.0</ele><time>2026-04-04T14:19:06Z</time></trkpt><trkpt lat="37.803281648268" lon="12.737943503151898"><ele>205.0</ele><time>2026-04-04T14:19:07Z</time></trkpt><trkpt lat="37.803395385014674" lon="12.73793655274014"><ele>205.8</ele><time>2026-04-04T14:19:08Z</time></trkpt><trkpt lat="37.80350737631106" lon="12.737929371668233"><ele>206.6</ele><time>2026-04-04T14:19:09Z</time></trkpt><trkpt lat="37.803620659467406" lon="12.737921048583209"><ele>207.39999999999998</ele><time>2026-04-04T14:19:10Z</time></trkpt><trkpt lat="37.80373050932764" lon="12.737912977750264"><ele>208.2</ele><time>2026-04-04T14:19:11Z</time></trkpt><trkpt lat="37.803840554581896" lon="12.737904892562037"><ele>209.0</ele><time>2026-04-04T14:19:12Z</time></trkpt><trkpt lat="37.80394915411914" lon="12.737896913593096"><ele>209.0</ele><time>2026-04-04T14:19:13Z</time></trkpt><trkpt lat="37.80404381194558" lon="12.73788995894086"><ele>209.0</ele><time>2026-04-04T14:19:14Z</time></trkpt><trkpt lat="37.80413761975984" lon="12.73788162582456"><ele>209.0</ele><time>2026-04-04T14:19:15Z</time></trkpt><trkpt lat="37.80423374538985" lon="12.737872572353044"><ele>209.0</ele><time>2026-04-04T14:19:16Z</time></trkpt><trkpt lat="37.80432756921654" lon="12.737855145181241"><ele>209.0</ele><time>2026-04-04T14:19:17Z</time></trkpt><trkpt lat="37.80442244609403" lon="12.737853574199224"><ele>209.0</ele><time>2026-04-04T14:19:18Z</time></trkpt><trkpt lat="37.80452505831142" lon="12.737842370710048"><ele>209.0</ele><time>2026-04-04T14:19:19Z</time></trkpt><trkpt lat="37.80463248142597" lon="12.737818532437258"><ele>209.0</ele><time>2026-04-04T14:19:20Z</time></trkpt><trkpt lat="37.804743337024526" lon="12.737821842760638"><ele>209.0</ele><time>2026-04-04T14:19:21Z</time></trkpt><trkpt lat="37.80484923232049" lon="12.737812658991553"><ele>209.0</ele><time>2026-04-04T14:19:22Z</time></trkpt><trkpt lat="37.80495087892489" lon="12.73780418127275"><ele>209.00000000000003</ele><time>2026-04-04T14:19:23Z</time></trkpt><trkpt lat="37.805053430397884" lon="12.737796352617194"><ele>209.0</ele><time>2026-04-04T14:19:24Z</time></trkpt><trkpt lat="37.805146362631284" lon="12.737789258283568"><ele>209.0</ele><time>2026-04-04T14:19:25Z</time></trkpt><trkpt lat="37.80522382664246" lon="12.737783344774336"><ele>209.0</ele><time>2026-04-04T14:19:26Z</time></trkpt><trkpt lat="37.805289369920494" lon="12.737771498193418"><ele>209.00000000000003</ele><time>2026-04-04T14:19:27Z</time></trkpt><trkpt lat="37.805357923067575" lon="12.737764525151368"><ele>209.0</ele><time>2026-04-04T14:19:28Z</time></trkpt><trkpt lat="37.80545545388046" lon="12.737765664704103"><ele>208.79999999999998</ele><time>2026-04-04T14:19:30Z</time></trkpt><trkpt lat="37.805543338676486" lon="12.73775228695401"><ele>208.6</ele><time>2026-04-04T14:19:32Z</time></trkpt><trkpt lat="37.80563811842898" lon="12.737736546875583"><ele>208.4</ele><time>2026-04-04T14:19:34Z</time></trkpt><trkpt lat="37.80572415880696" lon="12.737734030301498"><ele>208.2</ele><time>2026-04-04T14:19:36Z</time></trkpt><trkpt lat="37.805837847637626" lon="12.737757592817811"><ele>208.0</ele><time>2026-04-04T14:19:38Z</time></trkpt><trkpt lat="37.80583985493031" lon="12.73796944563228"><ele>208.0</ele><time>2026-04-04T14:19:40Z</time></trkpt><trkpt lat="37.80586756761043" lon="12.738056948560851"><ele>208.0</ele><time>2026-04-04T14:19:41Z</time></trkpt><trkpt lat="37.805897815262924" lon="12.738150652038442"><ele>208.0</ele><time>2026-04-04T14:19:42Z</time></trkpt><trkpt lat="37.80592586575521" lon="12.738235188379372"><ele>208.0</ele><time>2026-04-04T14:19:43Z</time></trkpt><trkpt lat="37.805953437156305" lon="12.738316823786715"><ele>208.0</ele><time>2026-04-04T14:19:44Z</time></trkpt><trkpt lat="37.80598122738766" lon="12.738396424590034"><ele>208.0</ele><time>2026-04-04T14:19:45Z</time></trkpt><trkpt lat="37.806009240469145" lon="12.738476663709976"><ele>208.0</ele><time>2026-04-04T14:19:46Z</time></trkpt><trkpt lat="37.806039304498896" lon="12.738562777449767"><ele>208.16666666666666</ele><time>2026-04-04T14:19:47Z</time></trkpt><trkpt lat="37.80606972965099" lon="12.73864873816872"><ele>208.33333333333331</ele><time>2026-04-04T14:19:48Z</time></trkpt><trkpt lat="37.806102042743746" lon="12.738739017493737"><ele>208.5</ele><time>2026-04-04T14:19:49Z</time></trkpt><trkpt lat="37.806134258092904" lon="12.738829023731066"><ele>208.66666666666669</ele><time>2026-04-04T14:19:50Z</time></trkpt><trkpt lat="37.80616551912713" lon="12.73891636370908"><ele>208.83333333333334</ele><time>2026-04-04T14:19:51Z</time></trkpt><trkpt lat="37.80619931937202" lon="12.739010797993926"><ele>209.0</ele><time>2026-04-04T14:19:52Z</time></trkpt><trkpt lat="37.80623179540591" lon="12.739101532545078"><ele>209.0</ele><time>2026-04-04T14:19:53Z</time></trkpt><trkpt lat="37.80626564700801" lon="12.73919506757417"><ele>209.0</ele><time>2026-04-04T14:19:54Z</time></trkpt><trkpt lat="37.80630279426724" lon="12.739304765484286"><ele>209.0</ele><time>2026-04-04T14:19:55Z</time></trkpt><trkpt lat="37.80634137818494" lon="12.739428693886586"><ele>209.0</ele><time>2026-04-04T14:19:56Z</time></trkpt><trkpt lat="37.80636808828539" lon="12.73952336783133"><ele>209.0</ele><time>2026-04-04T14:19:57Z</time></trkpt><trkpt lat="37.80639203845966" lon="12.739637858421572"><ele>209.79999999999998</ele><time>2026-04-04T14:19:58Z</time></trkpt><trkpt lat="37.806404682394735" lon="12.739753361491504"><ele>210.6</ele><time>2026-04-04T14:19:59Z</time></trkpt><trkpt lat="37.80640461648271" lon="12.73986827318332"><ele>211.4</ele><time>2026-04-04T14:20:00Z</time></trkpt><trkpt lat="37.8063966382688" lon="12.7399915895307"><ele>212.2</ele><time>2026-04-04T14:20:01Z</time></trkpt><trkpt lat="37.806384087485476" lon="12.740115299316592"><ele>213.0</ele><time>2026-04-04T14:20:02Z</time></trkpt><trkpt lat="37.80637546377032" lon="12.740238932888404"><ele>214.60000000000002</ele><time>2026-04-04T14:20:03Z</time></trkpt><trkpt lat="37.8063797463468" lon="12.740367528899219"><ele>216.20000000000002</ele><time>2026-04-04T14:20:04Z</time></trkpt><trkpt lat="37.80639836739579" lon="12.740487424259031"><ele>217.8</ele><time>2026-04-04T14:20:05Z</time></trkpt><trkpt lat="37.80644598401827" lon="12.740606753436627"><ele>219.4</ele><time>2026-04-04T14:20:06Z</time></trkpt><trkpt lat="37.80650321196738" lon="12.740715842013621"><ele>221.0</ele><time>2026-04-04T14:20:07Z</time></trkpt><trkpt lat="37.806563364073476" lon="12.740821793331769"><ele>221.0</ele><time>2026-04-04T14:20:08Z</time></trkpt><trkpt lat="37.80662574729775" lon="12.740926029048808"><ele>221.00000000000003</ele><time>2026-04-04T14:20:09Z</time></trkpt><trkpt lat="37.806698709222154" lon="12.741026540321865"><ele>221.00000000000003</ele><time>2026-04-04T14:20:10Z</time></trkpt><trkpt lat="37.80677625890308" lon="12.74111303648587"><ele>221.0</ele><time>2026-04-04T14:20:11Z</time></trkpt><trkpt lat="37.80685958189865" lon="12.741193640552156"><ele>221.0</ele><time>2026-04-04T14:20:12Z</time></trkpt><trkpt lat="37.806947885315196" lon="12.741265765592443"><ele>223.4</ele><time>2026-04-04T14:20:13Z</time></trkpt><trkpt lat="37.80703709872009" lon="12.74132969897363"><ele>225.8</ele><time>2026-04-04T14:20:14Z</time></trkpt><trkpt lat="37.807124569417844" lon="12.741388243607602"><ele>228.20000000000002</ele><time>2026-04-04T14:20:15Z</time></trkpt><trkpt lat="37.80720597044262" lon="12.741446494404384"><ele>230.60000000000002</ele><time>2026-04-04T14:20:16Z</time></trkpt><trkpt lat="37.807287005611165" lon="12.741509731810826"><ele>233.0</ele><time>2026-04-04T14:20:17Z</time></trkpt><trkpt lat="37.8073574121255" lon="12.741577766651897"><ele>233.00000000000003</ele><time>2026-04-04T14:20:18Z</time></trkpt><trkpt lat="37.807397328202605" lon="12.741657522538517"><ele>233.0</ele><time>2026-04-04T14:20:19Z</time></trkpt><trkpt lat="37.80741310069612" lon="12.741746488302702"><ele>233.0</ele><time>2026-04-04T14:20:20Z</time></trkpt><trkpt lat="37.80741071212713" lon="12.741847569850119"><ele>233.0</ele><time>2026-04-04T14:20:21Z</time></trkpt><trkpt lat="37.80741542800934" lon="12.74196684261315"><ele>233.00000000000003</ele><time>2026-04-04T14:20:22Z</time></trkpt><trkpt lat="37.80741984367006" lon="12.74210163430181"><ele>233.0</ele><time>2026-04-04T14:20:23Z</time></trkpt><trkpt lat="37.807423845021745" lon="12.742223779224402"><ele>233.8</ele><time>2026-04-04T14:20:24Z</time></trkpt><trkpt lat="37.80742708196684" lon="12.742348848531767"><ele>234.60000000000002</ele><time>2026-04-04T14:20:25Z</time></trkpt><trkpt lat="37.80743000470788" lon="12.742472348110217"><ele>235.39999999999998</ele><time>2026-04-04T14:20:26Z</time></trkpt><trkpt lat="37.807432885800885" lon="12.742594087959212"><ele>236.2</ele><time>2026-04-04T14:20:27Z</time></trkpt><trkpt lat="37.80743633850424" lon="12.742720126758694"><ele>237.0</ele><time>2026-04-04T14:20:28Z</time></trkpt><trkpt lat="37.80744241746611" lon="12.742841377483634"><ele>237.0</ele><time>2026-04-04T14:20:29Z</time></trkpt><trkpt lat="37.80745066373343" lon="12.742956428207977"><ele>237.0</ele><time>2026-04-04T14:20:30Z</time></trkpt><trkpt lat="37.80746249378978" lon="12.743061412095367"><ele>237.0</ele><time>2026-04-04T14:20:31Z</time></trkpt><trkpt lat="37.80747596439221" lon="12.743160124713098"><ele>237.0</ele><time>2026-04-04T14:20:32Z</time></trkpt><trkpt lat="37.80748972020393" lon="12.74324994020634"><ele>237.0</ele><time>2026-04-04T14:20:33Z</time></trkpt><trkpt lat="37.80750334420906" lon="12.743330977470725"><ele>237.0</ele><time>2026-04-04T14:20:34Z</time></trkpt><trkpt lat="37.807520195194634" lon="12.743431615186543"><ele>237.8</ele><time>2026-04-04T14:20:36Z</time></trkpt><trkpt lat="37.807545952454525" lon="12.743573116846528"><ele>238.6</ele><time>2026-04-04T14:20:39Z</time></trkpt><trkpt lat="37.80756356058535" lon="12.743666838676566"><ele>239.40000000000003</ele><time>2026-04-04T14:20:40Z</time></trkpt><trkpt lat="37.807583601145836" lon="12.743777473416076"><ele>240.20000000000002</ele><time>2026-04-04T14:20:41Z</time></trkpt><trkpt lat="37.807604362521026" lon="12.74389922708606"><ele>241.0</ele><time>2026-04-04T14:20:42Z</time></trkpt><trkpt lat="37.80762361595988" lon="12.744031062476108"><ele>241.0</ele><time>2026-04-04T14:20:43Z</time></trkpt><trkpt lat="37.80763708491598" lon="12.744160251438517"><ele>241.0</ele><time>2026-04-04T14:20:44Z</time></trkpt><trkpt lat="37.80764361950107" lon="12.74430722293522"><ele>241.0</ele><time>2026-04-04T14:20:45Z</time></trkpt><trkpt lat="37.80764288924705" lon="12.744470114775359"><ele>241.0</ele><time>2026-04-04T14:20:46Z</time></trkpt><trkpt lat="37.8076365949045" lon="12.744641825244248"><ele>241.0</ele><time>2026-04-04T14:20:47Z</time></trkpt><trkpt lat="37.80762690317036" lon="12.74481536431829"><ele>241.0</ele><time>2026-04-04T14:20:48Z</time></trkpt><trkpt lat="37.80761837000761" lon="12.74499932120979"><ele>241.0</ele><time>2026-04-04T14:20:49Z</time></trkpt><trkpt lat="37.80761343289064" lon="12.745186218842791"><ele>241.0</ele><time>2026-04-04T14:20:50Z</time></trkpt><trkpt lat="37.80761676640758" lon="12.74537878027298"><ele>240.0</ele><time>2026-04-04T14:20:51Z</time></trkpt><trkpt lat="37.80762893636135" lon="12.745573029311608"><ele>239.0</ele><time>2026-04-04T14:20:52Z</time></trkpt><trkpt lat="37.807653615966494" lon="12.745807191415771"><ele>238.0</ele><time>2026-04-04T14:20:53Z</time></trkpt><trkpt lat="37.807685548361675" lon="12.74605854290684"><ele>240.33333333333331</ele><time>2026-04-04T14:20:54Z</time></trkpt><trkpt lat="37.80771943625347" lon="12.746300135244226"><ele>242.66666666666669</ele><time>2026-04-04T14:20:55Z</time></trkpt><trkpt lat="37.8077553346943" lon="12.746542100490307"><ele>245.0</ele><time>2026-04-04T14:20:56Z</time></trkpt><trkpt lat="37.80779077217294" lon="12.746782582880861"><ele>243.66666666666669</ele><time>2026-04-04T14:20:57Z</time></trkpt><trkpt lat="37.8078219221563" lon="12.747026065958554"><ele>242.33333333333331</ele><time>2026-04-04T14:20:58Z</time></trkpt><trkpt lat="37.8078430999978" lon="12.747259826972588"><ele>241.0</ele><time>2026-04-04T14:20:59Z</time></trkpt><trkpt lat="37.8078512240685" lon="12.747475749988086"><ele>241.0</ele><time>2026-04-04T14:21:00Z</time></trkpt><trkpt lat="37.80785081319354" lon="12.74767793314134"><ele>241.0</ele><time>2026-04-04T14:21:01Z</time></trkpt><trkpt lat="37.80783399455292" lon="12.747875200844009"><ele>241.0</ele><time>2026-04-04T14:21:02Z</time></trkpt><trkpt lat="37.807799894675085" lon="12.748063540573249"><ele>241.0</ele><time>2026-04-04T14:21:03Z</time></trkpt><trkpt lat="37.80776014780507" lon="12.748249742951813"><ele>241.0</ele><time>2026-04-04T14:21:04Z</time></trkpt><trkpt lat="37.80772754469708" lon="12.748428550113763"><ele>241.0</ele><time>2026-04-04T14:21:05Z</time></trkpt><trkpt lat="37.8077184459852" lon="12.748619423861307"><ele>241.0</ele><time>2026-04-04T14:21:06Z</time></trkpt><trkpt lat="37.80772782901811" lon="12.748814251801257"><ele>241.0</ele><time>2026-04-04T14:21:07Z</time></trkpt><trkpt lat="37.80775122379943" lon="12.749023801952237"><ele>241.0</ele><time>2026-04-04T14:21:08Z</time></trkpt><trkpt lat="37.80778085453714" lon="12.749229929610006"><ele>241.0</ele><time>2026-04-04T14:21:09Z</time></trkpt><trkpt lat="37.807810643571116" lon="12.749430192599366"><ele>241.0</ele><time>2026-04-04T14:21:10Z</time></trkpt><trkpt lat="37.80783934086318" lon="12.749621454595259"><ele>241.0</ele><time>2026-04-04T14:21:11Z</time></trkpt><trkpt lat="37.807865186246396" lon="12.749809334002316"><ele>241.0</ele><time>2026-04-04T14:21:12Z</time></trkpt><trkpt lat="37.80788668415132" lon="12.749988800888328"><ele>241.0</ele><time>2026-04-04T14:21:13Z</time></trkpt><trkpt lat="37.80791037973911" lon="12.750176143408284"><ele>241.25</ele><time>2026-04-04T14:21:14Z</time></trkpt><trkpt lat="37.8079338960237" lon="12.750358151077972"><ele>241.5</ele><time>2026-04-04T14:21:15Z</time></trkpt><trkpt lat="37.807949681709395" lon="12.75053688831063"><ele>241.75</ele><time>2026-04-04T14:21:16Z</time></trkpt><trkpt lat="37.80795803223764" lon="12.750727522130319"><ele>242.0</ele><time>2026-04-04T14:21:17Z</time></trkpt><trkpt lat="37.80794798826786" lon="12.750899914115317"><ele>243.0</ele><time>2026-04-04T14:21:18Z</time></trkpt><trkpt lat="37.807932751937585" lon="12.751074708721053"><ele>244.0</ele><time>2026-04-04T14:21:19Z</time></trkpt><trkpt lat="37.80791405553588" lon="12.751247463807548"><ele>245.0</ele><time>2026-04-04T14:21:20Z</time></trkpt><trkpt lat="37.80788990734373" lon="12.751434079649982"><ele>246.0</ele><time>2026-04-04T14:21:21Z</time></trkpt><trkpt lat="37.807863693701336" lon="12.75162073452376"><ele>246.0</ele><time>2026-04-04T14:21:22Z</time></trkpt><trkpt lat="37.807839522346335" lon="12.751814277980978"><ele>246.0</ele><time>2026-04-04T14:21:23Z</time></trkpt><trkpt lat="37.807818883890775" lon="12.751990801590493"><ele>246.0</ele><time>2026-04-04T14:21:24Z</time></trkpt><trkpt lat="37.80779753599105" lon="12.75217813645821"><ele>246.0</ele><time>2026-04-04T14:21:25Z</time></trkpt><trkpt lat="37.807778885464444" lon="12.75234890715516"><ele>246.75</ele><time>2026-04-04T14:21:26Z</time></trkpt><trkpt lat="37.80776039599616" lon="12.752518203153757"><ele>247.5</ele><time>2026-04-04T14:21:27Z</time></trkpt><trkpt lat="37.80774315518118" lon="12.752676066033764"><ele>248.25</ele><time>2026-04-04T14:21:28Z</time></trkpt><trkpt lat="37.807727946889024" lon="12.752816357205862"><ele>249.0</ele><time>2026-04-04T14:21:29Z</time></trkpt><trkpt lat="37.80771316960544" lon="12.75295285859786"><ele>249.6</ele><time>2026-04-04T14:21:30Z</time></trkpt><trkpt lat="37.80769898649726" lon="12.753086305674296"><ele>250.2</ele><time>2026-04-04T14:21:31Z</time></trkpt><trkpt lat="37.8076871023633" lon="12.75320727132098"><ele>250.79999999999998</ele><time>2026-04-04T14:21:32Z</time></trkpt><trkpt lat="37.807675804037665" lon="12.753322274190278"><ele>251.39999999999998</ele><time>2026-04-04T14:21:33Z</time></trkpt><trkpt lat="37.80766450800401" lon="12.75343725372246"><ele>252.0</ele><time>2026-04-04T14:21:34Z</time></trkpt><trkpt lat="37.807653440701266" lon="12.753549905048992"><ele>252.16666666666666</ele><time>2026-04-04T14:21:35Z</time></trkpt><trkpt lat="37.807642333340816" lon="12.753662964107791"><ele>252.33333333333331</ele><time>2026-04-04T14:21:36Z</time></trkpt><trkpt lat="37.807632161118974" lon="12.753766504747672"><ele>252.5</ele><time>2026-04-04T14:21:37Z</time></trkpt><trkpt lat="37.807623323225535" lon="12.753857367906932"><ele>252.66666666666666</ele><time>2026-04-04T14:21:38Z</time></trkpt><trkpt lat="37.80761320791752" lon="12.753956998567773"><ele>252.83333333333331</ele><time>2026-04-04T14:21:39Z</time></trkpt><trkpt lat="37.80760412155392" lon="12.75405532474975"><ele>253.0</ele><time>2026-04-04T14:21:40Z</time></trkpt><trkpt lat="37.80759750415516" lon="12.754163895750379"><ele>253.0</ele><time>2026-04-04T14:21:41Z</time></trkpt><trkpt lat="37.80759917206801" lon="12.754282103412109"><ele>253.0</ele><time>2026-04-04T14:21:42Z</time></trkpt><trkpt lat="37.80761473557271" lon="12.754400571435056"><ele>253.0</ele><time>2026-04-04T14:21:43Z</time></trkpt><trkpt lat="37.80763606963952" lon="12.754521671980333"><ele>253.0</ele><time>2026-04-04T14:21:44Z</time></trkpt><trkpt lat="37.807659063667074" lon="12.754635095461603"><ele>253.0</ele><time>2026-04-04T14:21:45Z</time></trkpt><trkpt lat="37.80769025883482" lon="12.754744103929259"><ele>252.4</ele><time>2026-04-04T14:21:46Z</time></trkpt><trkpt lat="37.807729583701075" lon="12.754838265709903"><ele>251.8</ele><time>2026-04-04T14:21:47Z</time></trkpt><trkpt lat="37.80777596805456" lon="12.75491149392989"><ele>251.2</ele><time>2026-04-04T14:21:48Z</time></trkpt><trkpt lat="37.80786688792386" lon="12.754963079190567"><ele>250.6</ele><time>2026-04-04T14:21:49Z</time></trkpt><trkpt lat="37.80796347320674" lon="12.755008592892862"><ele>250.0</ele><time>2026-04-04T14:21:50Z</time></trkpt><trkpt lat="37.808071049198126" lon="12.755070935857882"><ele>250.0</ele><time>2026-04-04T14:21:51Z</time></trkpt><trkpt lat="37.80818857784764" lon="12.755084599989459"><ele>250.0</ele><time>2026-04-04T14:21:52Z</time></trkpt><trkpt lat="37.80830303257413" lon="12.755138441175113"><ele>250.0</ele><time>2026-04-04T14:21:53Z</time></trkpt><trkpt lat="37.80842014035352" lon="12.755172685926894"><ele>250.0</ele><time>2026-04-04T14:21:54Z</time></trkpt><trkpt lat="37.80853088094482" lon="12.755205199065689"><ele>247.6</ele><time>2026-04-04T14:21:55Z</time></trkpt><trkpt lat="37.80863539287528" lon="12.755231859476968"><ele>245.2</ele><time>2026-04-04T14:21:56Z</time></trkpt><trkpt lat="37.80873686556927" lon="12.755234979619301"><ele>242.8</ele><time>2026-04-04T14:21:57Z</time></trkpt><trkpt lat="37.80882992433052" lon="12.755261572685122"><ele>240.4</ele><time>2026-04-04T14:21:58Z</time></trkpt><trkpt lat="37.808928368984034" lon="12.755265393311626"><ele>238.0</ele><time>2026-04-04T14:21:59Z</time></trkpt><trkpt lat="37.809032185639815" lon="12.755257746534022"><ele>238.0</ele><time>2026-04-04T14:22:00Z</time></trkpt><trkpt lat="37.809138938302574" lon="12.755231746050086"><ele>238.0</ele><time>2026-04-04T14:22:01Z</time></trkpt><trkpt lat="37.80924560127995" lon="12.755188434607017"><ele>238.0</ele><time>2026-04-04T14:22:02Z</time></trkpt><trkpt lat="37.80934579908274" lon="12.755120113842107"><ele>238.0</ele><time>2026-04-04T14:22:03Z</time></trkpt><trkpt lat="37.809430730272965" lon="12.755037018046501"><ele>238.0</ele><time>2026-04-04T14:22:04Z</time></trkpt><trkpt lat="37.80950693749278" lon="12.754920500966016"><ele>238.0</ele><time>2026-04-04T14:22:05Z</time></trkpt><trkpt lat="37.8095805770023" lon="12.754800156703112"><ele>238.0</ele><time>2026-04-04T14:22:06Z</time></trkpt><trkpt lat="37.80964877028544" lon="12.754694435951965"><ele>238.0</ele><time>2026-04-04T14:22:07Z</time></trkpt><trkpt lat="37.809711856380794" lon="12.754599291376156"><ele>238.0</ele><time>2026-04-04T14:22:08Z</time></trkpt><trkpt lat="37.80977522352117" lon="12.754507555343949"><ele>238.0</ele><time>2026-04-04T14:22:09Z</time></trkpt><trkpt lat="37.80983091395905" lon="12.75442263498002"><ele>238.99999999999997</ele><time>2026-04-04T14:22:10Z</time></trkpt><trkpt lat="37.80988427080852" lon="12.754337901284208"><ele>240.0</ele><time>2026-04-04T14:22:11Z</time></trkpt><trkpt lat="37.809940302127735" lon="12.754250120513207"><ele>241.0</ele><time>2026-04-04T14:22:12Z</time></trkpt><trkpt lat="37.80999346531354" lon="12.754170408744612"><ele>242.0</ele><time>2026-04-04T14:22:13Z</time></trkpt><trkpt lat="37.81004799779322" lon="12.754091636291086"><ele>242.99999999999997</ele><time>2026-04-04T14:22:14Z</time></trkpt><trkpt lat="37.81010298496279" lon="12.754021508003117"><ele>244.0</ele><time>2026-04-04T14:22:15Z</time></trkpt><trkpt lat="37.810155493906706" lon="12.75395062118407"><ele>243.66666666666666</ele><time>2026-04-04T14:22:16Z</time></trkpt><trkpt lat="37.81020936316641" lon="12.75387037689623"><ele>243.33333333333331</ele><time>2026-04-04T14:22:17Z</time></trkpt><trkpt lat="37.810279681418315" lon="12.75383920694922"><ele>243.0</ele><time>2026-04-04T14:22:18Z</time></trkpt><trkpt lat="37.810353427452604" lon="12.753800341233747"><ele>242.66666666666669</ele><time>2026-04-04T14:22:19Z</time></trkpt><trkpt lat="37.81042772137799" lon="12.753746634191458"><ele>242.33333333333334</ele><time>2026-04-04T14:22:20Z</time></trkpt><trkpt lat="37.810507328905985" lon="12.753715609355314"><ele>242.0</ele><time>2026-04-04T14:22:21Z</time></trkpt><trkpt lat="37.81058956682558" lon="12.753687797381355"><ele>242.00000000000003</ele><time>2026-04-04T14:22:22Z</time></trkpt><trkpt lat="37.81066989409668" lon="12.753686168054246"><ele>242.0</ele><time>2026-04-04T14:22:23Z</time></trkpt><trkpt lat="37.810753158772854" lon="12.75367794645284"><ele>242.0</ele><time>2026-04-04T14:22:24Z</time></trkpt><trkpt lat="37.810838824569785" lon="12.753676010228498"><ele>242.0</ele><time>2026-04-04T14:22:25Z</time></trkpt><trkpt lat="37.81092292616197" lon="12.753681200587593"><ele>242.00000000000003</ele><time>2026-04-04T14:22:26Z</time></trkpt><trkpt lat="37.81100973924548" lon="12.753686468978797"><ele>242.0</ele><time>2026-04-04T14:22:27Z</time></trkpt><trkpt lat="37.8110906016156" lon="12.753692850765212"><ele>242.33333333333334</ele><time>2026-04-04T14:22:28Z</time></trkpt><trkpt lat="37.811168029677745" lon="12.75369896150823"><ele>242.66666666666669</ele><time>2026-04-04T14:22:29Z</time></trkpt><trkpt lat="37.81124823464426" lon="12.753705291408442"><ele>243.0</ele><time>2026-04-04T14:22:30Z</time></trkpt><trkpt lat="37.81132891648058" lon="12.753711658948577"><ele>243.33333333333331</ele><time>2026-04-04T14:22:31Z</time></trkpt><trkpt lat="37.81140795168798" lon="12.753717701985092"><ele>243.66666666666666</ele><time>2026-04-04T14:22:32Z</time></trkpt><trkpt lat="37.81148991361844" lon="12.753723622900694"><ele>244.0</ele><time>2026-04-04T14:22:33Z</time></trkpt><trkpt lat="37.81157244165334" lon="12.753728608816091"><ele>243.99999999999997</ele><time>2026-04-04T14:22:34Z</time></trkpt><trkpt lat="37.81166073996679" lon="12.753733943337734"><ele>244.0</ele><time>2026-04-04T14:22:35Z</time></trkpt><trkpt lat="37.811746383420605" lon="12.753739117470127"><ele>244.0</ele><time>2026-04-04T14:22:36Z</time></trkpt><trkpt lat="37.811831884800554" lon="12.753744498762652"><ele>244.0</ele><time>2026-04-04T14:22:37Z</time></trkpt><trkpt lat="37.811912300279225" lon="12.753750839364795"><ele>243.99999999999997</ele><time>2026-04-04T14:22:38Z</time></trkpt><trkpt lat="37.811991661696425" lon="12.753757096856466"><ele>244.0</ele><time>2026-04-04T14:22:39Z</time></trkpt><trkpt lat="37.812073162802754" lon="12.753763523060684"><ele>243.99999999999997</ele><time>2026-04-04T14:22:40Z</time></trkpt><trkpt lat="37.81215188637223" lon="12.753769730261034"><ele>244.0</ele><time>2026-04-04T14:22:41Z</time></trkpt><trkpt lat="37.81223825451154" lon="12.753776540218935"><ele>244.0</ele><time>2026-04-04T14:22:42Z</time></trkpt><trkpt lat="37.81232424313974" lon="12.753783320252586"><ele>244.0</ele><time>2026-04-04T14:22:43Z</time></trkpt><trkpt lat="37.812411015322375" lon="12.753770144024706"><ele>243.99999999999997</ele><time>2026-04-04T14:22:44Z</time></trkpt><trkpt lat="37.81249649664001" lon="12.753785452340399"><ele>244.0</ele><time>2026-04-04T14:22:45Z</time></trkpt><trkpt lat="37.81258865360479" lon="12.753790121827027"><ele>244.16666666666666</ele><time>2026-04-04T14:22:46Z</time></trkpt><trkpt lat="37.81267965815691" lon="12.753817443513391"><ele>244.33333333333331</ele><time>2026-04-04T14:22:47Z</time></trkpt><trkpt lat="37.81275373197334" lon="12.753829750631184"><ele>244.5</ele><time>2026-04-04T14:22:48Z</time></trkpt><trkpt lat="37.812829533582374" lon="12.75385120546579"><ele>244.66666666666669</ele><time>2026-04-04T14:22:49Z</time></trkpt><trkpt lat="37.812902487664466" lon="12.753883936537358"><ele>244.83333333333334</ele><time>2026-04-04T14:22:50Z</time></trkpt><trkpt lat="37.81297358920135" lon="12.7539315477977"><ele>245.0</ele><time>2026-04-04T14:22:51Z</time></trkpt><trkpt lat="37.81302780227825" lon="12.754000348049681"><ele>245.00000000000003</ele><time>2026-04-04T14:22:52Z</time></trkpt><trkpt lat="37.813077808008636" lon="12.754071977458436"><ele>245.0</ele><time>2026-04-04T14:22:53Z</time></trkpt><trkpt lat="37.813112322244294" lon="12.754146945044553"><ele>245.0</ele><time>2026-04-04T14:22:54Z</time></trkpt><trkpt lat="37.81312329417" lon="12.754232343508928"><ele>245.0</ele><time>2026-04-04T14:22:55Z</time></trkpt><trkpt lat="37.81313364966784" lon="12.754343989254112"><ele>245.00000000000003</ele><time>2026-04-04T14:22:56Z</time></trkpt><trkpt lat="37.81314300332784" lon="12.754472547202383"><ele>245.0</ele><time>2026-04-04T14:22:57Z</time></trkpt><trkpt lat="37.81315432213266" lon="12.754610460761047"><ele>243.4</ele><time>2026-04-04T14:22:58Z</time></trkpt><trkpt lat="37.81316651449748" lon="12.754755181830632"><ele>241.8</ele><time>2026-04-04T14:22:59Z</time></trkpt><trkpt lat="37.81317796896102" lon="12.754891144169198"><ele>240.2</ele><time>2026-04-04T14:23:00Z</time></trkpt><trkpt lat="37.81318961424561" lon="12.755029371500466"><ele>238.6</ele><time>2026-04-04T14:23:01Z</time></trkpt><trkpt lat="37.81320083951707" lon="12.755155424930573"><ele>237.0</ele><time>2026-04-04T14:23:02Z</time></trkpt><trkpt lat="37.81321495175734" lon="12.755286546539338"><ele>237.0</ele><time>2026-04-04T14:23:03Z</time></trkpt><trkpt lat="37.81322786535931" lon="12.75540653120915"><ele>237.0</ele><time>2026-04-04T14:23:04Z</time></trkpt><trkpt lat="37.81324048875839" lon="12.755527478414946"><ele>237.0</ele><time>2026-04-04T14:23:05Z</time></trkpt><trkpt lat="37.8132528497474" lon="12.755652805118206"><ele>237.0</ele><time>2026-04-04T14:23:06Z</time></trkpt><trkpt lat="37.81326068431159" lon="12.755768632245598"><ele>237.0</ele><time>2026-04-04T14:23:07Z</time></trkpt><trkpt lat="37.813252943958155" lon="12.755864494082696"><ele>237.0</ele><time>2026-04-04T14:23:08Z</time></trkpt><trkpt lat="37.81324199255991" lon="12.755985828176069"><ele>237.0</ele><time>2026-04-04T14:23:10Z</time></trkpt><trkpt lat="37.81344175478641" lon="12.756039347738747"><ele>237.0</ele><time>2026-04-04T14:23:11Z</time></trkpt><trkpt lat="37.81351359258193" lon="12.756055142945849"><ele>237.0</ele><time>2026-04-04T14:23:12Z</time></trkpt><trkpt lat="37.813591647125726" lon="12.756106996754077"><ele>239.6</ele><time>2026-04-04T14:23:13Z</time></trkpt><trkpt lat="37.8136790767789" lon="12.75614539208606"><ele>242.2</ele><time>2026-04-04T14:23:14Z</time></trkpt><trkpt lat="37.81377892823287" lon="12.756186777293227"><ele>244.8</ele><time>2026-04-04T14:23:15Z</time></trkpt><trkpt lat="37.8138722647198" lon="12.756220834073668"><ele>247.4</ele><time>2026-04-04T14:23:16Z</time></trkpt><trkpt lat="37.8139702283573" lon="12.756222236588824"><ele>250.0</ele><time>2026-04-04T14:23:17Z</time></trkpt><trkpt lat="37.81405843256451" lon="12.7562287986636"><ele>250.0</ele><time>2026-04-04T14:23:18Z</time></trkpt><trkpt lat="37.81415610705942" lon="12.756211402794223"><ele>250.0</ele><time>2026-04-04T14:23:19Z</time></trkpt><trkpt lat="37.81425399576799" lon="12.756197031104263"><ele>250.0</ele><time>2026-04-04T14:23:20Z</time></trkpt><trkpt lat="37.81434687137426" lon="12.756187198849254"><ele>250.0</ele><time>2026-04-04T14:23:21Z</time></trkpt><trkpt lat="37.81443138447726" lon="12.756193879455378"><ele>250.0</ele><time>2026-04-04T14:23:22Z</time></trkpt><trkpt lat="37.8145106211979" lon="12.756167733089633"><ele>250.33333333333331</ele><time>2026-04-04T14:23:23Z</time></trkpt><trkpt lat="37.8145959743091" lon="12.7561679994568"><ele>250.66666666666666</ele><time>2026-04-04T14:23:24Z</time></trkpt><trkpt lat="37.81466611948988" lon="12.756232959144565"><ele>251.0</ele><time>2026-04-04T14:23:25Z</time></trkpt><trkpt lat="37.81474237724473" lon="12.75627149780931"><ele>251.33333333333331</ele><time>2026-04-04T14:23:26Z</time></trkpt><trkpt lat="37.814826580393046" lon="12.75631170778242"><ele>251.66666666666666</ele><time>2026-04-04T14:23:27Z</time></trkpt><trkpt lat="37.81491298021117" lon="12.756352966744704"><ele>252.0</ele><time>2026-04-04T14:23:28Z</time></trkpt><trkpt lat="37.814992497203036" lon="12.75639506564998"><ele>252.0</ele><time>2026-04-04T14:23:29Z</time></trkpt><trkpt lat="37.8150558571791" lon="12.75644659759264"><ele>252.0</ele><time>2026-04-04T14:23:30Z</time></trkpt><trkpt lat="37.81511197154568" lon="12.756504608201247"><ele>252.0</ele><time>2026-04-04T14:23:31Z</time></trkpt><trkpt lat="37.81515839476964" lon="12.75656471226635"><ele>252.0</ele><time>2026-04-04T14:23:32Z</time></trkpt><trkpt lat="37.81522143402818" lon="12.756711009744075"><ele>252.0</ele><time>2026-04-04T14:23:34Z</time></trkpt><trkpt lat="37.815248982041126" lon="12.756794440271127"><ele>252.0</ele><time>2026-04-04T14:23:35Z</time></trkpt><trkpt lat="37.815273003362066" lon="12.756883871344229"><ele>253.16666666666666</ele><time>2026-04-04T14:23:36Z</time></trkpt><trkpt lat="37.81529397617666" lon="12.756978290356397"><ele>254.33333333333331</ele><time>2026-04-04T14:23:37Z</time></trkpt><trkpt lat="37.81530530691727" lon="12.757066916316758"><ele>255.5</ele><time>2026-04-04T14:23:38Z</time></trkpt><trkpt lat="37.81531732055401" lon="12.757151049548915"><ele>256.66666666666663</ele><time>2026-04-04T14:23:39Z</time></trkpt><trkpt lat="37.8153307130803" lon="12.75724383135224"><ele>257.8333333333333</ele><time>2026-04-04T14:23:40Z</time></trkpt><trkpt lat="37.815357624302024" lon="12.757375469767437"><ele>259.0</ele><time>2026-04-04T14:23:42Z</time></trkpt><trkpt lat="37.81540010492654" lon="12.757516402641718"><ele>259.0</ele><time>2026-04-04T14:23:52Z</time></trkpt><trkpt lat="37.8154496721274" lon="12.757612298942469"><ele>259.0</ele><time>2026-04-04T14:23:54Z</time></trkpt><trkpt lat="37.81553409062709" lon="12.757707052972732"><ele>259.0</ele><time>2026-04-04T14:23:56Z</time></trkpt><trkpt lat="37.815622847410864" lon="12.757787702426054"><ele>259.0</ele><time>2026-04-04T14:23:58Z</time></trkpt><trkpt lat="37.81569583663749" lon="12.757850510625925"><ele>259.0</ele><time>2026-04-04T14:24:00Z</time></trkpt><trkpt lat="37.815758193926015" lon="12.75790416989186"><ele>261.5</ele><time>2026-04-04T14:24:02Z</time></trkpt><trkpt lat="37.81582512359507" lon="12.75796176375384"><ele>264.0</ele><time>2026-04-04T14:24:04Z</time></trkpt><trkpt lat="37.81589030414384" lon="12.75800107400796"><ele>266.5</ele><time>2026-04-04T14:24:07Z</time></trkpt><trkpt lat="37.81577786800261" lon="12.757977320080283"><ele>269.0</ele><time>2026-04-04T14:24:10Z</time></trkpt><trkpt lat="37.81569278554346" lon="12.75793127526303"><ele>271.5</ele><time>2026-04-04T14:24:12Z</time></trkpt><trkpt lat="37.815621183871876" lon="12.75793500412321"><ele>274.0</ele><time>2026-04-04T14:24:14Z</time></trkpt><trkpt lat="37.81550412601388" lon="12.757932619953241"><ele>274.0</ele><time>2026-04-04T14:24:16Z</time></trkpt><trkpt lat="37.81541552667589" lon="12.757947746815859"><ele>274.0</ele><time>2026-04-04T14:24:18Z</time></trkpt><trkpt lat="37.81535987352351" lon="12.757985390971598"><ele>274.0</ele><time>2026-04-04T14:24:19Z</time></trkpt><trkpt lat="37.815268207914336" lon="12.758051877559092"><ele>274.0</ele><time>2026-04-04T14:24:21Z</time></trkpt><trkpt lat="37.815204095047044" lon="12.758106655351948"><ele>274.0</ele><time>2026-04-04T14:24:23Z</time></trkpt><trkpt lat="37.81524250216525" lon="12.758205713983779"><ele>274.0</ele><time>2026-04-04T14:24:41Z</time></trkpt><trkpt lat="37.81529641200776" lon="12.758291682794832"><ele>274.0</ele><time>2026-04-04T14:24:43Z</time></trkpt><trkpt lat="37.81535541764345" lon="12.758431662390647"><ele>274.0</ele><time>2026-04-04T14:24:45Z</time></trkpt><trkpt lat="37.8154093901739" lon="12.758546627469581"><ele>274.0</ele><time>2026-04-04T14:24:47Z</time></trkpt><trkpt lat="37.81544612644565" lon="12.758621461728767"><ele>274.0</ele><time>2026-04-04T14:24:48Z</time></trkpt><trkpt lat="37.81550749342519" lon="12.758722281854556"><ele>274.0</ele><time>2026-04-04T14:24:50Z</time></trkpt><trkpt lat="37.815524190166684" lon="12.758807850296973"><ele>277.16666666666663</ele><time>2026-04-04T14:24:52Z</time></trkpt><trkpt lat="37.8155418182454" lon="12.758890947310636"><ele>280.3333333333333</ele><time>2026-04-04T14:25:05.001Z</time></trkpt><trkpt lat="37.815572900869356" lon="12.758989092649013"><ele>283.5</ele><time>2026-04-04T14:25:07.001Z</time></trkpt><trkpt lat="37.815618415640415" lon="12.7590855773386"><ele>286.6666666666667</ele><time>2026-04-04T14:25:09Z</time></trkpt><trkpt lat="37.815657917203225" lon="12.7591604889606"><ele>289.83333333333337</ele><time>2026-04-04T14:25:11Z</time></trkpt><trkpt lat="37.81571529675561" lon="12.75924283791025"><ele>293.0</ele><time>2026-04-04T14:25:14Z</time></trkpt><trkpt lat="37.81575468218899" lon="12.759337245589164"><ele>296.4</ele><time>2026-04-04T14:25:16Z</time></trkpt><trkpt lat="37.81577397935333" lon="12.759475857775152"><ele>299.8</ele><time>2026-04-04T14:25:18Z</time></trkpt><trkpt lat="37.815822076823046" lon="12.759608963157307"><ele>303.2</ele><time>2026-04-04T14:25:20Z</time></trkpt><trkpt lat="37.81583859442237" lon="12.759732302059387"><ele>306.6</ele><time>2026-04-04T14:25:22Z</time></trkpt><trkpt lat="37.81584517192629" lon="12.759837190535988"><ele>310.0</ele><time>2026-04-04T14:25:24Z</time></trkpt><trkpt lat="37.81586317993979" lon="12.759916864092352"><ele>310.0</ele><time>2026-04-04T14:25:25Z</time></trkpt><trkpt lat="37.81590232176094" lon="12.760027054271527"><ele>310.0</ele><time>2026-04-04T14:25:27Z</time></trkpt><trkpt lat="37.81593962352508" lon="12.760135937428046"><ele>310.0</ele><time>2026-04-04T14:25:30Z</time></trkpt><trkpt lat="37.81600280909633" lon="12.760103840645334"><ele>310.0</ele><time>2026-04-04T14:25:48Z</time></trkpt><trkpt lat="37.816071192767424" lon="12.760084683368786"><ele>310.0</ele><time>2026-04-04T14:25:50Z</time></trkpt><trkpt lat="37.81615971613901" lon="12.760014778769413"><ele>310.0</ele><time>2026-04-04T14:26:02Z</time></trkpt><trkpt lat="37.81621936385761" lon="12.760042608231773"><ele>309.8333333333333</ele><time>2026-04-04T14:26:11Z</time></trkpt><trkpt lat="37.81622113803511" lon="12.760131338350439"><ele>309.66666666666663</ele><time>2026-04-04T14:27:03.001Z</time></trkpt><trkpt lat="37.81625854257579" lon="12.760207397811714"><ele>309.5</ele><time>2026-04-04T14:27:08.001Z</time></trkpt><trkpt lat="37.81624945087881" lon="12.760306469540689"><ele>309.3333333333333</ele><time>2026-04-04T14:27:12.001Z</time></trkpt><trkpt lat="37.81624576193178" lon="12.760392263645707"><ele>309.1666666666667</ele><time>2026-04-04T14:27:14Z</time></trkpt><trkpt lat="37.816270065189585" lon="12.760522162438873"><ele>309.0</ele><time>2026-04-04T14:27:17Z</time></trkpt><trkpt lat="37.81630025463292" lon="12.760596090536042"><ele>312.0</ele><time>2026-04-04T14:27:20Z</time></trkpt><trkpt lat="37.816297885613416" lon="12.760675931830844"><ele>315.0</ele><time>2026-04-04T14:27:23Z</time></trkpt><trkpt lat="37.816323681779984" lon="12.76077923309549"><ele>318.0</ele><time>2026-04-04T14:27:35Z</time></trkpt><trkpt lat="37.81635956087897" lon="12.760868729282315"><ele>321.0</ele><time>2026-04-04T14:27:38Z</time></trkpt><trkpt lat="37.81637363316839" lon="12.76095378801601"><ele>324.0</ele><time>2026-04-04T14:27:44Z</time></trkpt><trkpt lat="37.816383837267956" lon="12.76106292968074"><ele>327.0</ele><time>2026-04-04T14:27:47Z</time></trkpt><trkpt lat="37.816414796426066" lon="12.761141610896589"><ele>329.6666666666667</ele><time>2026-04-04T14:27:49Z</time></trkpt><trkpt lat="37.81644089976681" lon="12.761223784932312"><ele>332.3333333333333</ele><time>2026-04-04T14:27:52Z</time></trkpt><trkpt lat="37.81645710161088" lon="12.761333651432603"><ele>335.0</ele><time>2026-04-04T14:27:55Z</time></trkpt><trkpt lat="37.81645179853969" lon="12.761445966939487"><ele>337.66666666666663</ele><time>2026-04-04T14:28:16Z</time></trkpt><trkpt lat="37.81647377651804" lon="12.761550218638641"><ele>340.3333333333333</ele><time>2026-04-04T14:28:18Z</time></trkpt><trkpt lat="37.816495990854186" lon="12.761657006446692"><ele>343.0</ele><time>2026-04-04T14:28:21Z</time></trkpt><trkpt lat="37.816507483609314" lon="12.761766787186037"><ele>343.0</ele><time>2026-04-04T14:28:24Z</time></trkpt><trkpt lat="37.81650291099864" lon="12.761860701478671"><ele>343.0</ele><time>2026-04-04T14:28:27Z</time></trkpt><trkpt lat="37.816487720092745" lon="12.761954347143952"><ele>343.0</ele><time>2026-04-04T14:28:29Z</time></trkpt><trkpt lat="37.816499084233364" lon="12.762063374790143"><ele>343.0</ele><time>2026-04-04T14:28:32Z</time></trkpt><trkpt lat="37.81651303666952" lon="12.762173220894189"><ele>343.0</ele><time>2026-04-04T14:28:35Z</time></trkpt><trkpt lat="37.816502141530755" lon="12.762256103218931"><ele>343.0</ele><time>2026-04-04T14:28:37Z</time></trkpt><trkpt lat="37.81648371095044" lon="12.762367312972158"><ele>344.42857142857144</ele><time>2026-04-04T14:28:40Z</time></trkpt><trkpt lat="37.816441242570285" lon="12.76243865112524"><ele>345.8571428571429</ele><time>2026-04-04T14:28:42Z</time></trkpt><trkpt lat="37.816415797238015" lon="12.762520242663339"><ele>347.2857142857143</ele><time>2026-04-04T14:28:45Z</time></trkpt><trkpt lat="37.816405089902915" lon="12.762615556537728"><ele>348.7142857142857</ele><time>2026-04-04T14:28:52Z</time></trkpt><trkpt lat="37.81641502267968" lon="12.76270200605626"><ele>350.14285714285717</ele><time>2026-04-04T14:28:55Z</time></trkpt><trkpt lat="37.81640747298736" lon="12.762806220928596"><ele>351.57142857142856</ele><time>2026-04-04T14:28:57Z</time></trkpt><trkpt lat="37.81639216465068" lon="12.762894711443547"><ele>353.0</ele><time>2026-04-04T14:29:00Z</time></trkpt><trkpt lat="37.81638017942029" lon="12.76298363592092"><ele>354.33333333333337</ele><time>2026-04-04T14:29:02Z</time></trkpt><trkpt lat="37.81636214645496" lon="12.76307603517104"><ele>355.6666666666667</ele><time>2026-04-04T14:29:04Z</time></trkpt><trkpt lat="37.81634697433758" lon="12.763169554673665"><ele>357.0</ele><time>2026-04-04T14:29:06Z</time></trkpt><trkpt lat="37.816321486741714" lon="12.763286950895555"><ele>358.3333333333333</ele><time>2026-04-04T14:29:08Z</time></trkpt><trkpt lat="37.81631446715852" lon="12.763389971061985"><ele>359.66666666666663</ele><time>2026-04-04T14:29:10.001Z</time></trkpt><trkpt lat="37.81628323790634" lon="12.763507031293905"><ele>361.0</ele><time>2026-04-04T14:29:13.001Z</time></trkpt><trkpt lat="37.81627011217021" lon="12.763592207246834"><ele>361.66666666666663</ele><time>2026-04-04T14:29:15Z</time></trkpt><trkpt lat="37.81625089196271" lon="12.763692026476047"><ele>362.3333333333333</ele><time>2026-04-04T14:29:17Z</time></trkpt><trkpt lat="37.81625130500124" lon="12.763820584823248"><ele>363.0</ele><time>2026-04-04T14:29:20Z</time></trkpt><trkpt lat="37.81624697551354" lon="12.763920623670623"><ele>363.6666666666667</ele><time>2026-04-04T14:29:22Z</time></trkpt><trkpt lat="37.81624122121249" lon="12.764009059868341"><ele>364.33333333333337</ele><time>2026-04-04T14:29:24Z</time></trkpt><trkpt lat="37.81625044396097" lon="12.76408835436384"><ele>365.0</ele><time>2026-04-04T14:29:26Z</time></trkpt><trkpt lat="37.81626089440399" lon="12.764168860796659"><ele>365.00000000000006</ele><time>2026-04-04T14:29:28Z</time></trkpt><trkpt lat="37.8162509472413" lon="12.764254331530513"><ele>365.0</ele><time>2026-04-04T14:29:31Z</time></trkpt><trkpt lat="37.816213896259036" lon="12.764330757866999"><ele>365.0</ele><time>2026-04-04T14:30:02Z</time></trkpt><trkpt lat="37.816173034388996" lon="12.764422325083357"><ele>365.0</ele><time>2026-04-04T14:30:06Z</time></trkpt><trkpt lat="37.8161472156507" lon="12.764508482696682"><ele>365.0</ele><time>2026-04-04T14:30:10Z</time></trkpt><trkpt lat="37.81617318243306" lon="12.764583924870822"><ele>365.00000000000006</ele><time>2026-04-04T14:30:16Z</time></trkpt><trkpt lat="37.81615870107567" lon="12.764679431277111"><ele>365.0</ele><time>2026-04-04T14:30:19Z</time></trkpt><trkpt lat="37.81615070443135" lon="12.764782418431679"><ele>365.5</ele><time>2026-04-04T14:30:27Z</time></trkpt><trkpt lat="37.81616848540195" lon="12.764880807217677"><ele>366.0</ele><time>2026-04-04T14:31:38Z</time></trkpt><trkpt lat="37.81617840853909" lon="12.764993474881068"><ele>366.5</ele><time>2026-04-04T14:31:41Z</time></trkpt><trkpt lat="37.81615529855365" lon="12.765100950956288"><ele>367.0</ele><time>2026-04-04T14:31:43Z</time></trkpt><trkpt lat="37.81610228099261" lon="12.765150594748553"><ele>367.5</ele><time>2026-04-04T14:31:45Z</time></trkpt><trkpt lat="37.81604301699853" lon="12.765194118673454"><ele>368.0</ele><time>2026-04-04T14:31:47Z</time></trkpt><trkpt lat="37.816018501781926" lon="12.76530487481897"><ele>367.4</ele><time>2026-04-04T14:31:49Z</time></trkpt><trkpt lat="37.815997439779814" lon="12.765438417779796"><ele>366.79999999999995</ele><time>2026-04-04T14:31:51Z</time></trkpt><trkpt lat="37.81601288037023" lon="12.7655514075569"><ele>366.2</ele><time>2026-04-04T14:31:53Z</time></trkpt><trkpt lat="37.816030302264664" lon="12.765686302588621"><ele>365.6</ele><time>2026-04-04T14:31:55Z</time></trkpt><trkpt lat="37.8159859320834" lon="12.76583002183639"><ele>365.0</ele><time>2026-04-04T14:31:57Z</time></trkpt><trkpt lat="37.81595217115698" lon="12.765952756802173"><ele>364.83333333333337</ele><time>2026-04-04T14:31:59Z</time></trkpt><trkpt lat="37.81596426333042" lon="12.766043503633323"><ele>364.6666666666667</ele><time>2026-04-04T14:32:01Z</time></trkpt><trkpt lat="37.81599779867113" lon="12.766126987039172"><ele>364.5</ele><time>2026-04-04T14:32:05Z</time></trkpt><trkpt lat="37.81601524176092" lon="12.766255755668507"><ele>364.3333333333333</ele><time>2026-04-04T14:32:08Z</time></trkpt><trkpt lat="37.816027682031326" lon="12.766390322923266"><ele>364.16666666666663</ele><time>2026-04-04T14:32:11Z</time></trkpt><trkpt lat="37.816034320064674" lon="12.766496565123557"><ele>364.0</ele><time>2026-04-04T14:32:13Z</time></trkpt><trkpt lat="37.81603444243024" lon="12.766596277240703"><ele>364.0</ele><time>2026-04-04T14:32:15Z</time></trkpt><trkpt lat="37.816031968356015" lon="12.76668132574601"><ele>364.0</ele><time>2026-04-04T14:32:17Z</time></trkpt><trkpt lat="37.81600388328016" lon="12.766753619614663"><ele>364.0</ele><time>2026-04-04T14:32:19Z</time></trkpt><trkpt lat="37.815964536019045" lon="12.766842439242117"><ele>364.0</ele><time>2026-04-04T14:32:22Z</time></trkpt><trkpt lat="37.81593584048513" lon="12.766924617921141"><ele>364.0</ele><time>2026-04-04T14:32:24Z</time></trkpt><trkpt lat="37.81593528855596" lon="12.767004428524384"><ele>364.0</ele><time>2026-04-04T14:32:26Z</time></trkpt><trkpt lat="37.81593167026303" lon="12.76709132493619"><ele>364.0</ele><time>2026-04-04T14:32:28Z</time></trkpt><trkpt lat="37.81593913768069" lon="12.767190202700798"><ele>364.0</ele><time>2026-04-04T14:32:38Z</time></trkpt><trkpt lat="37.81590124735711" lon="12.767275852474624"><ele>364.0</ele><time>2026-04-04T14:32:41Z</time></trkpt><trkpt lat="37.815855670434836" lon="12.767365472113292"><ele>364.0</ele><time>2026-04-04T14:32:44Z</time></trkpt><trkpt lat="37.8158257091714" lon="12.767450081402123"><ele>364.0</ele><time>2026-04-04T14:32:48Z</time></trkpt><trkpt lat="37.815779348424634" lon="12.767526399561715"><ele>364.0</ele><time>2026-04-04T14:32:55Z</time></trkpt><trkpt lat="37.815806088369875" lon="12.767605197900652"><ele>364.0</ele><time>2026-04-04T14:34:12Z</time></trkpt><trkpt lat="37.81582616305579" lon="12.76770899260021"><ele>363.0</ele><time>2026-04-04T14:34:15Z</time></trkpt><trkpt lat="37.815853494529854" lon="12.76779732644997"><ele>362.0</ele><time>2026-04-04T14:34:24Z</time></trkpt><trkpt lat="37.815803318040665" lon="12.767895073717948"><ele>361.0</ele><time>2026-04-04T14:34:27Z</time></trkpt><trkpt lat="37.81577382058815" lon="12.767986216607241"><ele>360.0</ele><time>2026-04-04T14:34:30Z</time></trkpt><trkpt lat="37.81575708022324" lon="12.76806725691435"><ele>359.0</ele><time>2026-04-04T14:34:33Z</time></trkpt><trkpt lat="37.8157919079002" lon="12.768143195254144"><ele>358.0</ele><time>2026-04-04T14:34:37Z</time></trkpt><trkpt lat="37.8157986558975" lon="12.768232787881159"><ele>358.0</ele><time>2026-04-04T14:34:43Z</time></trkpt><trkpt lat="37.81581599937268" lon="12.76832001359885"><ele>358.0</ele><time>2026-04-04T14:35:07.999Z</time></trkpt><trkpt lat="37.81577439187167" lon="12.768403922012034"><ele>358.0</ele><time>2026-04-04T14:35:10.999Z</time></trkpt><trkpt lat="37.81574534782717" lon="12.768498933466535"><ele>358.0</ele><time>2026-04-04T14:35:14.999Z</time></trkpt><trkpt lat="37.81574515865616" lon="12.768586650952555"><ele>358.0</ele><time>2026-04-04T14:35:17.999Z</time></trkpt><trkpt lat="37.81571036843428" lon="12.768685179342022"><ele>358.0</ele><time>2026-04-04T14:36:24Z</time></trkpt><trkpt lat="37.81568560280263" lon="12.768785275914476"><ele>357.8571428571429</ele><time>2026-04-04T14:36:28Z</time></trkpt><trkpt lat="37.81568634540298" lon="12.76888052385002"><ele>357.7142857142857</ele><time>2026-04-04T14:36:31Z</time></trkpt><trkpt lat="37.81565447087288" lon="12.768971276987381"><ele>357.57142857142856</ele><time>2026-04-04T14:36:34Z</time></trkpt><trkpt lat="37.81559881997095" lon="12.769012373789824"><ele>357.42857142857144</ele><time>2026-04-04T14:36:36Z</time></trkpt><trkpt lat="37.81555408469318" lon="12.769084599469616"><ele>357.2857142857143</ele><time>2026-04-04T14:36:39Z</time></trkpt><trkpt lat="37.81551845673746" lon="12.769171816127516"><ele>357.14285714285717</ele><time>2026-04-04T14:36:42Z</time></trkpt><trkpt lat="37.815481385084574" lon="12.76923627013354"><ele>357.0</ele><time>2026-04-04T14:36:53Z</time></trkpt><trkpt lat="37.81542200901157" lon="12.769301891637644"><ele>357.0</ele><time>2026-04-04T14:36:57.999Z</time></trkpt><trkpt lat="37.81536952587445" lon="12.769358185167542"><ele>357.0</ele><time>2026-04-04T14:37:01.999Z</time></trkpt><trkpt lat="37.81534965283107" lon="12.769460119421181"><ele>357.0</ele><time>2026-04-04T14:37:05.999Z</time></trkpt><trkpt lat="37.81531417512139" lon="12.76956238151895"><ele>357.0</ele><time>2026-04-04T14:37:08.999Z</time></trkpt><trkpt lat="37.81529801573742" lon="12.769651902850155"><ele>357.0</ele><time>2026-04-04T14:37:11.999Z</time></trkpt><trkpt lat="37.815256834620236" lon="12.769713344699218"><ele>357.0</ele><time>2026-04-04T14:37:15.999Z</time></trkpt><trkpt lat="37.815198154258304" lon="12.769674214670022"><ele>357.0</ele><time>2026-04-04T14:37:18.999Z</time></trkpt><trkpt lat="37.81511990301736" lon="12.769640918200174"><ele>354.57142857142856</ele><time>2026-04-04T14:37:22.999Z</time></trkpt><trkpt lat="37.815079033439474" lon="12.769565829338648"><ele>352.1428571428571</ele><time>2026-04-04T14:37:28.999Z</time></trkpt><trkpt lat="37.81512418263377" lon="12.769480274996072"><ele>349.7142857142857</ele><time>2026-04-04T14:37:30.999Z</time></trkpt><trkpt lat="37.815141525256315" lon="12.769402217282412"><ele>347.2857142857143</ele><time>2026-04-04T14:37:33Z</time></trkpt><trkpt lat="37.81508557405427" lon="12.769340308783242"><ele>344.85714285714283</ele><time>2026-04-04T14:37:36Z</time></trkpt><trkpt lat="37.81504030119247" lon="12.769283093829657"><ele>342.42857142857144</ele><time>2026-04-04T14:37:38Z</time></trkpt><trkpt lat="37.81498978284263" lon="12.769208930676497"><ele>340.0</ele><time>2026-04-04T14:37:43Z</time></trkpt><trkpt lat="37.81492360503369" lon="12.769176579525125"><ele>339.0</ele><time>2026-04-04T14:37:50Z</time></trkpt><trkpt lat="37.814915299223465" lon="12.76909074788801"><ele>338.0</ele><time>2026-04-04T14:37:53Z</time></trkpt><trkpt lat="37.814937265518004" lon="12.768969072321124"><ele>337.0</ele><time>2026-04-04T14:37:57Z</time></trkpt><trkpt lat="37.81495647268206" lon="12.768845065018485"><ele>336.0</ele><time>2026-04-04T14:38:00Z</time></trkpt><trkpt lat="37.81496856393675" lon="12.76876357352266"><ele>335.0</ele><time>2026-04-04T14:38:02Z</time></trkpt><trkpt lat="37.81493911372369" lon="12.768673966541076"><ele>334.0</ele><time>2026-04-04T14:38:05Z</time></trkpt><trkpt lat="37.814848795661604" lon="12.76864966679249"><ele>334.0</ele><time>2026-04-04T14:38:08Z</time></trkpt><trkpt lat="37.81477797353711" lon="12.768617544914028"><ele>334.0</ele><time>2026-04-04T14:38:10Z</time></trkpt><trkpt lat="37.814706412748826" lon="12.768582403243165"><ele>334.0</ele><time>2026-04-04T14:38:12Z</time></trkpt><trkpt lat="37.8146122824132" lon="12.768545066583176"><ele>334.0</ele><time>2026-04-04T14:38:14Z</time></trkpt><trkpt lat="37.81453318289766" lon="12.768506256098119"><ele>334.0</ele><time>2026-04-04T14:38:16Z</time></trkpt><trkpt lat="37.814457600205586" lon="12.768480395310744"><ele>334.0</ele><time>2026-04-04T14:38:19Z</time></trkpt><trkpt lat="37.81441039532818" lon="12.768572771725891"><ele>334.0</ele><time>2026-04-04T14:38:22Z</time></trkpt><trkpt lat="37.81436710323458" lon="12.768677218447467"><ele>334.0</ele><time>2026-04-04T14:38:25Z</time></trkpt><trkpt lat="37.8143223836654" lon="12.768734921561478"><ele>334.0</ele><time>2026-04-04T14:38:27Z</time></trkpt><trkpt lat="37.81426157431177" lon="12.768797223115216"><ele>334.0</ele><time>2026-04-04T14:38:30Z</time></trkpt><trkpt lat="37.81419901494658" lon="12.768860660475008"><ele>334.0</ele><time>2026-04-04T14:38:33Z</time></trkpt><trkpt lat="37.81416805855934" lon="12.768962996263008"><ele>334.0</ele><time>2026-04-04T14:38:36Z</time></trkpt><trkpt lat="37.81415142599137" lon="12.769054525432885"><ele>331.5</ele><time>2026-04-04T14:38:39Z</time></trkpt><trkpt lat="37.81408214002294" lon="12.769122973647182"><ele>329.0</ele><time>2026-04-04T14:38:58Z</time></trkpt><trkpt lat="37.81401888045277" lon="12.769100459866337"><ele>326.5</ele><time>2026-04-04T14:39:01.999Z</time></trkpt><trkpt lat="37.813983409313266" lon="12.769019171167518"><ele>324.0</ele><time>2026-04-04T14:39:12.999Z</time></trkpt><trkpt lat="37.81392791174506" lon="12.768952360714692"><ele>321.5</ele><time>2026-04-04T14:39:14.999Z</time></trkpt><trkpt lat="37.81386312198176" lon="12.76887675655374"><ele>319.0</ele><time>2026-04-04T14:39:16.999Z</time></trkpt><trkpt lat="37.813781496448314" lon="12.768815218680265"><ele>319.0</ele><time>2026-04-04T14:39:18.999Z</time></trkpt><trkpt lat="37.81370334045946" lon="12.768762125565798"><ele>319.0</ele><time>2026-04-04T14:39:20.999Z</time></trkpt><trkpt lat="37.81361684320529" lon="12.768719630338312"><ele>319.0</ele><time>2026-04-04T14:39:22.999Z</time></trkpt><trkpt lat="37.81354067913141" lon="12.768671612011397"><ele>319.0</ele><time>2026-04-04T14:39:24.999Z</time></trkpt><trkpt lat="37.813445701829714" lon="12.76861385900351"><ele>319.0</ele><time>2026-04-04T14:39:26.999Z</time></trkpt><trkpt lat="37.81334667915906" lon="12.768539403320409"><ele>318.2</ele><time>2026-04-04T14:39:28.999Z</time></trkpt><trkpt lat="37.8132585761564" lon="12.76847817304663"><ele>317.4</ele><time>2026-04-04T14:39:30.999Z</time></trkpt><trkpt lat="37.81316637301044" lon="12.76842125585069"><ele>316.6</ele><time>2026-04-04T14:39:32.999Z</time></trkpt><trkpt lat="37.81309531292071" lon="12.76842817928823"><ele>315.8</ele><time>2026-04-04T14:39:34.999Z</time></trkpt><trkpt lat="37.8130301562092" lon="12.76850969254524"><ele>315.0</ele><time>2026-04-04T14:39:36.999Z</time></trkpt><trkpt lat="37.81296226086813" lon="12.768597687394118"><ele>315.0</ele><time>2026-04-04T14:39:39Z</time></trkpt><trkpt lat="37.812890248760446" lon="12.76868267050555"><ele>315.0</ele><time>2026-04-04T14:39:41Z</time></trkpt><trkpt lat="37.81281389037849" lon="12.768771568482348"><ele>315.0</ele><time>2026-04-04T14:39:43Z</time></trkpt><trkpt lat="37.812751041633" lon="12.768854261722662"><ele>315.0</ele><time>2026-04-04T14:39:45Z</time></trkpt><trkpt lat="37.81272186328993" lon="12.768938453234261"><ele>315.0</ele><time>2026-04-04T14:39:48Z</time></trkpt><trkpt lat="37.81273516868314" lon="12.769041382351187"><ele>315.0</ele><time>2026-04-04T14:39:50Z</time></trkpt><trkpt lat="37.812730173185145" lon="12.769189130289357"><ele>315.0</ele><time>2026-04-04T14:39:52Z</time></trkpt><trkpt lat="37.81270224384825" lon="12.769264399518077"><ele>315.0</ele><time>2026-04-04T14:39:53Z</time></trkpt><trkpt lat="37.81267446163337" lon="12.769344921677565"><ele>315.0</ele><time>2026-04-04T14:39:54Z</time></trkpt><trkpt lat="37.81265244315347" lon="12.769428832005687"><ele>315.0</ele><time>2026-04-04T14:39:55Z</time></trkpt><trkpt lat="37.81262391015372" lon="12.76950185413092"><ele>315.0</ele><time>2026-04-04T14:39:56Z</time></trkpt><trkpt lat="37.81255075937077" lon="12.769645807363723"><ele>315.0</ele><time>2026-04-04T14:39:58Z</time></trkpt><trkpt lat="37.812464423639554" lon="12.7697766759048"><ele>314.0</ele><time>2026-04-04T14:40:00Z</time></trkpt><trkpt lat="37.8124136322111" lon="12.769846315302104"><ele>313.0</ele><time>2026-04-04T14:40:01Z</time></trkpt><trkpt lat="37.81237199811533" lon="12.769908195604428"><ele>312.0</ele><time>2026-04-04T14:40:02Z</time></trkpt><trkpt lat="37.812318830024175" lon="12.769990530566915"><ele>311.0</ele><time>2026-04-04T14:40:04Z</time></trkpt><trkpt lat="37.81226368710728" lon="12.770066666765487"><ele>310.0</ele><time>2026-04-04T14:40:07Z</time></trkpt><trkpt lat="37.81220197695" lon="12.770030538618396"><ele>309.0</ele><time>2026-04-04T14:40:34Z</time></trkpt><trkpt lat="37.812285943918056" lon="12.769901507090408"><ele>309.0</ele><time>2026-04-04T14:40:48Z</time></trkpt><trkpt lat="37.81232377191209" lon="12.769816771290994"><ele>309.0</ele><time>2026-04-04T14:40:51Z</time></trkpt><trkpt lat="37.81230228887765" lon="12.769907806088662"><ele>309.0</ele><time>2026-04-04T14:43:01.999Z</time></trkpt><trkpt lat="37.8123187152686" lon="12.769989317081262"><ele>309.0</ele><time>2026-04-04T14:43:04.999Z</time></trkpt><trkpt lat="37.81238138190749" lon="12.769921115067426"><ele>309.0</ele><time>2026-04-04T14:43:10.999Z</time></trkpt><trkpt lat="37.812429336182305" lon="12.769829392756773"><ele>309.0</ele><time>2026-04-04T14:43:13.999Z</time></trkpt><trkpt lat="37.81248698789904" lon="12.769743471577492"><ele>309.0</ele><time>2026-04-04T14:43:16.999Z</time></trkpt><trkpt lat="37.81253713900143" lon="12.769639429644956"><ele>309.0</ele><time>2026-04-04T14:43:19.999Z</time></trkpt><trkpt lat="37.81257364573743" lon="12.769568367226789"><ele>309.0</ele><time>2026-04-04T14:43:21.999Z</time></trkpt><trkpt lat="37.812614780691874" lon="12.76948781831881"><ele>309.0</ele><time>2026-04-04T14:43:23.999Z</time></trkpt><trkpt lat="37.81266006283689" lon="12.769391088942907"><ele>309.0</ele><time>2026-04-04T14:43:25.999Z</time></trkpt><trkpt lat="37.812687817912135" lon="12.769311355128066"><ele>309.0</ele><time>2026-04-04T14:43:27.999Z</time></trkpt><trkpt lat="37.81271779784423" lon="12.769218464175601"><ele>310.0</ele><time>2026-04-04T14:43:29.999Z</time></trkpt><trkpt lat="37.812740763987215" lon="12.769130115260628"><ele>311.0</ele><time>2026-04-04T14:43:31.999Z</time></trkpt><trkpt lat="37.81274949651126" lon="12.769021217849737"><ele>312.0</ele><time>2026-04-04T14:43:34.999Z</time></trkpt><trkpt lat="37.812742529234136" lon="12.76892107860989"><ele>313.0</ele><time>2026-04-04T14:43:36.999Z</time></trkpt><trkpt lat="37.81275931129089" lon="12.768831757292674"><ele>314.0</ele><time>2026-04-04T14:43:39.999Z</time></trkpt><trkpt lat="37.81281218639621" lon="12.768771079885816"><ele>315.0</ele><time>2026-04-04T14:43:41.999Z</time></trkpt><trkpt lat="37.81288214147421" lon="12.76869863659645"><ele>315.0</ele><time>2026-04-04T14:43:43.999Z</time></trkpt><trkpt lat="37.812953721003275" lon="12.76861960500774"><ele>315.0</ele><time>2026-04-04T14:43:45.999Z</time></trkpt><trkpt lat="37.81302160949428" lon="12.768530711931591"><ele>315.0</ele><time>2026-04-04T14:43:47.999Z</time></trkpt><trkpt lat="37.81307265338859" lon="12.768472755910008"><ele>315.0</ele><time>2026-04-04T14:43:49.999Z</time></trkpt><trkpt lat="37.813144096233906" lon="12.768413876000844"><ele>315.0</ele><time>2026-04-04T14:43:52Z</time></trkpt><trkpt lat="37.81321617545841" lon="12.76841595441865"><ele>315.0</ele><time>2026-04-04T14:43:54Z</time></trkpt><trkpt lat="37.81328196341532" lon="12.768482277796043"><ele>315.0</ele><time>2026-04-04T14:43:56Z</time></trkpt><trkpt lat="37.81334713076897" lon="12.768541335558721"><ele>315.0</ele><time>2026-04-04T14:43:58Z</time></trkpt><trkpt lat="37.81341241551407" lon="12.768582683325693"><ele>315.0</ele><time>2026-04-04T14:44:00Z</time></trkpt><trkpt lat="37.813475110684685" lon="12.768618067565681"><ele>315.0</ele><time>2026-04-04T14:44:02Z</time></trkpt><trkpt lat="37.81356396347073" lon="12.768679751306616"><ele>315.0</ele><time>2026-04-04T14:44:04Z</time></trkpt><trkpt lat="37.81362636174135" lon="12.76871453709717"><ele>315.0</ele><time>2026-04-04T14:44:06Z</time></trkpt><trkpt lat="37.81369703900791" lon="12.76876235777828"><ele>314.6666666666667</ele><time>2026-04-04T14:44:09Z</time></trkpt><trkpt lat="37.81376277843094" lon="12.768778679112812"><ele>314.3333333333333</ele><time>2026-04-04T14:44:12Z</time></trkpt><trkpt lat="37.813798342299904" lon="12.7687035351036"><ele>314.0</ele><time>2026-04-04T14:44:16Z</time></trkpt><trkpt lat="37.81377267593639" lon="12.768617806473753"><ele>313.66666666666663</ele><time>2026-04-04T14:44:18Z</time></trkpt><trkpt lat="37.81371129611429" lon="12.768522989024424"><ele>313.3333333333333</ele><time>2026-04-04T14:44:22Z</time></trkpt><trkpt lat="37.813666059214476" lon="12.768444920222617"><ele>313.0</ele><time>2026-04-04T14:44:24Z</time></trkpt><trkpt lat="37.81359942760408" lon="12.768355710197763"><ele>313.0</ele><time>2026-04-04T14:44:27Z</time></trkpt><trkpt lat="37.81352289425337" lon="12.768330251195831"><ele>313.0</ele><time>2026-04-04T14:44:29Z</time></trkpt><trkpt lat="37.81342793980354" lon="12.768292735777594"><ele>313.0</ele><time>2026-04-04T14:44:31Z</time></trkpt><trkpt lat="37.81335984928634" lon="12.768237331439911"><ele>313.0</ele><time>2026-04-04T14:44:33Z</time></trkpt><trkpt lat="37.813292096065226" lon="12.768194095456927"><ele>313.0</ele><time>2026-04-04T14:44:35Z</time></trkpt><trkpt lat="37.81322528072473" lon="12.768151820419584"><ele>313.0</ele><time>2026-04-04T14:44:37Z</time></trkpt><trkpt lat="37.8131620701319" lon="12.768170709204604"><ele>313.3333333333333</ele><time>2026-04-04T14:44:42Z</time></trkpt><trkpt lat="37.81317289323208" lon="12.76826108091417"><ele>313.66666666666663</ele><time>2026-04-04T14:44:59Z</time></trkpt><trkpt lat="37.813219401372784" lon="12.768352930747943"><ele>314.0</ele><time>2026-04-04T14:45:01Z</time></trkpt><trkpt lat="37.81323461659446" lon="12.76843971681096"><ele>314.3333333333333</ele><time>2026-04-04T14:45:03Z</time></trkpt><trkpt lat="37.81326530486898" lon="12.768547231437234"><ele>314.6666666666667</ele><time>2026-04-04T14:45:05.999Z</time></trkpt><trkpt lat="37.813283573134136" lon="12.768645760344985"><ele>315.0</ele><time>2026-04-04T14:45:07.999Z</time></trkpt><trkpt lat="37.81330277466822" lon="12.76873434814303"><ele>315.0</ele><time>2026-04-04T14:45:09.999Z</time></trkpt><trkpt lat="37.81331296337202" lon="12.768852715655864"><ele>315.0</ele><time>2026-04-04T14:45:11.999Z</time></trkpt><trkpt lat="37.81333084993536" lon="12.768957856989404"><ele>315.0</ele><time>2026-04-04T14:45:13.999Z</time></trkpt><trkpt lat="37.81334294249125" lon="12.769044438998126"><ele>315.0</ele><time>2026-04-04T14:45:15.999Z</time></trkpt><trkpt lat="37.813395522248264" lon="12.769119990375007"><ele>315.0</ele><time>2026-04-04T14:45:17.999Z</time></trkpt><trkpt lat="37.81346042725147" lon="12.769195760265873"><ele>315.0</ele><time>2026-04-04T14:45:19.999Z</time></trkpt><trkpt lat="37.81353819855464" lon="12.769277096532024"><ele>315.8</ele><time>2026-04-04T14:45:21.999Z</time></trkpt><trkpt lat="37.8136022673924" lon="12.769332927634542"><ele>316.6</ele><time>2026-04-04T14:45:23.999Z</time></trkpt><trkpt lat="37.81367661703645" lon="12.769401823686833"><ele>317.4</ele><time>2026-04-04T14:45:25.999Z</time></trkpt><trkpt lat="37.81374065453748" lon="12.769463936423634"><ele>318.2</ele><time>2026-04-04T14:45:27.999Z</time></trkpt><trkpt lat="37.81382433950795" lon="12.769550127092637"><ele>319.0</ele><time>2026-04-04T14:45:29.999Z</time></trkpt><trkpt lat="37.81391585803241" lon="12.769639855491407"><ele>320.3333333333333</ele><time>2026-04-04T14:45:31.999Z</time></trkpt><trkpt lat="37.81397655057299" lon="12.769688926735467"><ele>321.66666666666663</ele><time>2026-04-04T14:45:33.999Z</time></trkpt><trkpt lat="37.814040627078995" lon="12.769752540407572"><ele>323.0</ele><time>2026-04-04T14:45:35.999Z</time></trkpt><trkpt lat="37.81410006814759" lon="12.769808876435574"><ele>324.3333333333333</ele><time>2026-04-04T14:45:37.999Z</time></trkpt><trkpt lat="37.81416200577657" lon="12.769845016056289"><ele>325.6666666666667</ele><time>2026-04-04T14:45:48.999Z</time></trkpt><trkpt lat="37.814236442814796" lon="12.769911879306598"><ele>327.0</ele><time>2026-04-04T14:46:00Z</time></trkpt><trkpt lat="37.814321953971195" lon="12.770015707808302"><ele>329.1666666666667</ele><time>2026-04-04T14:46:02Z</time></trkpt><trkpt lat="37.81437397611124" lon="12.770070073619602"><ele>331.3333333333333</ele><time>2026-04-04T14:46:03Z</time></trkpt><trkpt lat="37.81442302985877" lon="12.770125035054035"><ele>333.5</ele><time>2026-04-04T14:46:04Z</time></trkpt><trkpt lat="37.81451330590928" lon="12.770217137011269"><ele>335.66666666666663</ele><time>2026-04-04T14:46:06Z</time></trkpt><trkpt lat="37.81459620570733" lon="12.77029363271336"><ele>337.8333333333333</ele><time>2026-04-04T14:46:08Z</time></trkpt><trkpt lat="37.814653045109566" lon="12.770338020501303"><ele>340.0</ele><time>2026-04-04T14:46:09Z</time></trkpt><trkpt lat="37.81472409621424" lon="12.77041573647919"><ele>341.5</ele><time>2026-04-04T14:46:11Z</time></trkpt><trkpt lat="37.81479801299517" lon="12.770498645414815"><ele>343.0</ele><time>2026-04-04T14:46:13Z</time></trkpt><trkpt lat="37.81486674335094" lon="12.770565972346185"><ele>344.5</ele><time>2026-04-04T14:46:15Z</time></trkpt><trkpt lat="37.814941981392955" lon="12.77064295591259"><ele>346.0</ele><time>2026-04-04T14:46:17Z</time></trkpt><trkpt lat="37.81496731095886" lon="12.770729493650007"><ele>347.5</ele><time>2026-04-04T14:46:19Z</time></trkpt><trkpt lat="37.81493327198243" lon="12.770802293381793"><ele>349.0</ele><time>2026-04-04T14:46:22Z</time></trkpt><trkpt lat="37.81491577631615" lon="12.770925785552462"><ele>349.0</ele><time>2026-04-04T14:46:24Z</time></trkpt><trkpt lat="37.814899796159374" lon="12.771014497172832"><ele>349.0</ele><time>2026-04-04T14:46:26Z</time></trkpt><trkpt lat="37.81488146671089" lon="12.771124264202244"><ele>349.0</ele><time>2026-04-04T14:46:29Z</time></trkpt><trkpt lat="37.814833718428055" lon="12.771219509688752"><ele>349.0</ele><time>2026-04-04T14:46:32Z</time></trkpt><trkpt lat="37.81491829084035" lon="12.771180122503507"><ele>349.0</ele><time>2026-04-04T14:46:45Z</time></trkpt><trkpt lat="37.814978138071695" lon="12.771080026503368"><ele>349.0</ele><time>2026-04-04T14:46:47Z</time></trkpt><trkpt lat="37.81503976305515" lon="12.771048727709765"><ele>352.0</ele><time>2026-04-04T14:46:50Z</time></trkpt><trkpt lat="37.81509940290856" lon="12.771149912217027"><ele>355.0</ele><time>2026-04-04T14:46:52Z</time></trkpt><trkpt lat="37.81510705848577" lon="12.77123371541262"><ele>358.0</ele><time>2026-04-04T14:46:54Z</time></trkpt><trkpt lat="37.81510505189463" lon="12.771391066604744"><ele>361.0</ele><time>2026-04-04T14:46:56Z</time></trkpt><trkpt lat="37.81511653465174" lon="12.771526203492213"><ele>364.0</ele><time>2026-04-04T14:46:58Z</time></trkpt><trkpt lat="37.81511806293602" lon="12.771648490064985"><ele>364.0</ele><time>2026-04-04T14:47:00Z</time></trkpt><trkpt lat="37.815122386582274" lon="12.771793961486647"><ele>364.0</ele><time>2026-04-04T14:47:02Z</time></trkpt><trkpt lat="37.81516505340766" lon="12.771876380383738"><ele>364.0</ele><time>2026-04-04T14:47:09.999Z</time></trkpt><trkpt lat="37.81522998454512" lon="12.771937722182003"><ele>364.0</ele><time>2026-04-04T14:47:12.999Z</time></trkpt><trkpt lat="37.81525710516862" lon="12.772054849972744"><ele>364.0</ele><time>2026-04-04T14:47:14.999Z</time></trkpt><trkpt lat="37.81529297654706" lon="12.77215301251009"><ele>366.6</ele><time>2026-04-04T14:47:16.999Z</time></trkpt><trkpt lat="37.8153114519142" lon="12.772249940974"><ele>369.2</ele><time>2026-04-04T14:47:18.999Z</time></trkpt><trkpt lat="37.815296402716044" lon="12.772360507933426"><ele>371.8</ele><time>2026-04-04T14:47:20.999Z</time></trkpt><trkpt lat="37.81528611683337" lon="12.772491449173163"><ele>374.40000000000003</ele><time>2026-04-04T14:47:22.999Z</time></trkpt><trkpt lat="37.815304369450885" lon="12.772639061890391"><ele>377.0</ele><time>2026-04-04T14:47:24.999Z</time></trkpt><trkpt lat="37.81529988664639" lon="12.7727213438115"><ele>378.6666666666667</ele><time>2026-04-04T14:47:25.999Z</time></trkpt><trkpt lat="37.81531213267578" lon="12.772835323427351"><ele>380.33333333333337</ele><time>2026-04-04T14:47:27.999Z</time></trkpt><trkpt lat="37.81536739995227" lon="12.772881636125893"><ele>382.0</ele><time>2026-04-04T14:47:30.999Z</time></trkpt><trkpt lat="37.81540373170333" lon="12.772957195619687"><ele>383.6666666666667</ele><time>2026-04-04T14:47:34.999Z</time></trkpt><trkpt lat="37.815389036587476" lon="12.773056420654974"><ele>385.3333333333333</ele><time>2026-04-04T14:47:37.999Z</time></trkpt><trkpt lat="37.81540086600975" lon="12.77319213496524"><ele>387.0</ele><time>2026-04-04T14:47:39.999Z</time></trkpt><trkpt lat="37.815385304757925" lon="12.773325051936615"><ele>387.0</ele><time>2026-04-04T14:47:41.999Z</time></trkpt><trkpt lat="37.8154054757043" lon="12.773412002123983"><ele>387.0</ele><time>2026-04-04T14:47:42.999Z</time></trkpt><trkpt lat="37.815417011240996" lon="12.77349949584652"><ele>387.0</ele><time>2026-04-04T14:47:43.999Z</time></trkpt><trkpt lat="37.81542415709156" lon="12.773591578696292"><ele>387.0</ele><time>2026-04-04T14:47:44.999Z</time></trkpt><trkpt lat="37.81542745428425" lon="12.77369060585512"><ele>387.0</ele><time>2026-04-04T14:47:45.999Z</time></trkpt><trkpt lat="37.81543229726371" lon="12.773800040608927"><ele>387.0</ele><time>2026-04-04T14:47:46.999Z</time></trkpt><trkpt lat="37.81544318561275" lon="12.773899869834914"><ele>388.5</ele><time>2026-04-04T14:47:47.999Z</time></trkpt><trkpt lat="37.8154538051978" lon="12.773991729984361"><ele>390.0</ele><time>2026-04-04T14:47:48.999Z</time></trkpt><trkpt lat="37.81546956863978" lon="12.774071958348033"><ele>391.5</ele><time>2026-04-04T14:47:49.999Z</time></trkpt><trkpt lat="37.81548875665761" lon="12.77416112031255"><ele>393.0</ele><time>2026-04-04T14:47:50.999Z</time></trkpt><trkpt lat="37.815505447548844" lon="12.774249018519052"><ele>394.5</ele><time>2026-04-04T14:47:51.999Z</time></trkpt><trkpt lat="37.81553183229242" lon="12.774410083562266"><ele>396.0</ele><time>2026-04-04T14:47:53.999Z</time></trkpt><trkpt lat="37.81560370891995" lon="12.774441650247072"><ele>396.8571428571429</ele><time>2026-04-04T14:47:56.999Z</time></trkpt><trkpt lat="37.815663955581435" lon="12.774486599709643"><ele>397.71428571428567</ele><time>2026-04-04T14:47:59.999Z</time></trkpt><trkpt lat="37.81571881846221" lon="12.77456391132132"><ele>398.57142857142856</ele><time>2026-04-04T14:48:04Z</time></trkpt><trkpt lat="37.815739625098175" lon="12.774671185671712"><ele>399.42857142857144</ele><time>2026-04-04T14:48:12Z</time></trkpt><trkpt lat="37.815747677339495" lon="12.77476198246615"><ele>400.28571428571433</ele><time>2026-04-04T14:48:15Z</time></trkpt><trkpt lat="37.81572480717568" lon="12.77484045000365"><ele>401.1428571428571</ele><time>2026-04-04T14:48:17Z</time></trkpt><trkpt lat="37.81573551100747" lon="12.774921696316529"><ele>402.0</ele><time>2026-04-04T14:48:19Z</time></trkpt><trkpt lat="37.81576842828477" lon="12.775022504853741"><ele>402.0</ele><time>2026-04-04T14:48:21Z</time></trkpt><trkpt lat="37.815787795841786" lon="12.775122596460001"><ele>402.0</ele><time>2026-04-04T14:48:24Z</time></trkpt><trkpt lat="37.81581058627556" lon="12.77522959459528"><ele>402.0</ele><time>2026-04-04T14:48:27Z</time></trkpt><trkpt lat="37.81582206701872" lon="12.775313569053418"><ele>402.0</ele><time>2026-04-04T14:48:29Z</time></trkpt><trkpt lat="37.815846072563915" lon="12.775403333701902"><ele>402.0</ele><time>2026-04-04T14:48:31Z</time></trkpt><trkpt lat="37.81586706155808" lon="12.77550210626632"><ele>402.0</ele><time>2026-04-04T14:48:33Z</time></trkpt><trkpt lat="37.81587991737694" lon="12.77558943159095"><ele>402.1666666666667</ele><time>2026-04-04T14:48:35Z</time></trkpt><trkpt lat="37.81589751635142" lon="12.775702584978571"><ele>402.33333333333337</ele><time>2026-04-04T14:48:37Z</time></trkpt><trkpt lat="37.81592240144857" lon="12.775785532700647"><ele>402.5</ele><time>2026-04-04T14:48:39Z</time></trkpt><trkpt lat="37.81594126168712" lon="12.775908018244333"><ele>402.6666666666667</ele><time>2026-04-04T14:48:41Z</time></trkpt><trkpt lat="37.81598365651391" lon="12.776012483780528"><ele>402.83333333333337</ele><time>2026-04-04T14:48:43Z</time></trkpt><trkpt lat="37.816026201166196" lon="12.776092321160434"><ele>403.0</ele><time>2026-04-04T14:48:45Z</time></trkpt><trkpt lat="37.81605739283487" lon="12.776184912238557"><ele>403.00000000000006</ele><time>2026-04-04T14:48:48Z</time></trkpt><trkpt lat="37.81610647766487" lon="12.776246574584308"><ele>403.0</ele><time>2026-04-04T14:48:53Z</time></trkpt><trkpt lat="37.81617566925596" lon="12.776258423399376"><ele>403.0</ele><time>2026-04-04T14:48:56Z</time></trkpt><trkpt lat="37.81625206258857" lon="12.776257795618209"><ele>403.0</ele><time>2026-04-04T14:49:00Z</time></trkpt><trkpt lat="37.8162370513773" lon="12.776376897836837"><ele>403.00000000000006</ele><time>2026-04-04T14:49:11Z</time></trkpt><trkpt lat="37.81623692711687" lon="12.776473247444478"><ele>403.0</ele><time>2026-04-04T14:49:13Z</time></trkpt><trkpt lat="37.81627384584395" lon="12.776626240463408"><ele>403.0</ele><time>2026-04-04T14:49:15Z</time></trkpt><trkpt lat="37.816259186424105" lon="12.776763609881268"><ele>403.0</ele><time>2026-04-04T14:49:17Z</time></trkpt><trkpt lat="37.81623399916598" lon="12.776909624202851"><ele>403.0</ele><time>2026-04-04T14:49:19Z</time></trkpt><trkpt lat="37.81623187209851" lon="12.77698954574562"><ele>403.0</ele><time>2026-04-04T14:49:19.999Z</time></trkpt><trkpt lat="37.816279699311146" lon="12.777130646195095"><ele>403.0</ele><time>2026-04-04T14:49:21.999Z</time></trkpt><trkpt lat="37.81630957716539" lon="12.777253850179328"><ele>403.79999999999995</ele><time>2026-04-04T14:49:23.999Z</time></trkpt><trkpt lat="37.816342613276845" lon="12.777385870236683"><ele>404.6</ele><time>2026-04-04T14:49:25.999Z</time></trkpt><trkpt lat="37.8163793936028" lon="12.77751301336033"><ele>405.4</ele><time>2026-04-04T14:49:27.999Z</time></trkpt><trkpt lat="37.81639366765727" lon="12.777634507543368"><ele>406.20000000000005</ele><time>2026-04-04T14:49:29.999Z</time></trkpt><trkpt lat="37.81640311697484" lon="12.77775072092579"><ele>407.0</ele><time>2026-04-04T14:49:31.999Z</time></trkpt><trkpt lat="37.816412353138745" lon="12.777876912049985"><ele>408.8</ele><time>2026-04-04T14:49:33.999Z</time></trkpt><trkpt lat="37.81644232921842" lon="12.778009955733808"><ele>410.6</ele><time>2026-04-04T14:49:35.999Z</time></trkpt><trkpt lat="37.81647682268693" lon="12.778159796627266"><ele>412.40000000000003</ele><time>2026-04-04T14:49:37.999Z</time></trkpt><trkpt lat="37.81650966072753" lon="12.778259312304284"><ele>414.20000000000005</ele><time>2026-04-04T14:49:38.999Z</time></trkpt><trkpt lat="37.81653650250909" lon="12.778364667290068"><ele>416.0</ele><time>2026-04-04T14:49:39.999Z</time></trkpt><trkpt lat="37.816557918250595" lon="12.778460245186073"><ele>417.99999999999994</ele><time>2026-04-04T14:49:40.999Z</time></trkpt><trkpt lat="37.8165906384185" lon="12.778565506639826"><ele>420.0</ele><time>2026-04-04T14:49:41.999Z</time></trkpt><trkpt lat="37.816623678801044" lon="12.778672023859558"><ele>422.0</ele><time>2026-04-04T14:49:42.999Z</time></trkpt><trkpt lat="37.81665339851118" lon="12.778783190141954"><ele>424.0</ele><time>2026-04-04T14:49:43.999Z</time></trkpt><trkpt lat="37.816682289038305" lon="12.778874609783548"><ele>425.99999999999994</ele><time>2026-04-04T14:49:44.999Z</time></trkpt><trkpt lat="37.81671434181687" lon="12.778966603097736"><ele>428.0</ele><time>2026-04-04T14:49:45.999Z</time></trkpt><trkpt lat="37.81674559863663" lon="12.779064711899482"><ele>428.0</ele><time>2026-04-04T14:49:46.999Z</time></trkpt><trkpt lat="37.816774356881204" lon="12.7791598082533"><ele>427.99999999999994</ele><time>2026-04-04T14:49:47.999Z</time></trkpt><trkpt lat="37.816807604221246" lon="12.779271858503506"><ele>427.99999999999994</ele><time>2026-04-04T14:49:48.999Z</time></trkpt><trkpt lat="37.81683488089832" lon="12.779354015952363"><ele>428.0</ele><time>2026-04-04T14:49:49.999Z</time></trkpt><trkpt lat="37.816870691276506" lon="12.779452002834933"><ele>428.0</ele><time>2026-04-04T14:49:50.999Z</time></trkpt><trkpt lat="37.81693069097762" lon="12.779605614343842"><ele>427.79999999999995</ele><time>2026-04-04T14:49:52.999Z</time></trkpt><trkpt lat="37.816981110577416" lon="12.779736045023354"><ele>427.59999999999997</ele><time>2026-04-04T14:49:54.999Z</time></trkpt><trkpt lat="37.81703395883135" lon="12.77987969665317"><ele>427.40000000000003</ele><time>2026-04-04T14:49:56.999Z</time></trkpt><trkpt lat="37.817064556093676" lon="12.77996625986014"><ele>427.20000000000005</ele><time>2026-04-04T14:49:57.999Z</time></trkpt><trkpt lat="37.81710194477905" lon="12.780061845698725"><ele>427.0</ele><time>2026-04-04T14:49:58.999Z</time></trkpt><trkpt lat="37.81712738589979" lon="12.780138185677876"><ele>428.1666666666667</ele><time>2026-04-04T14:49:59.999Z</time></trkpt><trkpt lat="37.81717096236256" lon="12.780269679006594"><ele>429.33333333333337</ele><time>2026-04-04T14:50:01.999Z</time></trkpt><trkpt lat="37.81722718312183" lon="12.780345426740224"><ele>430.5</ele><time>2026-04-04T14:50:03.999Z</time></trkpt><trkpt lat="37.81727140134965" lon="12.78040272308721"><ele>431.66666666666663</ele><time>2026-04-04T14:50:05.999Z</time></trkpt><trkpt lat="37.817324936518524" lon="12.780465979259862"><ele>432.8333333333333</ele><time>2026-04-04T14:50:07.999Z</time></trkpt><trkpt lat="37.81739605168025" lon="12.780540901064665"><ele>434.0</ele><time>2026-04-04T14:50:10Z</time></trkpt><trkpt lat="37.81745604431448" lon="12.780626651291504"><ele>433.99999999999994</ele><time>2026-04-04T14:50:13Z</time></trkpt><trkpt lat="37.817553569799585" lon="12.780677242679175"><ele>434.0</ele><time>2026-04-04T14:50:16Z</time></trkpt><trkpt lat="37.81760929419298" lon="12.780728852353336"><ele>434.0</ele><time>2026-04-04T14:50:17Z</time></trkpt><trkpt lat="37.817662487300495" lon="12.78079193094592"><ele>434.0</ele><time>2026-04-04T14:50:20Z</time></trkpt><trkpt lat="37.81775515041582" lon="12.780860513324047"><ele>433.99999999999994</ele><time>2026-04-04T14:50:23Z</time></trkpt><trkpt lat="37.817827147444845" lon="12.780890399894533"><ele>434.0</ele><time>2026-04-04T14:50:26Z</time></trkpt><trkpt lat="37.81789556147617" lon="12.780863172136312"><ele>435.16666666666663</ele><time>2026-04-04T14:50:28Z</time></trkpt><trkpt lat="37.81796450750936" lon="12.780876154647254"><ele>436.3333333333333</ele><time>2026-04-04T14:50:30Z</time></trkpt><trkpt lat="37.81801889505483" lon="12.780939359791324"><ele>437.5</ele><time>2026-04-04T14:50:33Z</time></trkpt><trkpt lat="37.818017702933155" lon="12.781043407871167"><ele>438.66666666666663</ele><time>2026-04-04T14:50:35Z</time></trkpt><trkpt lat="37.81807923041696" lon="12.781071634188288"><ele>439.8333333333333</ele><time>2026-04-04T14:50:38Z</time></trkpt><trkpt lat="37.818144340896204" lon="12.781015957991537"><ele>441.0</ele><time>2026-04-04T14:50:40Z</time></trkpt><trkpt lat="37.818212160354676" lon="12.781111344726703"><ele>443.0</ele><time>2026-04-04T14:50:44Z</time></trkpt><trkpt lat="37.81826052167144" lon="12.78121422369333"><ele>445.0</ele><time>2026-04-04T14:50:46Z</time></trkpt><trkpt lat="37.81829265023445" lon="12.781341053430015"><ele>447.0</ele><time>2026-04-04T14:50:48Z</time></trkpt><trkpt lat="37.81833286235688" lon="12.781478928185088"><ele>449.0</ele><time>2026-04-04T14:50:50Z</time></trkpt><trkpt lat="37.81839715844693" lon="12.78154982471506"><ele>451.0</ele><time>2026-04-04T14:50:52Z</time></trkpt><trkpt lat="37.818483561821644" lon="12.781604892844713"><ele>451.6</ele><time>2026-04-04T14:50:54Z</time></trkpt><trkpt lat="37.81856946470333" lon="12.781669461548272"><ele>452.20000000000005</ele><time>2026-04-04T14:50:56Z</time></trkpt><trkpt lat="37.818625661348534" lon="12.781758898901497"><ele>452.79999999999995</ele><time>2026-04-04T14:50:58Z</time></trkpt><trkpt lat="37.81869970993113" lon="12.781856124904534"><ele>453.4</ele><time>2026-04-04T14:51:00Z</time></trkpt><trkpt lat="37.818755996136595" lon="12.781959818355572"><ele>454.0</ele><time>2026-04-04T14:51:03Z</time></trkpt><trkpt lat="37.818816155147225" lon="12.78201314752419"><ele>454.0</ele><time>2026-04-04T14:51:05Z</time></trkpt><trkpt lat="37.818854128714584" lon="12.78209907247994"><ele>454.00000000000006</ele><time>2026-04-04T14:51:07Z</time></trkpt><trkpt lat="37.818836905456" lon="12.782179467108435"><ele>454.0</ele><time>2026-04-04T14:51:26.999Z</time></trkpt><trkpt lat="37.81883445860998" lon="12.782084866402938"><ele>454.0</ele><time>2026-04-04T14:51:36.999Z</time></trkpt><trkpt lat="37.81879621121207" lon="12.78200200950184"><ele>454.00000000000006</ele><time>2026-04-04T14:51:39.999Z</time></trkpt><trkpt lat="37.818736978483784" lon="12.781945279118913"><ele>454.0</ele><time>2026-04-04T14:51:41.999Z</time></trkpt><trkpt lat="37.81868164041344" lon="12.781871759893168"><ele>454.0</ele><time>2026-04-04T14:51:44.999Z</time></trkpt><trkpt lat="37.81863941482751" lon="12.781801411849257"><ele>455.50000000000006</ele><time>2026-04-04T14:51:47.999Z</time></trkpt><trkpt lat="37.818565034974014" lon="12.78185991708089"><ele>457.0</ele><time>2026-04-04T14:51:52.999Z</time></trkpt><trkpt lat="37.818508807576876" lon="12.78195081986162"><ele>458.5</ele><time>2026-04-04T14:51:55.999Z</time></trkpt><trkpt lat="37.81847258835089" lon="12.782033990978842"><ele>460.0</ele><time>2026-04-04T14:52:02.999Z</time></trkpt><trkpt lat="37.81848456383078" lon="12.782124581347173"><ele>461.50000000000006</ele><time>2026-04-04T14:52:04.999Z</time></trkpt><trkpt lat="37.818519727590854" lon="12.78221968550023"><ele>463.0</ele><time>2026-04-04T14:52:07.999Z</time></trkpt><trkpt lat="37.81856037307824" lon="12.782308737393683"><ele>463.00000000000006</ele><time>2026-04-04T14:52:10.999Z</time></trkpt><trkpt lat="37.81856276217353" lon="12.782406866334956"><ele>463.0</ele><time>2026-04-04T14:52:13.999Z</time></trkpt><trkpt lat="37.81858092177654" lon="12.782497395172147"><ele>463.0</ele><time>2026-04-04T14:52:17Z</time></trkpt><trkpt lat="37.81858259495429" lon="12.782607335209743"><ele>463.0</ele><time>2026-04-04T14:52:20Z</time></trkpt><trkpt lat="37.818595286062006" lon="12.782691258705519"><ele>463.00000000000006</ele><time>2026-04-04T14:52:22Z</time></trkpt><trkpt lat="37.81858016361561" lon="12.782786819819645"><ele>463.0</ele><time>2026-04-04T14:52:25Z</time></trkpt><trkpt lat="37.81857191378017" lon="12.78287939264756"><ele>464.4285714285714</ele><time>2026-04-04T14:53:14Z</time></trkpt><trkpt lat="37.81857359356766" lon="12.782960104021443"><ele>465.8571428571428</ele><time>2026-04-04T14:53:16Z</time></trkpt><trkpt lat="37.818534093725916" lon="12.78306892900267"><ele>467.2857142857143</ele><time>2026-04-04T14:53:19Z</time></trkpt><trkpt lat="37.81850941472356" lon="12.78314260674339"><ele>468.71428571428567</ele><time>2026-04-04T14:53:21Z</time></trkpt><trkpt lat="37.8184733421891" lon="12.783244924877176"><ele>470.1428571428571</ele><time>2026-04-04T14:53:24Z</time></trkpt><trkpt lat="37.81846811150717" lon="12.783326097379357"><ele>471.57142857142856</ele><time>2026-04-04T14:53:27Z</time></trkpt><trkpt lat="37.81847011433176" lon="12.783420659997352"><ele>473.0</ele><time>2026-04-04T14:53:34.999Z</time></trkpt><trkpt lat="37.81854766302302" lon="12.783484918986044"><ele>475.3333333333333</ele><time>2026-04-04T14:53:50.999Z</time></trkpt><trkpt lat="37.818570828594474" lon="12.78355927942573"><ele>477.66666666666663</ele><time>2026-04-04T14:53:52.999Z</time></trkpt><trkpt lat="37.81858703901043" lon="12.7836866071537"><ele>480.0</ele><time>2026-04-04T14:53:55.999Z</time></trkpt><trkpt lat="37.818600806291045" lon="12.783788853510533"><ele>482.33333333333337</ele><time>2026-04-04T14:53:58.999Z</time></trkpt><trkpt lat="37.81861764361929" lon="12.783906714194641"><ele>484.6666666666667</ele><time>2026-04-04T14:54:01.999Z</time></trkpt><trkpt lat="37.81866132046995" lon="12.783979650077107"><ele>487.0</ele><time>2026-04-04T14:54:03.999Z</time></trkpt><trkpt lat="37.818715909583055" lon="12.784019547276692"><ele>487.0</ele><time>2026-04-04T14:54:05.999Z</time></trkpt><trkpt lat="37.81878292182649" lon="12.784048786164076"><ele>487.0</ele><time>2026-04-04T14:54:09.999Z</time></trkpt><trkpt lat="37.818847598634974" lon="12.784091739918523"><ele>487.0</ele><time>2026-04-04T14:54:13.999Z</time></trkpt><trkpt lat="37.81892881057263" lon="12.784091457673433"><ele>487.0</ele><time>2026-04-04T14:54:21Z</time></trkpt><trkpt lat="37.81899367052146" lon="12.784109460518781"><ele>487.0</ele><time>2026-04-04T14:54:24Z</time></trkpt><trkpt lat="37.81903346086472" lon="12.784186904321365"><ele>487.0</ele><time>2026-04-04T14:54:28Z</time></trkpt><trkpt lat="37.81906482645406" lon="12.784278281609218"><ele>487.0</ele><time>2026-04-04T14:54:41Z</time></trkpt><trkpt lat="37.81912907923386" lon="12.78429017295547"><ele>487.0</ele><time>2026-04-04T14:55:17Z</time></trkpt><trkpt lat="37.81911881520973" lon="12.78420474220894"><ele>487.0</ele><time>2026-04-04T14:55:38.999Z</time></trkpt><trkpt lat="37.81907569027034" lon="12.784140195860369"><ele>487.0</ele><time>2026-04-04T14:55:40.999Z</time></trkpt><trkpt lat="37.81903588737582" lon="12.784077523932712"><ele>487.0</ele><time>2026-04-04T14:55:43.999Z</time></trkpt><trkpt lat="37.81902526176293" lon="12.783998743678236"><ele>487.0</ele><time>2026-04-04T14:55:46.999Z</time></trkpt><trkpt lat="37.81895742937769" lon="12.78392521967589"><ele>487.0</ele><time>2026-04-04T14:55:50.999Z</time></trkpt><trkpt lat="37.8188816717301" lon="12.783888122909861"><ele>487.0</ele><time>2026-04-04T14:55:52.999Z</time></trkpt><trkpt lat="37.81882241710338" lon="12.783851776710934"><ele>487.00000000000006</ele><time>2026-04-04T14:55:54.999Z</time></trkpt><trkpt lat="37.81874726916225" lon="12.783847992767285"><ele>487.0</ele><time>2026-04-04T14:55:58.999Z</time></trkpt><trkpt lat="37.81869912375015" lon="12.783785512174932"><ele>487.0</ele><time>2026-04-04T14:56:04.999Z</time></trkpt><trkpt lat="37.818620453682634" lon="12.783744177702399"><ele>487.0</ele><time>2026-04-04T14:56:08.999Z</time></trkpt><trkpt lat="37.818600863597084" lon="12.783660065595491"><ele>487.00000000000006</ele><time>2026-04-04T14:56:10.999Z</time></trkpt><trkpt lat="37.81857325339402" lon="12.783535183408215"><ele>487.0</ele><time>2026-04-04T14:56:12.999Z</time></trkpt><trkpt lat="37.818530396649464" lon="12.783430804525343"><ele>484.83333333333337</ele><time>2026-04-04T14:56:14.999Z</time></trkpt><trkpt lat="37.81848285165171" lon="12.783355127159867"><ele>482.6666666666667</ele><time>2026-04-04T14:56:16.999Z</time></trkpt><trkpt lat="37.81845704369555" lon="12.783275077354556"><ele>480.5</ele><time>2026-04-04T14:56:20.999Z</time></trkpt><trkpt lat="37.818445257348436" lon="12.783163518603933"><ele>478.33333333333337</ele><time>2026-04-04T14:56:32Z</time></trkpt><trkpt lat="37.818449738371584" lon="12.783057166180665"><ele>476.1666666666667</ele><time>2026-04-04T14:56:35Z</time></trkpt><trkpt lat="37.818491669179515" lon="12.782965584967188"><ele>474.0</ele><time>2026-04-04T14:57:10Z</time></trkpt><trkpt lat="37.81855144510833" lon="12.782908637929104"><ele>473.8571428571428</ele><time>2026-04-04T14:57:14Z</time></trkpt><trkpt lat="37.81859648090716" lon="12.782850603723318"><ele>473.71428571428567</ele><time>2026-04-04T14:57:19Z</time></trkpt><trkpt lat="37.8185902117108" lon="12.782771230308633"><ele>473.57142857142856</ele><time>2026-04-04T14:57:24Z</time></trkpt><trkpt lat="37.81860124901348" lon="12.782671694838488"><ele>473.4285714285714</ele><time>2026-04-04T14:58:40Z</time></trkpt><trkpt lat="37.818593943852775" lon="12.782565934037672"><ele>473.2857142857142</ele><time>2026-04-04T14:58:43Z</time></trkpt><trkpt lat="37.8185878586996" lon="12.782485749932418"><ele>473.14285714285717</ele><time>2026-04-04T14:58:46Z</time></trkpt><trkpt lat="37.81857919658096" lon="12.78237906733944"><ele>473.0</ele><time>2026-04-04T14:58:50Z</time></trkpt><trkpt lat="37.81855720258926" lon="12.7822876934477"><ele>471.57142857142856</ele><time>2026-04-04T14:58:55Z</time></trkpt><trkpt lat="37.81852338881545" lon="12.782218877620618"><ele>470.1428571428571</ele><time>2026-04-04T14:58:59Z</time></trkpt><trkpt lat="37.818527362341435" lon="12.782134437833049"><ele>468.71428571428567</ele><time>2026-04-04T14:59:03Z</time></trkpt><trkpt lat="37.81852851477014" lon="12.78203166093328"><ele>467.2857142857143</ele><time>2026-04-04T14:59:15Z</time></trkpt><trkpt lat="37.81853331484735" lon="12.781945536931188"><ele>465.8571428571428</ele><time>2026-04-04T14:59:27Z</time></trkpt><trkpt lat="37.818574067377206" lon="12.781858651621944"><ele>464.4285714285714</ele><time>2026-04-04T14:59:30Z</time></trkpt><trkpt lat="37.81862276500196" lon="12.781795605811755"><ele>463.0</ele><time>2026-04-04T14:59:32Z</time></trkpt><trkpt lat="37.81859827261185" lon="12.781678612096375"><ele>461.50000000000006</ele><time>2026-04-04T14:59:35Z</time></trkpt><trkpt lat="37.81853282052043" lon="12.781616873814116"><ele>460.0</ele><time>2026-04-04T14:59:37Z</time></trkpt><trkpt lat="37.8184649844175" lon="12.781579117703028"><ele>458.5</ele><time>2026-04-04T14:59:39Z</time></trkpt><trkpt lat="37.81840420814879" lon="12.781542806311633"><ele>457.0</ele><time>2026-04-04T14:59:42Z</time></trkpt><trkpt lat="37.818351454847594" lon="12.78147122188833"><ele>455.50000000000006</ele><time>2026-04-04T14:59:44.999Z</time></trkpt><trkpt lat="37.81829361996767" lon="12.781371173156087"><ele>454.0</ele><time>2026-04-04T14:59:46.999Z</time></trkpt><trkpt lat="37.81826676789658" lon="12.781258598844179"><ele>453.50000000000006</ele><time>2026-04-04T14:59:48.999Z</time></trkpt><trkpt lat="37.81825058512677" lon="12.781175263191786"><ele>453.0</ele><time>2026-04-04T14:59:50.999Z</time></trkpt><trkpt lat="37.818212467685555" lon="12.781095201419724"><ele>452.5</ele><time>2026-04-04T14:59:52.999Z</time></trkpt><trkpt lat="37.81815815573525" lon="12.781191806536345"><ele>452.0</ele><time>2026-04-04T14:59:58.999Z</time></trkpt><trkpt lat="37.818121405914965" lon="12.7812667423243"><ele>451.50000000000006</ele><time>2026-04-04T15:00:00.999Z</time></trkpt><trkpt lat="37.818055473571775" lon="12.781330085655794"><ele>451.0</ele><time>2026-04-04T15:00:02.999Z</time></trkpt><trkpt lat="37.81798315139895" lon="12.78135935405943"><ele>451.00000000000006</ele><time>2026-04-04T15:00:04.999Z</time></trkpt><trkpt lat="37.81790415434205" lon="12.781405514169021"><ele>451.0</ele><time>2026-04-04T15:00:07.999Z</time></trkpt><trkpt lat="37.81784421365369" lon="12.781433760343177"><ele>451.0</ele><time>2026-04-04T15:00:09.999Z</time></trkpt><trkpt lat="37.8177665159848" lon="12.781500436082537"><ele>451.0</ele><time>2026-04-04T15:00:12.999Z</time></trkpt><trkpt lat="37.81767392111858" lon="12.781507159465315"><ele>451.00000000000006</ele><time>2026-04-04T15:00:15.999Z</time></trkpt><trkpt lat="37.81759376464593" lon="12.781520835413902"><ele>451.0</ele><time>2026-04-04T15:00:17.999Z</time></trkpt><trkpt lat="37.8175244969299" lon="12.781553581049437"><ele>451.33333333333337</ele><time>2026-04-04T15:00:19.999Z</time></trkpt><trkpt lat="37.817465034992644" lon="12.781630711470902"><ele>451.6666666666667</ele><time>2026-04-04T15:00:21.999Z</time></trkpt><trkpt lat="37.817426068271025" lon="12.781751675275228"><ele>452.0</ele><time>2026-04-04T15:00:23.999Z</time></trkpt><trkpt lat="37.81739641182036" lon="12.78184882819592"><ele>452.33333333333337</ele><time>2026-04-04T15:00:25.999Z</time></trkpt><trkpt lat="37.8173783396493" lon="12.781969475154614"><ele>452.6666666666667</ele><time>2026-04-04T15:00:27.999Z</time></trkpt><trkpt lat="37.81739048945556" lon="12.782063642778038"><ele>453.0</ele><time>2026-04-04T15:00:29.999Z</time></trkpt><trkpt lat="37.81741790326949" lon="12.782177593356824"><ele>453.0</ele><time>2026-04-04T15:00:31.999Z</time></trkpt><trkpt lat="37.81744452419293" lon="12.782299724160303"><ele>452.99999999999994</ele><time>2026-04-04T15:00:33.999Z</time></trkpt><trkpt lat="37.817473848034204" lon="12.782427548252707"><ele>452.99999999999994</ele><time>2026-04-04T15:00:35.999Z</time></trkpt><trkpt lat="37.81750571368538" lon="12.782539639947094"><ele>453.0</ele><time>2026-04-04T15:00:37.999Z</time></trkpt><trkpt lat="37.81753739326631" lon="12.782651270598526"><ele>453.0</ele><time>2026-04-04T15:00:40Z</time></trkpt><trkpt lat="37.817556868049984" lon="12.782771969784765"><ele>454.6666666666667</ele><time>2026-04-04T15:00:42Z</time></trkpt><trkpt lat="37.81754483964035" lon="12.78286873160187"><ele>456.33333333333337</ele><time>2026-04-04T15:00:44Z</time></trkpt><trkpt lat="37.81754678625936" lon="12.78295917734535"><ele>458.0</ele><time>2026-04-04T15:00:46Z</time></trkpt><trkpt lat="37.81756832587854" lon="12.783086578994107"><ele>459.6666666666667</ele><time>2026-04-04T15:00:48Z</time></trkpt><trkpt lat="37.81757910755362" lon="12.783241520904076"><ele>461.33333333333337</ele><time>2026-04-04T15:00:50Z</time></trkpt><trkpt lat="37.81759150418445" lon="12.783325256155226"><ele>463.0</ele><time>2026-04-04T15:00:51Z</time></trkpt><trkpt lat="37.81763352783421" lon="12.783470530325882"><ele>466.79999999999995</ele><time>2026-04-04T15:00:53Z</time></trkpt><trkpt lat="37.81765840618274" lon="12.783551299478678"><ele>470.59999999999997</ele><time>2026-04-04T15:00:54Z</time></trkpt><trkpt lat="37.817677173420925" lon="12.783642727989273"><ele>474.40000000000003</ele><time>2026-04-04T15:00:55Z</time></trkpt><trkpt lat="37.81770236072678" lon="12.783742729962444"><ele>478.20000000000005</ele><time>2026-04-04T15:00:56Z</time></trkpt><trkpt lat="37.817747752589774" lon="12.783902792302015"><ele>482.0</ele><time>2026-04-04T15:00:58Z</time></trkpt><trkpt lat="37.81777483825496" lon="12.78403955511122"><ele>481.99999999999994</ele><time>2026-04-04T15:01:00Z</time></trkpt><trkpt lat="37.817803657327666" lon="12.78419593919533"><ele>482.0</ele><time>2026-04-04T15:01:02Z</time></trkpt><trkpt lat="37.8178230754579" lon="12.784277322141675"><ele>482.0</ele><time>2026-04-04T15:01:03Z</time></trkpt><trkpt lat="37.817848323921446" lon="12.784358495144923"><ele>482.0</ele><time>2026-04-04T15:01:04Z</time></trkpt><trkpt lat="37.81789257405876" lon="12.784497099184456"><ele>481.99999999999994</ele><time>2026-04-04T15:01:06Z</time></trkpt><trkpt lat="37.81791241226495" lon="12.784573793071111"><ele>482.0</ele><time>2026-04-04T15:01:07Z</time></trkpt><trkpt lat="37.81794643314883" lon="12.784663018095152"><ele>481.28571428571433</ele><time>2026-04-04T15:01:08Z</time></trkpt><trkpt lat="37.81797963111102" lon="12.78476307401761"><ele>480.5714285714286</ele><time>2026-04-04T15:01:09Z</time></trkpt><trkpt lat="37.81801216798151" lon="12.784835816414727"><ele>479.8571428571429</ele><time>2026-04-04T15:01:10Z</time></trkpt><trkpt lat="37.818048115649546" lon="12.784921762956726"><ele>479.1428571428571</ele><time>2026-04-04T15:01:11Z</time></trkpt><trkpt lat="37.81807971622469" lon="12.785000492144592"><ele>478.4285714285714</ele><time>2026-04-04T15:01:12Z</time></trkpt><trkpt lat="37.81812909481685" lon="12.785082422195705"><ele>477.71428571428567</ele><time>2026-04-04T15:01:13Z</time></trkpt><trkpt lat="37.81815673133327" lon="12.785158144851508"><ele>477.0</ele><time>2026-04-04T15:01:14Z</time></trkpt><trkpt lat="37.81819378025307" lon="12.785254720930503"><ele>477.0</ele><time>2026-04-04T15:01:15Z</time></trkpt><trkpt lat="37.818215684006304" lon="12.785340036311574"><ele>477.0</ele><time>2026-04-04T15:01:16Z</time></trkpt><trkpt lat="37.81827679961911" lon="12.785446702371145"><ele>477.0</ele><time>2026-04-04T15:01:17Z</time></trkpt><trkpt lat="37.8183141235286" lon="12.78555051224237"><ele>477.0</ele><time>2026-04-04T15:01:18Z</time></trkpt><trkpt lat="37.81836318935725" lon="12.785626250939446"><ele>477.0</ele><time>2026-04-04T15:01:19Z</time></trkpt><trkpt lat="37.81841143277434" lon="12.785707780447582"><ele>477.0</ele><time>2026-04-04T15:01:20Z</time></trkpt><trkpt lat="37.81846986313201" lon="12.785788984415191"><ele>478.3333333333333</ele><time>2026-04-04T15:01:21Z</time></trkpt><trkpt lat="37.81850784792033" lon="12.78586780067511"><ele>479.66666666666663</ele><time>2026-04-04T15:01:22Z</time></trkpt><trkpt lat="37.81858389192085" lon="12.785954574451653"><ele>481.0</ele><time>2026-04-04T15:01:23Z</time></trkpt><trkpt lat="37.81861136871737" lon="12.786030782879072"><ele>482.3333333333333</ele><time>2026-04-04T15:01:24Z</time></trkpt><trkpt lat="37.81868956314593" lon="12.786161552131656"><ele>483.66666666666663</ele><time>2026-04-04T15:01:26Z</time></trkpt><trkpt lat="37.81874671295092" lon="12.786221903182849"><ele>485.0</ele><time>2026-04-04T15:01:27Z</time></trkpt><trkpt lat="37.818812519529416" lon="12.786303678179479"><ele>484.99999999999994</ele><time>2026-04-04T15:01:29Z</time></trkpt><trkpt lat="37.818894440567036" lon="12.786359704108426"><ele>485.0</ele><time>2026-04-04T15:01:34Z</time></trkpt><trkpt lat="37.81897121060642" lon="12.786367213631625"><ele>485.0</ele><time>2026-04-04T15:01:43Z</time></trkpt><trkpt lat="37.81902965095185" lon="12.786413440128632"><ele>485.0</ele><time>2026-04-04T15:01:44.999Z</time></trkpt><trkpt lat="37.8190860624168" lon="12.786487604929023"><ele>484.99999999999994</ele><time>2026-04-04T15:01:47.999Z</time></trkpt><trkpt lat="37.81912710155287" lon="12.78655282033225"><ele>485.0</ele><time>2026-04-04T15:01:49.999Z</time></trkpt><trkpt lat="37.81916420775784" lon="12.786623240435"><ele>484.99999999999994</ele><time>2026-04-04T15:01:51.999Z</time></trkpt><trkpt lat="37.819210790147906" lon="12.786708051746903"><ele>485.0</ele><time>2026-04-04T15:01:53.999Z</time></trkpt><trkpt lat="37.81928120198014" lon="12.78680455701753"><ele>485.0</ele><time>2026-04-04T15:01:55.999Z</time></trkpt><trkpt lat="37.81934645374198" lon="12.78688349629221"><ele>485.0</ele><time>2026-04-04T15:01:57.999Z</time></trkpt><trkpt lat="37.819427063432904" lon="12.78695912439096"><ele>484.99999999999994</ele><time>2026-04-04T15:01:59.999Z</time></trkpt><trkpt lat="37.819475765018105" lon="12.787017282642307"><ele>485.0</ele><time>2026-04-04T15:02:01.999Z</time></trkpt><trkpt lat="37.81953875881361" lon="12.787080462560002"><ele>486.2</ele><time>2026-04-04T15:02:03.999Z</time></trkpt><trkpt lat="37.81959874947402" lon="12.787149614203612"><ele>487.4</ele><time>2026-04-04T15:02:05.999Z</time></trkpt><trkpt lat="37.81966492121387" lon="12.787226347694626"><ele>488.6</ele><time>2026-04-04T15:02:07.999Z</time></trkpt><trkpt lat="37.81972231153345" lon="12.78731464873603"><ele>489.8</ele><time>2026-04-04T15:02:09.999Z</time></trkpt><trkpt lat="37.8197821057238" lon="12.787431168547252"><ele>491.0</ele><time>2026-04-04T15:02:11.999Z</time></trkpt><trkpt lat="37.819856848748735" lon="12.78755270694236"><ele>490.99999999999994</ele><time>2026-04-04T15:02:13.999Z</time></trkpt><trkpt lat="37.81994594378847" lon="12.787660462235058"><ele>491.0</ele><time>2026-04-04T15:02:15.999Z</time></trkpt><trkpt lat="37.82000880035297" lon="12.787709939447025"><ele>491.0</ele><time>2026-04-04T15:02:16.999Z</time></trkpt><trkpt lat="37.8200792824448" lon="12.7877258388879"><ele>491.0</ele><time>2026-04-04T15:02:17.999Z</time></trkpt><trkpt lat="37.8201424745801" lon="12.787776472648176"><ele>490.99999999999994</ele><time>2026-04-04T15:02:18.999Z</time></trkpt><trkpt lat="37.82020075632803" lon="12.787809285851823"><ele>491.0</ele><time>2026-04-04T15:02:19.999Z</time></trkpt><trkpt lat="37.82026022993308" lon="12.787860052207648"><ele>491.8333333333333</ele><time>2026-04-04T15:02:20.999Z</time></trkpt><trkpt lat="37.820307246832115" lon="12.787922735950088"><ele>492.66666666666663</ele><time>2026-04-04T15:02:21.999Z</time></trkpt><trkpt lat="37.82035091696808" lon="12.787987681731524"><ele>493.5</ele><time>2026-04-04T15:02:22.999Z</time></trkpt><trkpt lat="37.8203871668696" lon="12.788057252948404"><ele>494.33333333333337</ele><time>2026-04-04T15:02:23.999Z</time></trkpt><trkpt lat="37.820416057985184" lon="12.788136360171828"><ele>495.1666666666667</ele><time>2026-04-04T15:02:24.999Z</time></trkpt><trkpt lat="37.82042892268282" lon="12.788292354717857"><ele>496.0</ele><time>2026-04-04T15:02:26.999Z</time></trkpt><trkpt lat="37.8204414164044" lon="12.788376166616658"><ele>496.00000000000006</ele><time>2026-04-04T15:02:27.999Z</time></trkpt><trkpt lat="37.820460254979906" lon="12.788463447911552"><ele>496.0</ele><time>2026-04-04T15:02:28.999Z</time></trkpt><trkpt lat="37.82050549392586" lon="12.788576286358822"><ele>496.0</ele><time>2026-04-04T15:02:30.999Z</time></trkpt><trkpt lat="37.82056731536894" lon="12.788608036621264"><ele>496.0</ele><time>2026-04-04T15:02:31.999Z</time></trkpt><trkpt lat="37.82063436466879" lon="12.788593226447084"><ele>496.00000000000006</ele><time>2026-04-04T15:02:32.999Z</time></trkpt><trkpt lat="37.82069661500479" lon="12.788577544980528"><ele>496.0</ele><time>2026-04-04T15:02:35.999Z</time></trkpt><trkpt lat="37.82065736232613" lon="12.788416228508789"><ele>496.00000000000006</ele><time>2026-04-04T15:02:36.999Z</time></trkpt><trkpt lat="37.820653151261865" lon="12.788333563466992"><ele>496.0</ele><time>2026-04-04T15:02:37.999Z</time></trkpt><trkpt lat="37.82066231071724" lon="12.788236816698245"><ele>496.0</ele><time>2026-04-04T15:02:38.999Z</time></trkpt><trkpt lat="37.82065765594365" lon="12.788134649420655"><ele>496.0</ele><time>2026-04-04T15:02:39.999Z</time></trkpt><trkpt lat="37.82065915531584" lon="12.78802397440353"><ele>496.00000000000006</ele><time>2026-04-04T15:02:40.999Z</time></trkpt><trkpt lat="37.820656432721414" lon="12.787917221134403"><ele>496.0</ele><time>2026-04-04T15:02:41.999Z</time></trkpt><trkpt lat="37.82065075825078" lon="12.78779320540793"><ele>496.00000000000006</ele><time>2026-04-04T15:02:42.999Z</time></trkpt><trkpt lat="37.82065088180316" lon="12.787699483131007"><ele>496.0</ele><time>2026-04-04T15:02:43.999Z</time></trkpt><trkpt lat="37.82066247868502" lon="12.787608349789352"><ele>496.0</ele><time>2026-04-04T15:02:45Z</time></trkpt><trkpt lat="37.820665533879726" lon="12.787515134153118"><ele>496.0</ele><time>2026-04-04T15:02:46Z</time></trkpt><trkpt lat="37.82067055087502" lon="12.787407765186062"><ele>496.00000000000006</ele><time>2026-04-04T15:02:47Z</time></trkpt><trkpt lat="37.82069913857839" lon="12.787298271972322"><ele>496.0</ele><time>2026-04-04T15:02:48Z</time></trkpt><trkpt lat="37.82070566284887" lon="12.787192738188704"><ele>496.83333333333337</ele><time>2026-04-04T15:02:49Z</time></trkpt><trkpt lat="37.820769177971535" lon="12.787142086596692"><ele>497.6666666666667</ele><time>2026-04-04T15:02:51Z</time></trkpt><trkpt lat="37.82081578495416" lon="12.787223800007562"><ele>498.5</ele><time>2026-04-04T15:02:53Z</time></trkpt><trkpt lat="37.82088285915435" lon="12.787262622303707"><ele>499.33333333333337</ele><time>2026-04-04T15:02:54Z</time></trkpt><trkpt lat="37.820969963479406" lon="12.787302256663896"><ele>500.1666666666667</ele><time>2026-04-04T15:02:55Z</time></trkpt><trkpt lat="37.821065590194685" lon="12.787340042915714"><ele>501.0</ele><time>2026-04-04T15:02:56Z</time></trkpt><trkpt lat="37.82116245084504" lon="12.787401984250502"><ele>501.0</ele><time>2026-04-04T15:02:57Z</time></trkpt><trkpt lat="37.821256434252675" lon="12.787461570813038"><ele>501.0</ele><time>2026-04-04T15:02:58Z</time></trkpt><trkpt lat="37.82134378863879" lon="12.787513271191251"><ele>501.0</ele><time>2026-04-04T15:02:59Z</time></trkpt><trkpt lat="37.821415938282094" lon="12.787584280009888"><ele>501.0</ele><time>2026-04-04T15:03:00Z</time></trkpt><trkpt lat="37.821477907325736" lon="12.787650461810879"><ele>501.0</ele><time>2026-04-04T15:03:01Z</time></trkpt><trkpt lat="37.82155995347446" lon="12.78775608654082"><ele>501.0</ele><time>2026-04-04T15:03:03Z</time></trkpt><trkpt lat="37.82165346939654" lon="12.787897332795323"><ele>501.0</ele><time>2026-04-04T15:03:05Z</time></trkpt><trkpt lat="37.82171012665341" lon="12.787988820692982"><ele>501.0</ele><time>2026-04-04T15:03:06Z</time></trkpt><trkpt lat="37.82177041336556" lon="12.788087312050262"><ele>501.0</ele><time>2026-04-04T15:03:07Z</time></trkpt><trkpt lat="37.8218336878316" lon="12.788187711075107"><ele>501.0</ele><time>2026-04-04T15:03:08Z</time></trkpt><trkpt lat="37.82189199725353" lon="12.788287682673813"><ele>501.0</ele><time>2026-04-04T15:03:09Z</time></trkpt><trkpt lat="37.82193867756633" lon="12.788375608337912"><ele>501.0</ele><time>2026-04-04T15:03:10Z</time></trkpt><trkpt lat="37.821997511900435" lon="12.788485543045775"><ele>501.0</ele><time>2026-04-04T15:03:11Z</time></trkpt><trkpt lat="37.8220506704255" lon="12.788578942177866"><ele>501.0</ele><time>2026-04-04T15:03:12Z</time></trkpt><trkpt lat="37.822098787496344" lon="12.788656574047561"><ele>501.0</ele><time>2026-04-04T15:03:13Z</time></trkpt><trkpt lat="37.822154587881165" lon="12.7887443662396"><ele>501.0</ele><time>2026-04-04T15:03:14Z</time></trkpt><trkpt lat="37.822207204491605" lon="12.78882604023664"><ele>501.5</ele><time>2026-04-04T15:03:15Z</time></trkpt><trkpt lat="37.82225631687686" lon="12.788902274790303"><ele>502.0</ele><time>2026-04-04T15:03:16Z</time></trkpt><trkpt lat="37.82232004412682" lon="12.789003635999524"><ele>502.5</ele><time>2026-04-04T15:03:17Z</time></trkpt><trkpt lat="37.8223658822604" lon="12.789079006313113"><ele>503.0</ele><time>2026-04-04T15:03:18Z</time></trkpt><trkpt lat="37.82242410489678" lon="12.789136357122617"><ele>503.5</ele><time>2026-04-04T15:03:19Z</time></trkpt><trkpt lat="37.82248023773685" lon="12.7892266989719"><ele>504.0</ele><time>2026-04-04T15:03:21Z</time></trkpt><trkpt lat="37.822585454819766" lon="12.789169889400775"><ele>504.0</ele><time>2026-04-04T15:03:24Z</time></trkpt><trkpt lat="37.822637854650516" lon="12.789089898913069"><ele>504.0</ele><time>2026-04-04T15:03:25Z</time></trkpt><trkpt lat="37.822686722404114" lon="12.788987360497778"><ele>504.0</ele><time>2026-04-04T15:03:26Z</time></trkpt><trkpt lat="37.82274918134973" lon="12.788882730444142"><ele>504.0</ele><time>2026-04-04T15:03:27Z</time></trkpt><trkpt lat="37.822823427095614" lon="12.788800948906964"><ele>504.0</ele><time>2026-04-04T15:03:28Z</time></trkpt><trkpt lat="37.8228954234035" lon="12.78871795319794"><ele>504.6</ele><time>2026-04-04T15:03:29Z</time></trkpt><trkpt lat="37.82299107410837" lon="12.788648313059667"><ele>505.2</ele><time>2026-04-04T15:03:30Z</time></trkpt><trkpt lat="37.82305437307905" lon="12.788539028981091"><ele>505.80000000000007</ele><time>2026-04-04T15:03:31Z</time></trkpt><trkpt lat="37.82313434271444" lon="12.788447373990728"><ele>506.40000000000003</ele><time>2026-04-04T15:03:32Z</time></trkpt><trkpt lat="37.82320755678383" lon="12.78835929103293"><ele>507.0</ele><time>2026-04-04T15:03:33Z</time></trkpt><trkpt lat="37.82328999113292" lon="12.788257579329777"><ele>506.20000000000005</ele><time>2026-04-04T15:03:34Z</time></trkpt><trkpt lat="37.823367564335015" lon="12.788158098070124"><ele>505.40000000000003</ele><time>2026-04-04T15:03:35Z</time></trkpt><trkpt lat="37.82344126954833" lon="12.788052646550586"><ele>504.59999999999997</ele><time>2026-04-04T15:03:36Z</time></trkpt><trkpt lat="37.82351616290308" lon="12.787946649056549"><ele>503.79999999999995</ele><time>2026-04-04T15:03:37Z</time></trkpt><trkpt lat="37.823590874495615" lon="12.787840093052472"><ele>503.0</ele><time>2026-04-04T15:03:38Z</time></trkpt><trkpt lat="37.82367041881061" lon="12.78774956997926"><ele>500.4</ele><time>2026-04-04T15:03:39Z</time></trkpt><trkpt lat="37.823749386319875" lon="12.787657552783607"><ele>497.79999999999995</ele><time>2026-04-04T15:03:40Z</time></trkpt><trkpt lat="37.823831843785364" lon="12.787569174765633"><ele>495.2</ele><time>2026-04-04T15:03:41Z</time></trkpt><trkpt lat="37.823903617201445" lon="12.787483422485247"><ele>492.6</ele><time>2026-04-04T15:03:42Z</time></trkpt><trkpt lat="37.82398375120764" lon="12.7874038037317"><ele>490.0</ele><time>2026-04-04T15:03:43Z</time></trkpt><trkpt lat="37.82405477644279" lon="12.787328297763874"><ele>490.00000000000006</ele><time>2026-04-04T15:03:43.999Z</time></trkpt><trkpt lat="37.8241107422668" lon="12.787262093994446"><ele>490.0</ele><time>2026-04-04T15:03:44.999Z</time></trkpt><trkpt lat="37.824171683409865" lon="12.787213818494664"><ele>490.0</ele><time>2026-04-04T15:03:45.999Z</time></trkpt><trkpt lat="37.82423014966051" lon="12.787156122828204"><ele>490.0</ele><time>2026-04-04T15:03:46.999Z</time></trkpt><trkpt lat="37.82424781191572" lon="12.787014796964595"><ele>490.00000000000006</ele><time>2026-04-04T15:03:47.999Z</time></trkpt><trkpt lat="37.82429915230219" lon="12.7869348051599"><ele>490.0</ele><time>2026-04-04T15:03:48.999Z</time></trkpt><trkpt lat="37.82436878413136" lon="12.786852225592085"><ele>487.75</ele><time>2026-04-04T15:03:49.999Z</time></trkpt><trkpt lat="37.82444041571453" lon="12.78675128468607"><ele>485.5</ele><time>2026-04-04T15:03:50.999Z</time></trkpt><trkpt lat="37.8245307466902" lon="12.786675119394825"><ele>483.25</ele><time>2026-04-04T15:03:51.999Z</time></trkpt><trkpt lat="37.82461830532539" lon="12.786577562558916"><ele>481.0</ele><time>2026-04-04T15:03:52.999Z</time></trkpt><trkpt lat="37.82471528397885" lon="12.786468792203053"><ele>481.0</ele><time>2026-04-04T15:03:53.999Z</time></trkpt><trkpt lat="37.824807338455976" lon="12.786338442969688"><ele>481.0</ele><time>2026-04-04T15:03:54.999Z</time></trkpt><trkpt lat="37.82492249844607" lon="12.786227484358985"><ele>481.0</ele><time>2026-04-04T15:03:55.999Z</time></trkpt><trkpt lat="37.825056955416" lon="12.786086536970798"><ele>478.0</ele><time>2026-04-04T15:03:56.999Z</time></trkpt><trkpt lat="37.82517722711525" lon="12.785921731758423"><ele>475.0</ele><time>2026-04-04T15:03:57.999Z</time></trkpt><trkpt lat="37.825278127795436" lon="12.785773693561609"><ele>472.0</ele><time>2026-04-04T15:03:58.999Z</time></trkpt><trkpt lat="37.82537695083626" lon="12.785632150259763"><ele>472.0</ele><time>2026-04-04T15:03:59.999Z</time></trkpt><trkpt lat="37.825461951313045" lon="12.785502950572743"><ele>472.00000000000006</ele><time>2026-04-04T15:04:00.999Z</time></trkpt><trkpt lat="37.82553720214499" lon="12.78538644110181"><ele>472.00000000000006</ele><time>2026-04-04T15:04:01.999Z</time></trkpt><trkpt lat="37.825603443651644" lon="12.785287393157882"><ele>472.0</ele><time>2026-04-04T15:04:02.999Z</time></trkpt><trkpt lat="37.825669089725785" lon="12.785201260999804"><ele>472.0</ele><time>2026-04-04T15:04:03.999Z</time></trkpt><trkpt lat="37.82571521259036" lon="12.785132276338203"><ele>472.00000000000006</ele><time>2026-04-04T15:04:04.999Z</time></trkpt><trkpt lat="37.8257594874119" lon="12.785069364725155"><ele>472.0</ele><time>2026-04-04T15:04:05.999Z</time></trkpt><trkpt lat="37.825836864634084" lon="12.784933490289884"><ele>472.0</ele><time>2026-04-04T15:04:07.999Z</time></trkpt><trkpt lat="37.825884507649796" lon="12.784863188346264"><ele>472.0</ele><time>2026-04-04T15:04:08.999Z</time></trkpt><trkpt lat="37.82592842304153" lon="12.784781372137507"><ele>472.00000000000006</ele><time>2026-04-04T15:04:09.999Z</time></trkpt><trkpt lat="37.82597587221553" lon="12.784707364000095"><ele>472.0</ele><time>2026-04-04T15:04:10.999Z</time></trkpt><trkpt lat="37.82601787089762" lon="12.784644583439597"><ele>471.40000000000003</ele><time>2026-04-04T15:04:11.999Z</time></trkpt><trkpt lat="37.826103492149464" lon="12.784510722053426"><ele>470.80000000000007</ele><time>2026-04-04T15:04:13.999Z</time></trkpt><trkpt lat="37.82617165486113" lon="12.784427636881762"><ele>470.2</ele><time>2026-04-04T15:04:14.999Z</time></trkpt><trkpt lat="37.82626278832014" lon="12.78436076921587"><ele>469.6</ele><time>2026-04-04T15:04:15.999Z</time></trkpt><trkpt lat="37.826341976722226" lon="12.784288993697912"><ele>469.0</ele><time>2026-04-04T15:04:16.999Z</time></trkpt><trkpt lat="37.826414115558684" lon="12.784207224338738"><ele>469.0</ele><time>2026-04-04T15:04:17.999Z</time></trkpt><trkpt lat="37.82648480415764" lon="12.784138387262281"><ele>469.0</ele><time>2026-04-04T15:04:18.999Z</time></trkpt><trkpt lat="37.82654323768917" lon="12.784085364205877"><ele>469.0</ele><time>2026-04-04T15:04:19.999Z</time></trkpt><trkpt lat="37.82663340805995" lon="12.784016839450214"><ele>469.0</ele><time>2026-04-04T15:04:21.999Z</time></trkpt><trkpt lat="37.82672199141175" lon="12.783984929449785"><ele>469.0</ele><time>2026-04-04T15:04:28.999Z</time></trkpt><trkpt lat="37.82681250529338" lon="12.783851339387667"><ele>468.75</ele><time>2026-04-04T15:04:30.999Z</time></trkpt><trkpt lat="37.82685476540201" lon="12.783751092108039"><ele>468.5</ele><time>2026-04-04T15:04:31.999Z</time></trkpt><trkpt lat="37.82692351857198" lon="12.783617963043367"><ele>468.25</ele><time>2026-04-04T15:04:32.999Z</time></trkpt><trkpt lat="37.82700321457632" lon="12.78344874969313"><ele>468.0</ele><time>2026-04-04T15:04:33.999Z</time></trkpt><trkpt lat="37.8270852620017" lon="12.783292784261917"><ele>467.75</ele><time>2026-04-04T15:04:34.999Z</time></trkpt><trkpt lat="37.82715153259981" lon="12.783148998183114"><ele>467.5</ele><time>2026-04-04T15:04:35.999Z</time></trkpt><trkpt lat="37.82720065438051" lon="12.78303005671013"><ele>467.25</ele><time>2026-04-04T15:04:36.999Z</time></trkpt><trkpt lat="37.82725422348542" lon="12.78290797108101"><ele>467.0</ele><time>2026-04-04T15:04:37.999Z</time></trkpt><trkpt lat="37.82732364880018" lon="12.782792325500486"><ele>467.0</ele><time>2026-04-04T15:04:38.999Z</time></trkpt><trkpt lat="37.82741566433091" lon="12.78270416007948"><ele>467.0</ele><time>2026-04-04T15:04:39.999Z</time></trkpt><trkpt lat="37.827527935645236" lon="12.782625630266786"><ele>467.0</ele><time>2026-04-04T15:04:40.999Z</time></trkpt><trkpt lat="37.827651327044016" lon="12.782543881789742"><ele>467.0</ele><time>2026-04-04T15:04:41.999Z</time></trkpt><trkpt lat="37.82777355590057" lon="12.782452015530657"><ele>467.25</ele><time>2026-04-04T15:04:42.999Z</time></trkpt><trkpt lat="37.82788521596187" lon="12.78235325643864"><ele>467.5</ele><time>2026-04-04T15:04:43.999Z</time></trkpt><trkpt lat="37.827995024646256" lon="12.782238093960016"><ele>467.75</ele><time>2026-04-04T15:04:44.999Z</time></trkpt><trkpt lat="37.828091561240775" lon="12.782105589706285"><ele>468.0</ele><time>2026-04-04T15:04:45.999Z</time></trkpt><trkpt lat="37.82817458382034" lon="12.78195927107227"><ele>467.75</ele><time>2026-04-04T15:04:46.999Z</time></trkpt><trkpt lat="37.82824811683438" lon="12.78180318271212"><ele>467.5</ele><time>2026-04-04T15:04:47.999Z</time></trkpt><trkpt lat="37.82832287510846" lon="12.781642285864129"><ele>467.25</ele><time>2026-04-04T15:04:48.999Z</time></trkpt><trkpt lat="37.82839902823679" lon="12.781475769110068"><ele>467.0</ele><time>2026-04-04T15:04:49.999Z</time></trkpt><trkpt lat="37.82847812289719" lon="12.781310306248162"><ele>471.0</ele><time>2026-04-04T15:04:51Z</time></trkpt><trkpt lat="37.82855696023854" lon="12.781137150908277"><ele>475.0</ele><time>2026-04-04T15:04:52Z</time></trkpt><trkpt lat="37.82863773983756" lon="12.780965142490004"><ele>479.0</ele><time>2026-04-04T15:04:53Z</time></trkpt><trkpt lat="37.82871057355642" lon="12.780783631877943"><ele>479.0</ele><time>2026-04-04T15:04:54Z</time></trkpt><trkpt lat="37.82879432346766" lon="12.780609982091667"><ele>479.0</ele><time>2026-04-04T15:04:55Z</time></trkpt><trkpt lat="37.828879586066115" lon="12.780443002632245"><ele>479.0</ele><time>2026-04-04T15:04:56Z</time></trkpt><trkpt lat="37.8289563015527" lon="12.780281232070212"><ele>478.75</ele><time>2026-04-04T15:04:57Z</time></trkpt><trkpt lat="37.82902607712355" lon="12.780145518535981"><ele>478.5</ele><time>2026-04-04T15:04:58Z</time></trkpt><trkpt lat="37.82913410178071" lon="12.780045020170288"><ele>478.25</ele><time>2026-04-04T15:04:59Z</time></trkpt><trkpt lat="37.82923591858254" lon="12.779937176852997"><ele>478.0</ele><time>2026-04-04T15:05:00Z</time></trkpt><trkpt lat="37.829349547517914" lon="12.77984055514005"><ele>478.0</ele><time>2026-04-04T15:05:01Z</time></trkpt><trkpt lat="37.82946499065326" lon="12.779751173606256"><ele>478.0</ele><time>2026-04-04T15:05:02Z</time></trkpt><trkpt lat="37.82958658352661" lon="12.779660523420207"><ele>478.0</ele><time>2026-04-04T15:05:03Z</time></trkpt><trkpt lat="37.8296992920723" lon="12.779565907634566"><ele>478.0</ele><time>2026-04-04T15:05:04Z</time></trkpt><trkpt lat="37.8298191808573" lon="12.779485458234895"><ele>478.0</ele><time>2026-04-04T15:05:05Z</time></trkpt><trkpt lat="37.82993783592618" lon="12.779410297694678"><ele>478.0</ele><time>2026-04-04T15:05:06Z</time></trkpt><trkpt lat="37.83005223468021" lon="12.779339603404612"><ele>478.0</ele><time>2026-04-04T15:05:07Z</time></trkpt><trkpt lat="37.83016978936223" lon="12.779274458246537"><ele>478.0</ele><time>2026-04-04T15:05:08Z</time></trkpt><trkpt lat="37.83028561347273" lon="12.779207816495568"><ele>476.5</ele><time>2026-04-04T15:05:09Z</time></trkpt><trkpt lat="37.83041083627135" lon="12.77917052021742"><ele>475.0</ele><time>2026-04-04T15:05:10Z</time></trkpt><trkpt lat="37.83053212308596" lon="12.77912370224941"><ele>473.5</ele><time>2026-04-04T15:05:11Z</time></trkpt><trkpt lat="37.830647041848216" lon="12.77906962718524"><ele>472.0</ele><time>2026-04-04T15:05:12Z</time></trkpt><trkpt lat="37.830777734602044" lon="12.779027779168041"><ele>472.0</ele><time>2026-04-04T15:05:13Z</time></trkpt><trkpt lat="37.8308980403562" lon="12.778989435925299"><ele>472.0</ele><time>2026-04-04T15:05:14Z</time></trkpt><trkpt lat="37.83102903164292" lon="12.77895276186239"><ele>472.0</ele><time>2026-04-04T15:05:15Z</time></trkpt><trkpt lat="37.8311565886708" lon="12.778915971266374"><ele>472.0</ele><time>2026-04-04T15:05:16Z</time></trkpt><trkpt lat="37.831270066558" lon="12.77887387497556"><ele>472.0</ele><time>2026-04-04T15:05:17Z</time></trkpt><trkpt lat="37.83138807259295" lon="12.778828482066393"><ele>472.0</ele><time>2026-04-04T15:05:18Z</time></trkpt><trkpt lat="37.831497992044284" lon="12.778784670730738"><ele>472.0</ele><time>2026-04-04T15:05:19Z</time></trkpt><trkpt lat="37.83161640503188" lon="12.778751555214068"><ele>472.0</ele><time>2026-04-04T15:05:20Z</time></trkpt><trkpt lat="37.83173041897801" lon="12.778711631695527"><ele>470.25</ele><time>2026-04-04T15:05:21Z</time></trkpt><trkpt lat="37.83184510299173" lon="12.778685190266028"><ele>468.5</ele><time>2026-04-04T15:05:22Z</time></trkpt><trkpt lat="37.83196282902538" lon="12.778641966437052"><ele>466.75</ele><time>2026-04-04T15:05:23Z</time></trkpt><trkpt lat="37.832088517018896" lon="12.778605460677344"><ele>465.0</ele><time>2026-04-04T15:05:24Z</time></trkpt><trkpt lat="37.83220362271064" lon="12.778566210048654"><ele>465.0</ele><time>2026-04-04T15:05:25Z</time></trkpt><trkpt lat="37.83230911870637" lon="12.778546923463155"><ele>465.0</ele><time>2026-04-04T15:05:26Z</time></trkpt><trkpt lat="37.83242317801273" lon="12.778535222550829"><ele>465.0</ele><time>2026-04-04T15:05:27Z</time></trkpt><trkpt lat="37.83254058309108" lon="12.778537830155189"><ele>465.0</ele><time>2026-04-04T15:05:28Z</time></trkpt><trkpt lat="37.83265725132641" lon="12.778543236354368"><ele>464.5</ele><time>2026-04-04T15:05:29Z</time></trkpt><trkpt lat="37.832774980708834" lon="12.778541322581182"><ele>464.0</ele><time>2026-04-04T15:05:30Z</time></trkpt><trkpt lat="37.832889564801754" lon="12.778541492579674"><ele>463.5</ele><time>2026-04-04T15:05:31Z</time></trkpt><trkpt lat="37.83300561284882" lon="12.778552250194569"><ele>463.0</ele><time>2026-04-04T15:05:32Z</time></trkpt><trkpt lat="37.833119799386246" lon="12.778551877378048"><ele>463.0</ele><time>2026-04-04T15:05:33Z</time></trkpt><trkpt lat="37.8332381026646" lon="12.77855724055826"><ele>463.0</ele><time>2026-04-04T15:05:34Z</time></trkpt><trkpt lat="37.83335415026457" lon="12.778553413651508"><ele>463.0</ele><time>2026-04-04T15:05:35Z</time></trkpt><trkpt lat="37.83347100554408" lon="12.778555235146241"><ele>463.0</ele><time>2026-04-04T15:05:36Z</time></trkpt><trkpt lat="37.833583834359644" lon="12.778562706832908"><ele>461.59999999999997</ele><time>2026-04-04T15:05:37Z</time></trkpt><trkpt lat="37.833693711551476" lon="12.778597668099582"><ele>460.19999999999993</ele><time>2026-04-04T15:05:38Z</time></trkpt><trkpt lat="37.83379617545393" lon="12.778643833428028"><ele>458.8</ele><time>2026-04-04T15:05:39Z</time></trkpt><trkpt lat="37.83389496587843" lon="12.77870319626047"><ele>457.4</ele><time>2026-04-04T15:05:40Z</time></trkpt><trkpt lat="37.833979180106034" lon="12.77876927021631"><ele>456.0</ele><time>2026-04-04T15:05:41Z</time></trkpt><trkpt lat="37.834068712428376" lon="12.778855767583236"><ele>456.0</ele><time>2026-04-04T15:05:42Z</time></trkpt><trkpt lat="37.83414438340517" lon="12.77897089645838"><ele>456.0</ele><time>2026-04-04T15:05:43Z</time></trkpt><trkpt lat="37.8342247142712" lon="12.779087485157355"><ele>456.0</ele><time>2026-04-04T15:05:44Z</time></trkpt><trkpt lat="37.834313092624825" lon="12.779208034705112"><ele>456.0</ele><time>2026-04-04T15:05:45Z</time></trkpt><trkpt lat="37.834404932797945" lon="12.779322768612339"><ele>454.75</ele><time>2026-04-04T15:05:46Z</time></trkpt><trkpt lat="37.83450614119479" lon="12.779404548308554"><ele>453.5</ele><time>2026-04-04T15:05:47Z</time></trkpt><trkpt lat="37.83461506660105" lon="12.779491157048696"><ele>452.25</ele><time>2026-04-04T15:05:48Z</time></trkpt><trkpt lat="37.83471805176114" lon="12.779572353817992"><ele>451.0</ele><time>2026-04-04T15:05:48.999Z</time></trkpt><trkpt lat="37.83481563469819" lon="12.77964564047933"><ele>451.0</ele><time>2026-04-04T15:05:49.999Z</time></trkpt><trkpt lat="37.83491182698032" lon="12.779725383187904"><ele>451.0</ele><time>2026-04-04T15:05:50.999Z</time></trkpt><trkpt lat="37.835010810272486" lon="12.779793478209605"><ele>451.0</ele><time>2026-04-04T15:05:51.999Z</time></trkpt><trkpt lat="37.83509474042374" lon="12.77985065942625"><ele>451.0</ele><time>2026-04-04T15:05:52.999Z</time></trkpt><trkpt lat="37.83518110588354" lon="12.779881991057522"><ele>451.0</ele><time>2026-04-04T15:05:53.999Z</time></trkpt><trkpt lat="37.835278774731556" lon="12.779878979740413"><ele>449.8</ele><time>2026-04-04T15:05:54.999Z</time></trkpt><trkpt lat="37.83538206151181" lon="12.779827076225223"><ele>448.6</ele><time>2026-04-04T15:05:55.999Z</time></trkpt><trkpt lat="37.83547447417753" lon="12.779755715753934"><ele>447.4</ele><time>2026-04-04T15:05:56.999Z</time></trkpt><trkpt lat="37.835561579931586" lon="12.779684593833199"><ele>446.2</ele><time>2026-04-04T15:05:57.999Z</time></trkpt><trkpt lat="37.83565512101201" lon="12.779614109753759"><ele>445.0</ele><time>2026-04-04T15:05:58.999Z</time></trkpt><trkpt lat="37.835746800508424" lon="12.779537339765527"><ele>445.0</ele><time>2026-04-04T15:05:59.999Z</time></trkpt><trkpt lat="37.83584643185553" lon="12.779456353589119"><ele>445.0</ele><time>2026-04-04T15:06:00.999Z</time></trkpt><trkpt lat="37.83594161733779" lon="12.779366230994246"><ele>445.0</ele><time>2026-04-04T15:06:01.999Z</time></trkpt><trkpt lat="37.83601975088498" lon="12.779282325999175"><ele>445.0</ele><time>2026-04-04T15:06:02.999Z</time></trkpt><trkpt lat="37.83608076216814" lon="12.779220393611697"><ele>445.0</ele><time>2026-04-04T15:06:03.999Z</time></trkpt><trkpt lat="37.83613870955207" lon="12.779154742761294"><ele>446.6</ele><time>2026-04-04T15:06:04.999Z</time></trkpt><trkpt lat="37.83619021628438" lon="12.779083281776638"><ele>448.2</ele><time>2026-04-04T15:06:05.999Z</time></trkpt><trkpt lat="37.8362459273946" lon="12.779012362584892"><ele>449.79999999999995</ele><time>2026-04-04T15:06:06.999Z</time></trkpt><trkpt lat="37.83629973892208" lon="12.778929791674248"><ele>451.4</ele><time>2026-04-04T15:06:07.999Z</time></trkpt><trkpt lat="37.83637603701864" lon="12.778833996401442"><ele>453.0</ele><time>2026-04-04T15:06:08.999Z</time></trkpt><trkpt lat="37.83646601220478" lon="12.778735803398778"><ele>453.0</ele><time>2026-04-04T15:06:09.999Z</time></trkpt><trkpt lat="37.836557629204165" lon="12.77866256033348"><ele>452.99999999999994</ele><time>2026-04-04T15:06:10.999Z</time></trkpt><trkpt lat="37.83665504999362" lon="12.778606047549971"><ele>452.99999999999994</ele><time>2026-04-04T15:06:11.999Z</time></trkpt><trkpt lat="37.83674885544337" lon="12.778552291292321"><ele>453.0</ele><time>2026-04-04T15:06:12.999Z</time></trkpt><trkpt lat="37.83684232901131" lon="12.778484034817668"><ele>453.0</ele><time>2026-04-04T15:06:13.999Z</time></trkpt><trkpt lat="37.83692332027827" lon="12.778419966316513"><ele>452.59999999999997</ele><time>2026-04-04T15:06:14.999Z</time></trkpt><trkpt lat="37.836997615895896" lon="12.778358942985328"><ele>452.19999999999993</ele><time>2026-04-04T15:06:15.999Z</time></trkpt><trkpt lat="37.837068836581686" lon="12.778289648590096"><ele>451.8</ele><time>2026-04-04T15:06:16.999Z</time></trkpt><trkpt lat="37.837126354476815" lon="12.778209185621984"><ele>451.4</ele><time>2026-04-04T15:06:17.999Z</time></trkpt><trkpt lat="37.83717908484095" lon="12.77811947954269"><ele>451.0</ele><time>2026-04-04T15:06:18.999Z</time></trkpt><trkpt lat="37.83724331762327" lon="12.778021414520618"><ele>451.0</ele><time>2026-04-04T15:06:19.999Z</time></trkpt><trkpt lat="37.8373143797959" lon="12.777900521539713"><ele>451.0</ele><time>2026-04-04T15:06:20.999Z</time></trkpt><trkpt lat="37.837400807744224" lon="12.777782103490567"><ele>451.0</ele><time>2026-04-04T15:06:21.999Z</time></trkpt><trkpt lat="37.83747853550882" lon="12.777670766946562"><ele>451.0</ele><time>2026-04-04T15:06:22.999Z</time></trkpt><trkpt lat="37.83754708962472" lon="12.777580077386629"><ele>451.0</ele><time>2026-04-04T15:06:23.999Z</time></trkpt><trkpt lat="37.83760974547964" lon="12.777522656177936"><ele>451.0</ele><time>2026-04-04T15:06:24.999Z</time></trkpt><trkpt lat="37.83767447857115" lon="12.777502537814561"><ele>451.0</ele><time>2026-04-04T15:06:25.999Z</time></trkpt><trkpt lat="37.83783197735104" lon="12.777601383165498"><ele>451.0</ele><time>2026-04-04T15:06:27.999Z</time></trkpt><trkpt lat="37.8379411408592" lon="12.777582902565921"><ele>451.0</ele><time>2026-04-04T15:06:28.999Z</time></trkpt><trkpt lat="37.838052357234346" lon="12.777534581680465"><ele>451.0</ele><time>2026-04-04T15:06:29.999Z</time></trkpt><trkpt lat="37.838180383419186" lon="12.777443646022334"><ele>451.0</ele><time>2026-04-04T15:06:30.999Z</time></trkpt><trkpt lat="37.83833153797434" lon="12.777337682508136"><ele>451.0</ele><time>2026-04-04T15:06:31.999Z</time></trkpt><trkpt lat="37.83850933585315" lon="12.777217081519504"><ele>453.0</ele><time>2026-04-04T15:06:32.999Z</time></trkpt><trkpt lat="37.83868833589527" lon="12.777079076621767"><ele>455.0</ele><time>2026-04-04T15:06:33.999Z</time></trkpt><trkpt lat="37.83884226636843" lon="12.776963478086158"><ele>457.0</ele><time>2026-04-04T15:06:34.999Z</time></trkpt><trkpt lat="37.83899926669717" lon="12.776908350921769"><ele>457.0</ele><time>2026-04-04T15:06:35.999Z</time></trkpt><trkpt lat="37.83914381695037" lon="12.776878916733585"><ele>457.0</ele><time>2026-04-04T15:06:36.999Z</time></trkpt><trkpt lat="37.83928133431621" lon="12.776846219700024"><ele>457.0</ele><time>2026-04-04T15:06:37.999Z</time></trkpt><trkpt lat="37.83941466888466" lon="12.776876969262856"><ele>457.0</ele><time>2026-04-04T15:06:38.999Z</time></trkpt><trkpt lat="37.83954283399342" lon="12.776895591168353"><ele>456.5</ele><time>2026-04-04T15:06:39.999Z</time></trkpt><trkpt lat="37.839658194092436" lon="12.776960775542658"><ele>456.0</ele><time>2026-04-04T15:06:40.999Z</time></trkpt><trkpt lat="37.83979285734391" lon="12.777039971740278"><ele>455.5</ele><time>2026-04-04T15:06:41.999Z</time></trkpt><trkpt lat="37.83992209866479" lon="12.777133290674069"><ele>455.0</ele><time>2026-04-04T15:06:42.999Z</time></trkpt><trkpt lat="37.84007430130693" lon="12.777237883623618"><ele>453.0</ele><time>2026-04-04T15:06:43.999Z</time></trkpt><trkpt lat="37.84023368382822" lon="12.777344735634404"><ele>451.0</ele><time>2026-04-04T15:06:44.999Z</time></trkpt><trkpt lat="37.840397493440584" lon="12.77743237000836"><ele>449.0</ele><time>2026-04-04T15:06:45.999Z</time></trkpt><trkpt lat="37.84053760328346" lon="12.777547579461904"><ele>449.0</ele><time>2026-04-04T15:06:46.999Z</time></trkpt><trkpt lat="37.84068193291797" lon="12.777631786675519"><ele>449.0</ele><time>2026-04-04T15:06:47.999Z</time></trkpt><trkpt lat="37.84078830250765" lon="12.777766386613909"><ele>449.0</ele><time>2026-04-04T15:06:48.999Z</time></trkpt><trkpt lat="37.84090355869384" lon="12.777886587535336"><ele>445.66666666666663</ele><time>2026-04-04T15:06:49.999Z</time></trkpt><trkpt lat="37.841016653681514" lon="12.778023991334353"><ele>442.33333333333337</ele><time>2026-04-04T15:06:50.999Z</time></trkpt><trkpt lat="37.841121204030216" lon="12.778158292412474"><ele>439.0</ele><time>2026-04-04T15:06:51.999Z</time></trkpt><trkpt lat="37.841227650585395" lon="12.778296535787343"><ele>439.0</ele><time>2026-04-04T15:06:52.999Z</time></trkpt><trkpt lat="37.841328187801174" lon="12.778427582567316"><ele>439.0</ele><time>2026-04-04T15:06:53.999Z</time></trkpt><trkpt lat="37.84143689652247" lon="12.778567195740775"><ele>439.0</ele><time>2026-04-04T15:06:54.999Z</time></trkpt><trkpt lat="37.841542204604075" lon="12.778687668093355"><ele>439.0</ele><time>2026-04-04T15:06:55.999Z</time></trkpt><trkpt lat="37.84167188531794" lon="12.778793323916634"><ele>440.0</ele><time>2026-04-04T15:06:57Z</time></trkpt><trkpt lat="37.841795382174006" lon="12.778899054196797"><ele>441.0</ele><time>2026-04-04T15:06:58Z</time></trkpt><trkpt lat="37.84190962360936" lon="12.779012853846872"><ele>442.0</ele><time>2026-04-04T15:06:59Z</time></trkpt><trkpt lat="37.84204898131846" lon="12.77908378335286"><ele>443.0</ele><time>2026-04-04T15:07:00Z</time></trkpt><trkpt lat="37.84218347738511" lon="12.779152513833463"><ele>443.0</ele><time>2026-04-04T15:07:01Z</time></trkpt><trkpt lat="37.842330855883084" lon="12.77921006536112"><ele>443.0</ele><time>2026-04-04T15:07:02Z</time></trkpt><trkpt lat="37.84248207894261" lon="12.779256780330956"><ele>443.0</ele><time>2026-04-04T15:07:03Z</time></trkpt><trkpt lat="37.842626814875224" lon="12.779299443298683"><ele>447.3333333333333</ele><time>2026-04-04T15:07:04Z</time></trkpt><trkpt lat="37.84277472037043" lon="12.77936074320107"><ele>451.66666666666663</ele><time>2026-04-04T15:07:05Z</time></trkpt><trkpt lat="37.84291278004746" lon="12.779406210128196"><ele>456.0</ele><time>2026-04-04T15:07:06Z</time></trkpt><trkpt lat="37.84306804844319" lon="12.779425950873181"><ele>456.0</ele><time>2026-04-04T15:07:07Z</time></trkpt><trkpt lat="37.84319290685171" lon="12.779415613228455"><ele>456.0</ele><time>2026-04-04T15:07:08Z</time></trkpt><trkpt lat="37.84334441834436" lon="12.779371469646597"><ele>456.0</ele><time>2026-04-04T15:07:09Z</time></trkpt><trkpt lat="37.84348787377686" lon="12.779309506865044"><ele>456.0</ele><time>2026-04-04T15:07:10Z</time></trkpt><trkpt lat="37.843624389763164" lon="12.77923071326952"><ele>456.66666666666663</ele><time>2026-04-04T15:07:11Z</time></trkpt><trkpt lat="37.84375955763631" lon="12.779124828350794"><ele>457.3333333333333</ele><time>2026-04-04T15:07:12Z</time></trkpt><trkpt lat="37.843884529946806" lon="12.779011776220537"><ele>458.0</ele><time>2026-04-04T15:07:13Z</time></trkpt><trkpt lat="37.84399903116316" lon="12.77888340015275"><ele>458.0</ele><time>2026-04-04T15:07:14Z</time></trkpt><trkpt lat="37.844106463711775" lon="12.778749108810095"><ele>458.0</ele><time>2026-04-04T15:07:15Z</time></trkpt><trkpt lat="37.84418711177323" lon="12.77857228167138"><ele>458.0</ele><time>2026-04-04T15:07:16Z</time></trkpt><trkpt lat="37.84427056736477" lon="12.7783859049568"><ele>458.0</ele><time>2026-04-04T15:07:17Z</time></trkpt><trkpt lat="37.84434497964967" lon="12.778232729715683"><ele>458.0</ele><time>2026-04-04T15:07:18Z</time></trkpt><trkpt lat="37.84442663776346" lon="12.778086135365394"><ele>458.0</ele><time>2026-04-04T15:07:19Z</time></trkpt><trkpt lat="37.84451399227043" lon="12.777962312834628"><ele>458.0</ele><time>2026-04-04T15:07:20Z</time></trkpt><trkpt lat="37.84460191716458" lon="12.777852295090455"><ele>457.99999999999994</ele><time>2026-04-04T15:07:21Z</time></trkpt><trkpt lat="37.84466958003818" lon="12.77776251479835"><ele>458.0</ele><time>2026-04-04T15:07:22Z</time></trkpt><trkpt lat="37.84472100618272" lon="12.777680014584796"><ele>458.0</ele><time>2026-04-04T15:07:23Z</time></trkpt><trkpt lat="37.84476725556756" lon="12.77759399798954"><ele>458.0</ele><time>2026-04-04T15:07:25Z</time></trkpt><trkpt lat="37.844697587233775" lon="12.777533495912479"><ele>457.99999999999994</ele><time>2026-04-04T15:07:26Z</time></trkpt><trkpt lat="37.84462295410438" lon="12.77748130809146"><ele>458.0</ele><time>2026-04-04T15:07:27Z</time></trkpt><trkpt lat="37.844535306500305" lon="12.777404910785835"><ele>456.99999999999994</ele><time>2026-04-04T15:07:28Z</time></trkpt><trkpt lat="37.844472722609204" lon="12.777320158450516"><ele>456.0</ele><time>2026-04-04T15:07:29Z</time></trkpt><trkpt lat="37.84439030785993" lon="12.777238349580719"><ele>455.0</ele><time>2026-04-04T15:07:30Z</time></trkpt><trkpt lat="37.84432565300965" lon="12.777171460432342"><ele>454.0</ele><time>2026-04-04T15:07:31Z</time></trkpt><trkpt lat="37.84427606985972" lon="12.777120433701336"><ele>452.99999999999994</ele><time>2026-04-04T15:07:35Z</time></trkpt><trkpt lat="37.84420644041145" lon="12.777074114388515"><ele>452.0</ele><time>2026-04-04T15:10:00Z</time></trkpt><trkpt lat="37.844234941040085" lon="12.777001732108214"><ele>451.99999999999994</ele><time>2026-04-04T15:11:26Z</time></trkpt><trkpt lat="37.844251792954395" lon="12.776879586979794"><ele>452.0</ele><time>2026-04-04T15:11:32Z</time></trkpt><trkpt lat="37.84429726194404" lon="12.777023082610942"><ele>452.0</ele><time>2026-04-04T15:11:49Z</time></trkpt><trkpt lat="37.84429412042722" lon="12.776943434120255"><ele>452.0</ele><time>2026-04-04T15:12:21.999Z</time></trkpt><trkpt lat="37.844213537080634" lon="12.77691424336857"><ele>451.99999999999994</ele><time>2026-04-04T15:12:43.999Z</time></trkpt><trkpt lat="37.84422267067736" lon="12.776995856495232"><ele>452.0</ele><time>2026-04-04T15:17:05.999Z</time></trkpt><trkpt lat="37.84421711931683" lon="12.777077746152154"><ele>452.0</ele><time>2026-04-04T15:17:15.999Z</time></trkpt><trkpt lat="37.84425035407818" lon="12.777151180336913"><ele>452.0</ele><time>2026-04-04T15:17:37Z</time></trkpt><trkpt lat="37.844314122324924" lon="12.777180614928849"><ele>452.0</ele><time>2026-04-04T15:17:48Z</time></trkpt><trkpt lat="37.84436365049187" lon="12.777125011893926"><ele>452.0</ele><time>2026-04-04T15:18:06Z</time></trkpt><trkpt lat="37.84429646579206" lon="12.777193293965194"><ele>452.0</ele><time>2026-04-04T15:23:32.999Z</time></trkpt><trkpt lat="37.844244678804195" lon="12.77711827852293"><ele>452.0</ele><time>2026-04-04T15:24:25Z</time></trkpt><trkpt lat="37.84430520847386" lon="12.777156910381914"><ele>452.0</ele><time>2026-04-04T15:30:01.999Z</time></trkpt><trkpt lat="37.84439055907026" lon="12.777198292561842"><ele>452.0</ele><time>2026-04-04T15:30:04Z</time></trkpt><trkpt lat="37.844452709965886" lon="12.777265050648397"><ele>452.00000000000006</ele><time>2026-04-04T15:30:05Z</time></trkpt><trkpt lat="37.84453813954341" lon="12.77735474229164"><ele>452.00000000000006</ele><time>2026-04-04T15:30:06Z</time></trkpt><trkpt lat="37.844635204388055" lon="12.77744082453352"><ele>452.0</ele><time>2026-04-04T15:30:07Z</time></trkpt><trkpt lat="37.84471906758202" lon="12.777506363519459"><ele>452.0</ele><time>2026-04-04T15:30:08Z</time></trkpt><trkpt lat="37.84477735655211" lon="12.77755116536629"><ele>452.0</ele><time>2026-04-04T15:30:09Z</time></trkpt><trkpt lat="37.84473575321245" lon="12.77764974799964"><ele>452.00000000000006</ele><time>2026-04-04T15:30:11Z</time></trkpt><trkpt lat="37.844678174375616" lon="12.777719879108858"><ele>452.00000000000006</ele><time>2026-04-04T15:30:12Z</time></trkpt><trkpt lat="37.84460094046777" lon="12.77782014483596"><ele>452.0</ele><time>2026-04-04T15:30:13Z</time></trkpt><trkpt lat="37.84449636637976" lon="12.777964625858493"><ele>452.0</ele><time>2026-04-04T15:30:14Z</time></trkpt><trkpt lat="37.84438097154863" lon="12.778150663734875"><ele>452.0</ele><time>2026-04-04T15:30:15Z</time></trkpt><trkpt lat="37.84426072993159" lon="12.778356257712158"><ele>452.0</ele><time>2026-04-04T15:30:16Z</time></trkpt><trkpt lat="37.844143945273764" lon="12.778573005761722"><ele>452.0</ele><time>2026-04-04T15:30:17Z</time></trkpt><trkpt lat="37.84406629492116" lon="12.778748272533539"><ele>453.5</ele><time>2026-04-04T15:30:18Z</time></trkpt><trkpt lat="37.843975954842456" lon="12.77887914930689"><ele>455.0</ele><time>2026-04-04T15:30:19Z</time></trkpt><trkpt lat="37.84388379567469" lon="12.77898825400381"><ele>456.5</ele><time>2026-04-04T15:30:20Z</time></trkpt><trkpt lat="37.84378414657224" lon="12.779086055906163"><ele>458.0</ele><time>2026-04-04T15:30:21Z</time></trkpt><trkpt lat="37.8436808560634" lon="12.779171879013742"><ele>458.0</ele><time>2026-04-04T15:30:22Z</time></trkpt><trkpt lat="37.84357465546799" lon="12.779255284404082"><ele>458.0</ele><time>2026-04-04T15:30:23Z</time></trkpt><trkpt lat="37.843467663009996" lon="12.779301254973301"><ele>458.0</ele><time>2026-04-04T15:30:24Z</time></trkpt><trkpt lat="37.84334078899642" lon="12.779342485173231"><ele>458.0</ele><time>2026-04-04T15:30:25Z</time></trkpt><trkpt lat="37.843217709815846" lon="12.779377776804624"><ele>457.5</ele><time>2026-04-04T15:30:26Z</time></trkpt><trkpt lat="37.84309721924588" lon="12.779400215487671"><ele>457.0</ele><time>2026-04-04T15:30:27Z</time></trkpt><trkpt lat="37.84298541299494" lon="12.779397760643757"><ele>456.5</ele><time>2026-04-04T15:30:28Z</time></trkpt><trkpt lat="37.84287302625563" lon="12.779364911267084"><ele>456.0</ele><time>2026-04-04T15:30:29Z</time></trkpt><trkpt lat="37.84277182805901" lon="12.7793305908148"><ele>454.6</ele><time>2026-04-04T15:30:30Z</time></trkpt><trkpt lat="37.84265981246532" lon="12.779296173320258"><ele>453.20000000000005</ele><time>2026-04-04T15:30:31Z</time></trkpt><trkpt lat="37.84256115321055" lon="12.779254938688604"><ele>451.79999999999995</ele><time>2026-04-04T15:30:32Z</time></trkpt><trkpt lat="37.84246758360151" lon="12.77922241908753"><ele>450.4</ele><time>2026-04-04T15:30:33Z</time></trkpt><trkpt lat="37.84237372186569" lon="12.779181987639463"><ele>449.0</ele><time>2026-04-04T15:30:34Z</time></trkpt><trkpt lat="37.84227302450101" lon="12.779146467582208"><ele>447.79999999999995</ele><time>2026-04-04T15:30:35Z</time></trkpt><trkpt lat="37.84217152212565" lon="12.779108720716712"><ele>446.59999999999997</ele><time>2026-04-04T15:30:36Z</time></trkpt><trkpt lat="37.84206743926253" lon="12.779075634549576"><ele>445.4</ele><time>2026-04-04T15:30:37Z</time></trkpt><trkpt lat="37.841971157711775" lon="12.779030973539117"><ele>444.2</ele><time>2026-04-04T15:30:38Z</time></trkpt><trkpt lat="37.84186983406189" lon="12.778971752466147"><ele>443.0</ele><time>2026-04-04T15:30:39Z</time></trkpt><trkpt lat="37.84178426351407" lon="12.77887398192093"><ele>443.0</ele><time>2026-04-04T15:30:40Z</time></trkpt><trkpt lat="37.84169347315557" lon="12.778783777948304"><ele>443.0</ele><time>2026-04-04T15:30:41Z</time></trkpt><trkpt lat="37.84157849865486" lon="12.778674770708276"><ele>443.0</ele><time>2026-04-04T15:30:42Z</time></trkpt><trkpt lat="37.84147266690439" lon="12.778572369523038"><ele>443.0</ele><time>2026-04-04T15:30:43Z</time></trkpt><trkpt lat="37.84139299050421" lon="12.778451599003013"><ele>442.0</ele><time>2026-04-04T15:30:44Z</time></trkpt><trkpt lat="37.84130483130992" lon="12.778339173862607"><ele>441.0</ele><time>2026-04-04T15:30:45Z</time></trkpt><trkpt lat="37.84122796622879" lon="12.778200848665676"><ele>440.0</ele><time>2026-04-04T15:30:46Z</time></trkpt><trkpt lat="37.84113990701856" lon="12.778070964705801"><ele>439.0</ele><time>2026-04-04T15:30:47Z</time></trkpt><trkpt lat="37.84104100847278" lon="12.777950368595114"><ele>441.0</ele><time>2026-04-04T15:30:48Z</time></trkpt><trkpt lat="37.84093889087977" lon="12.777826110105286"><ele>443.0</ele><time>2026-04-04T15:30:49Z</time></trkpt><trkpt lat="37.840831694985354" lon="12.777719189648563"><ele>445.0</ele><time>2026-04-04T15:30:50Z</time></trkpt><trkpt lat="37.84072046168253" lon="12.777620037041771"><ele>447.0</ele><time>2026-04-04T15:30:51Z</time></trkpt><trkpt lat="37.84062079008225" lon="12.777531825645179"><ele>447.40000000000003</ele><time>2026-04-04T15:30:52Z</time></trkpt><trkpt lat="37.840514416224316" lon="12.777452304121068"><ele>447.80000000000007</ele><time>2026-04-04T15:30:53Z</time></trkpt><trkpt lat="37.840420608866005" lon="12.777389350836371"><ele>448.2</ele><time>2026-04-04T15:30:53.999Z</time></trkpt><trkpt lat="37.84033908691948" lon="12.777333440045478"><ele>448.6</ele><time>2026-04-04T15:30:54.999Z</time></trkpt><trkpt lat="37.84026357644686" lon="12.777290101011902"><ele>449.0</ele><time>2026-04-04T15:30:55.999Z</time></trkpt><trkpt lat="37.840187666799174" lon="12.777258352928493"><ele>449.99999999999994</ele><time>2026-04-04T15:30:56.999Z</time></trkpt><trkpt lat="37.84007842741179" lon="12.777194557559836"><ele>451.0</ele><time>2026-04-04T15:30:58.999Z</time></trkpt><trkpt lat="37.840020430200184" lon="12.777156956752217"><ele>452.0</ele><time>2026-04-04T15:30:59.999Z</time></trkpt><trkpt lat="37.83996257725868" lon="12.777122467360396"><ele>453.0</ele><time>2026-04-04T15:31:00.999Z</time></trkpt><trkpt lat="37.83986368773102" lon="12.77704460421368"><ele>453.99999999999994</ele><time>2026-04-04T15:31:02.999Z</time></trkpt><trkpt lat="37.839805317995705" lon="12.776998618164939"><ele>455.0</ele><time>2026-04-04T15:31:03.999Z</time></trkpt><trkpt lat="37.839744545347905" lon="12.776950528159905"><ele>454.99999999999994</ele><time>2026-04-04T15:31:04.999Z</time></trkpt><trkpt lat="37.839668560041744" lon="12.776904027475933"><ele>455.0</ele><time>2026-04-04T15:31:05.999Z</time></trkpt><trkpt lat="37.839600166471016" lon="12.776866063361522"><ele>455.0</ele><time>2026-04-04T15:31:06.999Z</time></trkpt><trkpt lat="37.83952648206866" lon="12.77684728448061"><ele>455.0</ele><time>2026-04-04T15:31:07.999Z</time></trkpt><trkpt lat="37.83945208182735" lon="12.776831950423139"><ele>454.99999999999994</ele><time>2026-04-04T15:31:08.999Z</time></trkpt><trkpt lat="37.83936761665698" lon="12.776828980335265"><ele>455.0</ele><time>2026-04-04T15:31:09.999Z</time></trkpt><trkpt lat="37.839287646717274" lon="12.776822584411311"><ele>455.4</ele><time>2026-04-04T15:31:10.999Z</time></trkpt><trkpt lat="37.839179425018585" lon="12.776817101551964"><ele>455.8</ele><time>2026-04-04T15:31:11.999Z</time></trkpt><trkpt lat="37.83907266006141" lon="12.776837104085605"><ele>456.20000000000005</ele><time>2026-04-04T15:31:12.999Z</time></trkpt><trkpt lat="37.838971204255685" lon="12.776866209413893"><ele>456.6</ele><time>2026-04-04T15:31:13.999Z</time></trkpt><trkpt lat="37.83886456843601" lon="12.776916454122327"><ele>457.0</ele><time>2026-04-04T15:31:14.999Z</time></trkpt><trkpt lat="37.838773002913186" lon="12.776963173771843"><ele>457.0</ele><time>2026-04-04T15:31:15.999Z</time></trkpt><trkpt lat="37.838677104641434" lon="12.777042260234511"><ele>457.0</ele><time>2026-04-04T15:31:16.999Z</time></trkpt><trkpt lat="37.83859024913041" lon="12.777127967074124"><ele>457.0</ele><time>2026-04-04T15:31:17.999Z</time></trkpt><trkpt lat="37.83848977543763" lon="12.777201662790993"><ele>457.0</ele><time>2026-04-04T15:31:18.999Z</time></trkpt><trkpt lat="37.838389039243715" lon="12.777264691696303"><ele>455.8</ele><time>2026-04-04T15:31:19.999Z</time></trkpt><trkpt lat="37.838292478939046" lon="12.777329794308244"><ele>454.6</ele><time>2026-04-04T15:31:20.999Z</time></trkpt><trkpt lat="37.83820073193616" lon="12.77739153627105"><ele>453.40000000000003</ele><time>2026-04-04T15:31:21.999Z</time></trkpt><trkpt lat="37.83811526865054" lon="12.77746020616393"><ele>452.20000000000005</ele><time>2026-04-04T15:31:22.999Z</time></trkpt><trkpt lat="37.83803823267566" lon="12.777526427756499"><ele>451.0</ele><time>2026-04-04T15:31:23.999Z</time></trkpt><trkpt lat="37.83796444530025" lon="12.777566601254835"><ele>451.00000000000006</ele><time>2026-04-04T15:31:24.999Z</time></trkpt><trkpt lat="37.83788513373029" lon="12.777606048689018"><ele>451.0</ele><time>2026-04-04T15:31:25.999Z</time></trkpt><trkpt lat="37.83780659290484" lon="12.777626360555498"><ele>451.0</ele><time>2026-04-04T15:31:26.999Z</time></trkpt><trkpt lat="37.837743395373025" lon="12.7775940676917"><ele>451.0</ele><time>2026-04-04T15:31:27.999Z</time></trkpt><trkpt lat="37.837673404947196" lon="12.777524971929383"><ele>451.00000000000006</ele><time>2026-04-04T15:31:29.999Z</time></trkpt><trkpt lat="37.83758690533805" lon="12.777519759804585"><ele>451.0</ele><time>2026-04-04T15:31:34.999Z</time></trkpt><trkpt lat="37.8375112958717" lon="12.77761190564818"><ele>451.0</ele><time>2026-04-04T15:31:36.999Z</time></trkpt><trkpt lat="37.83741905392455" lon="12.777736476099221"><ele>451.0</ele><time>2026-04-04T15:31:38.999Z</time></trkpt><trkpt lat="37.83737104591132" lon="12.777814845948154"><ele>451.0</ele><time>2026-04-04T15:31:39.999Z</time></trkpt><trkpt lat="37.83731526174614" lon="12.777903007222257"><ele>451.0</ele><time>2026-04-04T15:31:40.999Z</time></trkpt><trkpt lat="37.83725482316634" lon="12.777977276369423"><ele>451.0</ele><time>2026-04-04T15:31:41.999Z</time></trkpt><trkpt lat="37.83719047169905" lon="12.778060166278623"><ele>451.00000000000006</ele><time>2026-04-04T15:31:42.999Z</time></trkpt><trkpt lat="37.837127932209754" lon="12.778145963071967"><ele>451.0</ele><time>2026-04-04T15:31:43.999Z</time></trkpt><trkpt lat="37.83707681170752" lon="12.778226682323615"><ele>451.0</ele><time>2026-04-04T15:31:44.999Z</time></trkpt><trkpt lat="37.837021172576414" lon="12.778320737517923"><ele>451.0</ele><time>2026-04-04T15:31:45.999Z</time></trkpt><trkpt lat="37.83695809987246" lon="12.778390451631534"><ele>451.00000000000006</ele><time>2026-04-04T15:31:46.999Z</time></trkpt><trkpt lat="37.83689512391322" lon="12.778453087085985"><ele>451.0</ele><time>2026-04-04T15:31:47.999Z</time></trkpt><trkpt lat="37.836830323999536" lon="12.778511092744584"><ele>451.2857142857143</ele><time>2026-04-04T15:31:48.999Z</time></trkpt><trkpt lat="37.83676596602833" lon="12.778558640398064"><ele>451.57142857142856</ele><time>2026-04-04T15:31:49.999Z</time></trkpt><trkpt lat="37.83669283968237" lon="12.778600405674737"><ele>451.85714285714283</ele><time>2026-04-04T15:31:50.999Z</time></trkpt><trkpt lat="37.83663525565513" lon="12.77863528593822"><ele>452.1428571428571</ele><time>2026-04-04T15:31:51.999Z</time></trkpt><trkpt lat="37.836569757431825" lon="12.778674886001442"><ele>452.42857142857144</ele><time>2026-04-04T15:31:52.999Z</time></trkpt><trkpt lat="37.836505613084285" lon="12.77871691228073"><ele>452.71428571428567</ele><time>2026-04-04T15:31:53.999Z</time></trkpt><trkpt lat="37.836447234010826" lon="12.778757569639419"><ele>452.99999999999994</ele><time>2026-04-04T15:31:54.999Z</time></trkpt><trkpt lat="37.83635579917482" lon="12.778839727126373"><ele>453.0</ele><time>2026-04-04T15:31:56.999Z</time></trkpt><trkpt lat="37.83630764741584" lon="12.778896664572574"><ele>452.99999999999994</ele><time>2026-04-04T15:31:57.999Z</time></trkpt><trkpt lat="37.83623741768934" lon="12.778924089043889"><ele>452.99999999999994</ele><time>2026-04-04T15:31:58.999Z</time></trkpt><trkpt lat="37.83615653011204" lon="12.779032911091884"><ele>453.0</ele><time>2026-04-04T15:32:00.999Z</time></trkpt><trkpt lat="37.836121868660236" lon="12.779099468900228"><ele>453.0</ele><time>2026-04-04T15:32:01.999Z</time></trkpt><trkpt lat="37.83603029625593" lon="12.779216796171687"><ele>453.0</ele><time>2026-04-04T15:32:03.999Z</time></trkpt><trkpt lat="37.83597200554873" lon="12.77927747249095"><ele>452.99999999999994</ele><time>2026-04-04T15:32:04.999Z</time></trkpt><trkpt lat="37.835844608901844" lon="12.77939510153103"><ele>452.99999999999994</ele><time>2026-04-04T15:32:06.999Z</time></trkpt><trkpt lat="37.83577385372849" lon="12.779456139256066"><ele>453.0</ele><time>2026-04-04T15:32:07.999Z</time></trkpt><trkpt lat="37.835708701643654" lon="12.77951072567881"><ele>453.0</ele><time>2026-04-04T15:32:09Z</time></trkpt><trkpt lat="37.83563921129084" lon="12.77956885908105"><ele>451.25</ele><time>2026-04-04T15:32:10Z</time></trkpt><trkpt lat="37.83565495381659" lon="12.779805712280217"><ele>449.5</ele><time>2026-04-04T15:32:11Z</time></trkpt><trkpt lat="37.83567681683648" lon="12.779954036210803"><ele>447.75</ele><time>2026-04-04T15:32:12Z</time></trkpt><trkpt lat="37.83568583056236" lon="12.780116447013487"><ele>446.0</ele><time>2026-04-04T15:32:13Z</time></trkpt><trkpt lat="37.835714228480086" lon="12.780267469519076"><ele>446.0</ele><time>2026-04-04T15:32:14Z</time></trkpt><trkpt lat="37.83574857269125" lon="12.78043062929257"><ele>446.0</ele><time>2026-04-04T15:32:15Z</time></trkpt><trkpt lat="37.83580041031825" lon="12.780591660159436"><ele>446.0</ele><time>2026-04-04T15:32:16Z</time></trkpt><trkpt lat="37.835860053472416" lon="12.780781689783524"><ele>446.0</ele><time>2026-04-04T15:32:17Z</time></trkpt><trkpt lat="37.83589578383642" lon="12.780984972140656"><ele>447.0</ele><time>2026-04-04T15:32:18Z</time></trkpt><trkpt lat="37.835948005633945" lon="12.781196119468206"><ele>448.0</ele><time>2026-04-04T15:32:19Z</time></trkpt><trkpt lat="37.83598758447901" lon="12.781382592565098"><ele>449.0</ele><time>2026-04-04T15:32:20Z</time></trkpt><trkpt lat="37.836034391578416" lon="12.781561872787702"><ele>450.3333333333333</ele><time>2026-04-04T15:32:21Z</time></trkpt><trkpt lat="37.83609059523913" lon="12.7817513253884"><ele>451.66666666666663</ele><time>2026-04-04T15:32:22Z</time></trkpt><trkpt lat="37.83613619854821" lon="12.781935030815255"><ele>453.0</ele><time>2026-04-04T15:32:23Z</time></trkpt><trkpt lat="37.836205933076435" lon="12.782119789553422"><ele>453.0</ele><time>2026-04-04T15:32:24Z</time></trkpt><trkpt lat="37.83628991453468" lon="12.78228556679684"><ele>453.0</ele><time>2026-04-04T15:32:25Z</time></trkpt><trkpt lat="37.83640283501921" lon="12.782427147764118"><ele>453.0</ele><time>2026-04-04T15:32:26Z</time></trkpt><trkpt lat="37.836535161333195" lon="12.782542688769633"><ele>453.0</ele><time>2026-04-04T15:32:27Z</time></trkpt><trkpt lat="37.8366686109377" lon="12.782665043435427"><ele>453.0</ele><time>2026-04-04T15:32:28Z</time></trkpt><trkpt lat="37.83680226759496" lon="12.78278952310035"><ele>453.0</ele><time>2026-04-04T15:32:29Z</time></trkpt><trkpt lat="37.83693796260049" lon="12.78290884451773"><ele>453.33333333333337</ele><time>2026-04-04T15:32:30Z</time></trkpt><trkpt lat="37.83707426494883" lon="12.78300546717358"><ele>453.6666666666667</ele><time>2026-04-04T15:32:31Z</time></trkpt><trkpt lat="37.83720481513259" lon="12.783087541586628"><ele>454.0</ele><time>2026-04-04T15:32:32Z</time></trkpt><trkpt lat="37.83733108684241" lon="12.783190363113453"><ele>454.0</ele><time>2026-04-04T15:32:33Z</time></trkpt><trkpt lat="37.83746239210331" lon="12.783276159272022"><ele>454.0</ele><time>2026-04-04T15:32:34Z</time></trkpt><trkpt lat="37.83760012992801" lon="12.783352944311764"><ele>454.0</ele><time>2026-04-04T15:32:35Z</time></trkpt><trkpt lat="37.83775717367072" lon="12.783361159518787"><ele>455.6666666666667</ele><time>2026-04-04T15:32:36Z</time></trkpt><trkpt lat="37.83793356851136" lon="12.783371974768244"><ele>457.33333333333337</ele><time>2026-04-04T15:32:37Z</time></trkpt><trkpt lat="37.83809517961087" lon="12.783357598960292"><ele>459.0</ele><time>2026-04-04T15:32:38Z</time></trkpt><trkpt lat="37.83827937731932" lon="12.783364027225298"><ele>459.66666666666663</ele><time>2026-04-04T15:32:39Z</time></trkpt><trkpt lat="37.83849117453254" lon="12.78335275639915"><ele>460.3333333333333</ele><time>2026-04-04T15:32:40Z</time></trkpt><trkpt lat="37.83871321594888" lon="12.783342364998875"><ele>461.0</ele><time>2026-04-04T15:32:41Z</time></trkpt><trkpt lat="37.8389329270698" lon="12.783331803311944"><ele>461.0</ele><time>2026-04-04T15:32:42Z</time></trkpt><trkpt lat="37.83915913299521" lon="12.78332089964854"><ele>461.0</ele><time>2026-04-04T15:32:43Z</time></trkpt><trkpt lat="37.83938935512832" lon="12.78330980238672"><ele>462.3333333333333</ele><time>2026-04-04T15:32:44Z</time></trkpt><trkpt lat="37.839582411311255" lon="12.783302716397554"><ele>463.66666666666663</ele><time>2026-04-04T15:32:45Z</time></trkpt><trkpt lat="37.83978115908911" lon="12.78329765076329"><ele>465.0</ele><time>2026-04-04T15:32:46Z</time></trkpt><trkpt lat="37.839974987848954" lon="12.783297115285315"><ele>466.33333333333337</ele><time>2026-04-04T15:32:47Z</time></trkpt><trkpt lat="37.840163532059165" lon="12.783308264545088"><ele>467.6666666666667</ele><time>2026-04-04T15:32:48Z</time></trkpt><trkpt lat="37.8403466836885" lon="12.783346636511125"><ele>469.0</ele><time>2026-04-04T15:32:49Z</time></trkpt><trkpt lat="37.8405269952492" lon="12.783400023756522"><ele>469.0</ele><time>2026-04-04T15:32:50Z</time></trkpt><trkpt lat="37.84068641663449" lon="12.783449084780644"><ele>469.0</ele><time>2026-04-04T15:32:51Z</time></trkpt><trkpt lat="37.84082656303126" lon="12.783494646547963"><ele>469.0</ele><time>2026-04-04T15:32:52Z</time></trkpt><trkpt lat="37.840932295303084" lon="12.783556704700665"><ele>469.0</ele><time>2026-04-04T15:32:53Z</time></trkpt><trkpt lat="37.84100383389256" lon="12.783654123043087"><ele>471.0</ele><time>2026-04-04T15:32:54Z</time></trkpt><trkpt lat="37.841050416224604" lon="12.78379742692306"><ele>473.0</ele><time>2026-04-04T15:32:55Z</time></trkpt><trkpt lat="37.84110176777648" lon="12.783952954011246"><ele>475.0</ele><time>2026-04-04T15:32:56Z</time></trkpt><trkpt lat="37.841156569127556" lon="12.784118929392049"><ele>477.0</ele><time>2026-04-04T15:32:57Z</time></trkpt><trkpt lat="37.841214454159015" lon="12.784289591281993"><ele>477.33333333333337</ele><time>2026-04-04T15:32:58Z</time></trkpt><trkpt lat="37.84129526230115" lon="12.784462609371383"><ele>477.6666666666667</ele><time>2026-04-04T15:32:58.999Z</time></trkpt><trkpt lat="37.841381669696084" lon="12.784621255472143"><ele>478.0</ele><time>2026-04-04T15:32:59.999Z</time></trkpt><trkpt lat="37.841466975687645" lon="12.784776547551228"><ele>478.0</ele><time>2026-04-04T15:33:00.999Z</time></trkpt><trkpt lat="37.841548935027646" lon="12.784925746113815"><ele>478.0</ele><time>2026-04-04T15:33:01.999Z</time></trkpt><trkpt lat="37.841631685052974" lon="12.785076385069287"><ele>478.0</ele><time>2026-04-04T15:33:02.999Z</time></trkpt><trkpt lat="37.84172647191237" lon="12.785215277559278"><ele>478.0</ele><time>2026-04-04T15:33:03.999Z</time></trkpt><trkpt lat="37.841815544939834" lon="12.785374879782172"><ele>481.6666666666667</ele><time>2026-04-04T15:33:04.999Z</time></trkpt><trkpt lat="37.841890367195056" lon="12.785550060912232"><ele>485.33333333333337</ele><time>2026-04-04T15:33:05.999Z</time></trkpt><trkpt lat="37.84197966155413" lon="12.78573261765617"><ele>489.0</ele><time>2026-04-04T15:33:06.999Z</time></trkpt><trkpt lat="37.84208831894477" lon="12.78590948190624"><ele>487.66666666666663</ele><time>2026-04-04T15:33:07.999Z</time></trkpt><trkpt lat="37.84217503621449" lon="12.78610886200436"><ele>486.3333333333333</ele><time>2026-04-04T15:33:08.999Z</time></trkpt><trkpt lat="37.84226085788365" lon="12.786325369264341"><ele>485.0</ele><time>2026-04-04T15:33:09.999Z</time></trkpt><trkpt lat="37.84236147042634" lon="12.786561318872707"><ele>486.0</ele><time>2026-04-04T15:33:10.999Z</time></trkpt><trkpt lat="37.84244869968068" lon="12.786844622784647"><ele>487.0</ele><time>2026-04-04T15:33:11.999Z</time></trkpt><trkpt lat="37.84256573427357" lon="12.787120663146693"><ele>493.0</ele><time>2026-04-04T15:33:12.999Z</time></trkpt><trkpt lat="37.84268709427372" lon="12.787402377574443"><ele>499.0</ele><time>2026-04-04T15:33:13.999Z</time></trkpt><trkpt lat="37.842823203448496" lon="12.787693321180923"><ele>499.5</ele><time>2026-04-04T15:33:14.999Z</time></trkpt><trkpt lat="37.84296962672433" lon="12.787963969997692"><ele>500.0</ele><time>2026-04-04T15:33:15.999Z</time></trkpt><trkpt lat="37.843088509717276" lon="12.788180537633128"><ele>500.0</ele><time>2026-04-04T15:33:16.999Z</time></trkpt><trkpt lat="37.84318218323215" lon="12.78836056348497"><ele>500.0</ele><time>2026-04-04T15:33:17.999Z</time></trkpt><trkpt lat="37.843256794191156" lon="12.788503966045466"><ele>500.0</ele><time>2026-04-04T15:33:18.999Z</time></trkpt><trkpt lat="37.84331164233661" lon="12.788609384474112"><ele>500.0</ele><time>2026-04-04T15:33:19.999Z</time></trkpt><trkpt lat="37.84335245829518" lon="12.788687833046701"><ele>500.3333333333333</ele><time>2026-04-04T15:33:20.999Z</time></trkpt><trkpt lat="37.843381446988765" lon="12.788764790551308"><ele>500.66666666666663</ele><time>2026-04-04T15:33:22.999Z</time></trkpt><trkpt lat="37.84325284495157" lon="12.788789658933549"><ele>501.0</ele><time>2026-04-04T15:33:24.999Z</time></trkpt><trkpt lat="37.84317117071191" lon="12.788794633011305"><ele>501.33333333333337</ele><time>2026-04-04T15:33:25.999Z</time></trkpt><trkpt lat="37.843091035472476" lon="12.78877361964909"><ele>501.6666666666667</ele><time>2026-04-04T15:33:26.999Z</time></trkpt><trkpt lat="37.843006240192125" lon="12.788773467938306"><ele>502.0</ele><time>2026-04-04T15:33:27.999Z</time></trkpt><trkpt lat="37.84292683519985" lon="12.788777433448375"><ele>502.0</ele><time>2026-04-04T15:33:28.999Z</time></trkpt><trkpt lat="37.842850304980715" lon="12.788777276234564"><ele>502.00000000000006</ele><time>2026-04-04T15:33:29.999Z</time></trkpt><trkpt lat="37.84277239341738" lon="12.788778154057638"><ele>502.00000000000006</ele><time>2026-04-04T15:33:30.999Z</time></trkpt><trkpt lat="37.842684434617446" lon="12.788790463713543"><ele>502.0</ele><time>2026-04-04T15:33:31.999Z</time></trkpt><trkpt lat="37.84258127750629" lon="12.788834421526948"><ele>502.0</ele><time>2026-04-04T15:33:32.999Z</time></trkpt><trkpt lat="37.84247599105265" lon="12.788914090406026"><ele>502.0</ele><time>2026-04-04T15:33:33.999Z</time></trkpt><trkpt lat="37.842367148088" lon="12.789016271566634"><ele>502.0</ele><time>2026-04-04T15:33:34.999Z</time></trkpt><trkpt lat="37.84226926732537" lon="12.789133302836916"><ele>502.0</ele><time>2026-04-04T15:33:35.999Z</time></trkpt><trkpt lat="37.842164586118145" lon="12.789236816076563"><ele>502.0</ele><time>2026-04-04T15:33:36.999Z</time></trkpt><trkpt lat="37.84206577320841" lon="12.789349950046779"><ele>502.0</ele><time>2026-04-04T15:33:37.999Z</time></trkpt><trkpt lat="37.84196223848078" lon="12.789457223882234"><ele>502.0</ele><time>2026-04-04T15:33:38.999Z</time></trkpt><trkpt lat="37.84184869144922" lon="12.789537558744957"><ele>502.0</ele><time>2026-04-04T15:33:39.999Z</time></trkpt><trkpt lat="37.84174701749692" lon="12.789623008134003"><ele>502.0</ele><time>2026-04-04T15:33:40.999Z</time></trkpt><trkpt lat="37.841638687571184" lon="12.789711122104027"><ele>500.5</ele><time>2026-04-04T15:33:41.999Z</time></trkpt><trkpt lat="37.841531624195405" lon="12.789808118299444"><ele>499.0</ele><time>2026-04-04T15:33:42.999Z</time></trkpt><trkpt lat="37.84142334504584" lon="12.789899787641772"><ele>497.5</ele><time>2026-04-04T15:33:43.999Z</time></trkpt><trkpt lat="37.841316188441255" lon="12.789990721042832"><ele>496.0</ele><time>2026-04-04T15:33:44.999Z</time></trkpt><trkpt lat="37.84120552689207" lon="12.790097508703607"><ele>496.25</ele><time>2026-04-04T15:33:45.999Z</time></trkpt><trkpt lat="37.84110422331772" lon="12.79019086959228"><ele>496.5</ele><time>2026-04-04T15:33:46.999Z</time></trkpt><trkpt lat="37.84100021290865" lon="12.790285515792648"><ele>496.75</ele><time>2026-04-04T15:33:47.999Z</time></trkpt><trkpt lat="37.84088467703397" lon="12.790385744997888"><ele>497.0</ele><time>2026-04-04T15:33:48.999Z</time></trkpt><trkpt lat="37.840768067854526" lon="12.790476242889502"><ele>497.0</ele><time>2026-04-04T15:33:49.999Z</time></trkpt><trkpt lat="37.84065707604327" lon="12.790588815564053"><ele>497.0</ele><time>2026-04-04T15:33:50.999Z</time></trkpt><trkpt lat="37.84056201339695" lon="12.79068070688043"><ele>497.0</ele><time>2026-04-04T15:33:51.999Z</time></trkpt><trkpt lat="37.84044161671018" lon="12.790770824733562"><ele>497.0</ele><time>2026-04-04T15:33:52.999Z</time></trkpt><trkpt lat="37.840307129434585" lon="12.7908414719189"><ele>497.0</ele><time>2026-04-04T15:33:53.999Z</time></trkpt><trkpt lat="37.840192407596476" lon="12.79090178039573"><ele>497.0</ele><time>2026-04-04T15:33:54.999Z</time></trkpt><trkpt lat="37.84007227900872" lon="12.79096361478193"><ele>497.0</ele><time>2026-04-04T15:33:55.999Z</time></trkpt><trkpt lat="37.839949357821894" lon="12.79102690047974"><ele>497.0</ele><time>2026-04-04T15:33:56.999Z</time></trkpt><trkpt lat="37.83983438090236" lon="12.791086096479821"><ele>497.5</ele><time>2026-04-04T15:33:57.999Z</time></trkpt><trkpt lat="37.83972236118543" lon="12.791146025854175"><ele>498.0</ele><time>2026-04-04T15:33:58.999Z</time></trkpt><trkpt lat="37.839609990512834" lon="12.791208078880654"><ele>498.5</ele><time>2026-04-04T15:33:59.999Z</time></trkpt><trkpt lat="37.839496871562574" lon="12.791280198603257"><ele>499.0</ele><time>2026-04-04T15:34:00.999Z</time></trkpt><trkpt lat="37.83940990744659" lon="12.791365474790075"><ele>499.0</ele><time>2026-04-04T15:34:01.999Z</time></trkpt><trkpt lat="37.83930457560331" lon="12.791437462120966"><ele>499.0</ele><time>2026-04-04T15:34:02.999Z</time></trkpt><trkpt lat="37.83920911128904" lon="12.791515219948232"><ele>499.0</ele><time>2026-04-04T15:34:03.999Z</time></trkpt><trkpt lat="37.83910876797026" lon="12.791596111823877"><ele>499.0</ele><time>2026-04-04T15:34:04.999Z</time></trkpt><trkpt lat="37.839007535640704" lon="12.791678708334537"><ele>498.79999999999995</ele><time>2026-04-04T15:34:05.999Z</time></trkpt><trkpt lat="37.83891039020607" lon="12.791763025612758"><ele>498.59999999999997</ele><time>2026-04-04T15:34:06.999Z</time></trkpt><trkpt lat="37.838817080364706" lon="12.79181075558456"><ele>498.4</ele><time>2026-04-04T15:34:07.999Z</time></trkpt><trkpt lat="37.83871922523756" lon="12.791881457578462"><ele>498.2</ele><time>2026-04-04T15:34:08.999Z</time></trkpt><trkpt lat="37.83862707677882" lon="12.791956748570339"><ele>498.0</ele><time>2026-04-04T15:34:09.999Z</time></trkpt><trkpt lat="37.838536022932544" lon="12.792026752052921"><ele>498.75</ele><time>2026-04-04T15:34:10.999Z</time></trkpt><trkpt lat="37.83844626316385" lon="12.792114693135458"><ele>499.5</ele><time>2026-04-04T15:34:11.999Z</time></trkpt><trkpt lat="37.83836080699089" lon="12.792206718273327"><ele>500.25</ele><time>2026-04-04T15:34:12.999Z</time></trkpt><trkpt lat="37.838277808730034" lon="12.79230386308307"><ele>501.0</ele><time>2026-04-04T15:34:13.999Z</time></trkpt><trkpt lat="37.83817457642212" lon="12.79239083339526"><ele>501.0</ele><time>2026-04-04T15:34:15Z</time></trkpt><trkpt lat="37.83808804165553" lon="12.792489327503578"><ele>501.0</ele><time>2026-04-04T15:34:16Z</time></trkpt><trkpt lat="37.83799688980335" lon="12.792592607986577"><ele>501.0</ele><time>2026-04-04T15:34:17Z</time></trkpt><trkpt lat="37.837908948583404" lon="12.792692389256796"><ele>501.0</ele><time>2026-04-04T15:34:18Z</time></trkpt><trkpt lat="37.83783998629865" lon="12.79277147045339"><ele>501.4</ele><time>2026-04-04T15:34:19Z</time></trkpt><trkpt lat="37.83775934768399" lon="12.792863862838514"><ele>501.8</ele><time>2026-04-04T15:34:20Z</time></trkpt><trkpt lat="37.8376890158672" lon="12.792935831229654"><ele>502.19999999999993</ele><time>2026-04-04T15:34:21Z</time></trkpt><trkpt lat="37.83762406315941" lon="12.793031424991606"><ele>502.59999999999997</ele><time>2026-04-04T15:34:22Z</time></trkpt><trkpt lat="37.83760060675041" lon="12.793182228247296"><ele>503.0</ele><time>2026-04-04T15:34:23Z</time></trkpt><trkpt lat="37.83756590850853" lon="12.793360351755755"><ele>502.2</ele><time>2026-04-04T15:34:25Z</time></trkpt><trkpt lat="37.837542171453066" lon="12.793482207135801"><ele>501.4</ele><time>2026-04-04T15:34:26Z</time></trkpt><trkpt lat="37.83751468127271" lon="12.793622707123275"><ele>500.59999999999997</ele><time>2026-04-04T15:34:27Z</time></trkpt><trkpt lat="37.83748922337807" lon="12.793752552059258"><ele>499.79999999999995</ele><time>2026-04-04T15:34:28Z</time></trkpt><trkpt lat="37.837462419559365" lon="12.793889594610853"><ele>499.0</ele><time>2026-04-04T15:34:29Z</time></trkpt><trkpt lat="37.83743387516518" lon="12.794018041981078"><ele>498.75</ele><time>2026-04-04T15:34:30Z</time></trkpt><trkpt lat="37.83739404626188" lon="12.79415587923384"><ele>498.5</ele><time>2026-04-04T15:34:31Z</time></trkpt><trkpt lat="37.83733263194119" lon="12.794291088709482"><ele>498.25</ele><time>2026-04-04T15:34:32Z</time></trkpt><trkpt lat="37.83725754197985" lon="12.794421432490642"><ele>498.0</ele><time>2026-04-04T15:34:33Z</time></trkpt><trkpt lat="37.83717176512601" lon="12.794551850376246"><ele>497.25</ele><time>2026-04-04T15:34:34Z</time></trkpt><trkpt lat="37.8370828919506" lon="12.794670208332942"><ele>496.5</ele><time>2026-04-04T15:34:35Z</time></trkpt><trkpt lat="37.836977256713546" lon="12.794764372274823"><ele>495.75</ele><time>2026-04-04T15:34:36Z</time></trkpt><trkpt lat="37.83685138076114" lon="12.794854030568217"><ele>495.0</ele><time>2026-04-04T15:34:37Z</time></trkpt><trkpt lat="37.83672721434036" lon="12.794940937515374"><ele>492.25</ele><time>2026-04-04T15:34:38Z</time></trkpt><trkpt lat="37.836596696811355" lon="12.79502933499792"><ele>489.5</ele><time>2026-04-04T15:34:39Z</time></trkpt><trkpt lat="37.83646753212139" lon="12.795111129366147"><ele>486.75</ele><time>2026-04-04T15:34:40Z</time></trkpt><trkpt lat="37.83633892409055" lon="12.795189718611653"><ele>484.0</ele><time>2026-04-04T15:34:41Z</time></trkpt><trkpt lat="37.836213190536114" lon="12.79525405148588"><ele>483.5</ele><time>2026-04-04T15:34:42Z</time></trkpt><trkpt lat="37.836088914552285" lon="12.795314863147821"><ele>483.0</ele><time>2026-04-04T15:34:43Z</time></trkpt><trkpt lat="37.83596758329678" lon="12.795367288164122"><ele>482.5</ele><time>2026-04-04T15:34:44Z</time></trkpt><trkpt lat="37.83584154661724" lon="12.795410786086466"><ele>482.0</ele><time>2026-04-04T15:34:45Z</time></trkpt><trkpt lat="37.83572155154589" lon="12.795443869239982"><ele>477.5</ele><time>2026-04-04T15:34:46Z</time></trkpt><trkpt lat="37.83560293656145" lon="12.795466032359693"><ele>473.0</ele><time>2026-04-04T15:34:47Z</time></trkpt><trkpt lat="37.83547187386727" lon="12.795476004029968"><ele>468.5</ele><time>2026-04-04T15:34:48Z</time></trkpt><trkpt lat="37.83534822356499" lon="12.795471367709656"><ele>464.0</ele><time>2026-04-04T15:34:49Z</time></trkpt><trkpt lat="37.835228218936706" lon="12.795438901800717"><ele>463.75</ele><time>2026-04-04T15:34:50Z</time></trkpt><trkpt lat="37.83510898599867" lon="12.79538046574738"><ele>463.5</ele><time>2026-04-04T15:34:51Z</time></trkpt><trkpt lat="37.834990696494984" lon="12.795303192508463"><ele>463.25</ele><time>2026-04-04T15:34:52Z</time></trkpt><trkpt lat="37.834894619370615" lon="12.79516928009554"><ele>463.0</ele><time>2026-04-04T15:34:53Z</time></trkpt><trkpt lat="37.834800104489275" lon="12.795021258428088"><ele>463.0</ele><time>2026-04-04T15:34:54Z</time></trkpt><trkpt lat="37.834705841190164" lon="12.79487595684833"><ele>463.0</ele><time>2026-04-04T15:34:55Z</time></trkpt><trkpt lat="37.83460607179188" lon="12.794737624488707"><ele>463.0</ele><time>2026-04-04T15:34:56Z</time></trkpt><trkpt lat="37.83451091703537" lon="12.794601062485283"><ele>463.0</ele><time>2026-04-04T15:34:57Z</time></trkpt><trkpt lat="37.83442468604933" lon="12.794458328515478"><ele>459.5</ele><time>2026-04-04T15:34:58Z</time></trkpt><trkpt lat="37.83436342795466" lon="12.794294800115942"><ele>456.0</ele><time>2026-04-04T15:34:59Z</time></trkpt><trkpt lat="37.83431520030393" lon="12.794120016155517"><ele>452.5</ele><time>2026-04-04T15:35:00Z</time></trkpt><trkpt lat="37.834262367414205" lon="12.79395381100523"><ele>449.0</ele><time>2026-04-04T15:35:01Z</time></trkpt><trkpt lat="37.83420610839766" lon="12.793791477232995"><ele>449.0</ele><time>2026-04-04T15:35:02Z</time></trkpt><trkpt lat="37.83416075530127" lon="12.79364284289245"><ele>449.0</ele><time>2026-04-04T15:35:03Z</time></trkpt><trkpt lat="37.83412848004593" lon="12.793494649797204"><ele>449.0</ele><time>2026-04-04T15:35:04Z</time></trkpt><trkpt lat="37.834115796242486" lon="12.793342086228998"><ele>449.0</ele><time>2026-04-04T15:35:05Z</time></trkpt><trkpt lat="37.83410836236737" lon="12.793195688547163"><ele>449.0</ele><time>2026-04-04T15:35:06Z</time></trkpt><trkpt lat="37.834123001723434" lon="12.793056249843593"><ele>449.0</ele><time>2026-04-04T15:35:06.999Z</time></trkpt><trkpt lat="37.83415468712151" lon="12.792931472787538"><ele>449.0</ele><time>2026-04-04T15:35:07.999Z</time></trkpt><trkpt lat="37.83417674938248" lon="12.792823206045501"><ele>449.0</ele><time>2026-04-04T15:35:08.999Z</time></trkpt><trkpt lat="37.834193915738126" lon="12.792736974066957"><ele>449.0</ele><time>2026-04-04T15:35:09.999Z</time></trkpt><trkpt lat="37.83413114008838" lon="12.792614582007225"><ele>448.99999999999994</ele><time>2026-04-04T15:35:11.999Z</time></trkpt><trkpt lat="37.83406097635226" lon="12.792593241916403"><ele>449.0</ele><time>2026-04-04T15:35:12.999Z</time></trkpt><trkpt lat="37.833981098254924" lon="12.792615169821298"><ele>449.0</ele><time>2026-04-04T15:35:13.999Z</time></trkpt><trkpt lat="37.83389926968213" lon="12.792662250262595"><ele>449.0</ele><time>2026-04-04T15:35:14.999Z</time></trkpt><trkpt lat="37.83381946214389" lon="12.792711055054326"><ele>448.99999999999994</ele><time>2026-04-04T15:35:15.999Z</time></trkpt><trkpt lat="37.83372466675329" lon="12.792737200166146"><ele>449.0</ele><time>2026-04-04T15:35:16.999Z</time></trkpt><trkpt lat="37.83362285124623" lon="12.79276611766068"><ele>449.0</ele><time>2026-04-04T15:35:17.999Z</time></trkpt><trkpt lat="37.83350105358486" lon="12.792791875384761"><ele>449.0</ele><time>2026-04-04T15:35:18.999Z</time></trkpt><trkpt lat="37.83338683832765" lon="12.792804777579443"><ele>449.0</ele><time>2026-04-04T15:35:19.999Z</time></trkpt><trkpt lat="37.83326911308531" lon="12.792825428129548"><ele>449.0</ele><time>2026-04-04T15:35:20.999Z</time></trkpt><trkpt lat="37.83313356957102" lon="12.792858632984844"><ele>443.0</ele><time>2026-04-04T15:35:21.999Z</time></trkpt><trkpt lat="37.832989015394034" lon="12.792876133743473"><ele>437.0</ele><time>2026-04-04T15:35:22.999Z</time></trkpt><trkpt lat="37.83284773954362" lon="12.792892458927458"><ele>431.0</ele><time>2026-04-04T15:35:23.999Z</time></trkpt><trkpt lat="37.8327066919414" lon="12.792915230697112"><ele>425.0</ele><time>2026-04-04T15:35:24.999Z</time></trkpt><trkpt lat="37.832568480857994" lon="12.79293406278131"><ele>425.0</ele><time>2026-04-04T15:35:25.999Z</time></trkpt><trkpt lat="37.832437040553295" lon="12.792944545873278"><ele>425.0</ele><time>2026-04-04T15:35:26.999Z</time></trkpt><trkpt lat="37.832306517287655" lon="12.792976477478367"><ele>425.0</ele><time>2026-04-04T15:35:27.999Z</time></trkpt><trkpt lat="37.83219214673606" lon="12.793069858771165"><ele>425.0</ele><time>2026-04-04T15:35:28.999Z</time></trkpt><trkpt lat="37.832092709289334" lon="12.793178183354954"><ele>425.0</ele><time>2026-04-04T15:35:29.999Z</time></trkpt><trkpt lat="37.832057196760296" lon="12.793351840441183"><ele>425.0</ele><time>2026-04-04T15:35:30.999Z</time></trkpt><trkpt lat="37.83200894506227" lon="12.793482477761088"><ele>425.0</ele><time>2026-04-04T15:35:31.999Z</time></trkpt><trkpt lat="37.831932954196084" lon="12.793617460365136"><ele>425.0</ele><time>2026-04-04T15:35:32.999Z</time></trkpt><trkpt lat="37.831828267674005" lon="12.793707651575414"><ele>420.5</ele><time>2026-04-04T15:35:33.999Z</time></trkpt><trkpt lat="37.83170950269902" lon="12.793777338663448"><ele>416.0</ele><time>2026-04-04T15:35:34.999Z</time></trkpt><trkpt lat="37.8315839459969" lon="12.793825860854179"><ele>411.5</ele><time>2026-04-04T15:35:35.999Z</time></trkpt><trkpt lat="37.83145042622266" lon="12.793829421778197"><ele>407.0</ele><time>2026-04-04T15:35:36.999Z</time></trkpt><trkpt lat="37.831318362524776" lon="12.793797427342927"><ele>407.0</ele><time>2026-04-04T15:35:37.999Z</time></trkpt><trkpt lat="37.83119210818776" lon="12.7937393721544"><ele>407.0</ele><time>2026-04-04T15:35:38.999Z</time></trkpt><trkpt lat="37.83107116625123" lon="12.793667376091447"><ele>407.0</ele><time>2026-04-04T15:35:39.999Z</time></trkpt><trkpt lat="37.83097099332056" lon="12.793569861429374"><ele>407.0</ele><time>2026-04-04T15:35:40.999Z</time></trkpt><trkpt lat="37.83086586549222" lon="12.79348144808808"><ele>410.75</ele><time>2026-04-04T15:35:41.999Z</time></trkpt><trkpt lat="37.830771323304454" lon="12.793367712391523"><ele>414.5</ele><time>2026-04-04T15:35:42.999Z</time></trkpt><trkpt lat="37.83066692856366" lon="12.793275434656653"><ele>418.25</ele><time>2026-04-04T15:35:43.999Z</time></trkpt><trkpt lat="37.830556099376615" lon="12.793199018686066"><ele>422.0</ele><time>2026-04-04T15:35:44.999Z</time></trkpt><trkpt lat="37.83043013806845" lon="12.793136162300499"><ele>422.0</ele><time>2026-04-04T15:35:45.999Z</time></trkpt><trkpt lat="37.830318677814375" lon="12.793062238144099"><ele>422.0</ele><time>2026-04-04T15:35:46.999Z</time></trkpt><trkpt lat="37.8301975192578" lon="12.793011179983752"><ele>422.0</ele><time>2026-04-04T15:35:47.999Z</time></trkpt><trkpt lat="37.83007522042962" lon="12.792953044021752"><ele>422.0</ele><time>2026-04-04T15:35:48.999Z</time></trkpt><trkpt lat="37.8299596121564" lon="12.79287869283353"><ele>423.5</ele><time>2026-04-04T15:35:49.999Z</time></trkpt><trkpt lat="37.82984518342754" lon="12.79279554095416"><ele>425.0</ele><time>2026-04-04T15:35:50.999Z</time></trkpt><trkpt lat="37.829731200758125" lon="12.792710509336585"><ele>426.5</ele><time>2026-04-04T15:35:51.999Z</time></trkpt><trkpt lat="37.82962862783878" lon="12.792647494034117"><ele>428.0</ele><time>2026-04-04T15:35:52.999Z</time></trkpt><trkpt lat="37.8295192124447" lon="12.792597329392676"><ele>428.0</ele><time>2026-04-04T15:35:53.999Z</time></trkpt><trkpt lat="37.8294132557424" lon="12.792578095921817"><ele>428.0</ele><time>2026-04-04T15:35:54.999Z</time></trkpt><trkpt lat="37.829307318855925" lon="12.79258576578193"><ele>428.0</ele><time>2026-04-04T15:35:55.999Z</time></trkpt><trkpt lat="37.82919116552239" lon="12.792615016263946"><ele>428.0</ele><time>2026-04-04T15:35:56.999Z</time></trkpt><trkpt lat="37.82907791465367" lon="12.7926772188526"><ele>421.5</ele><time>2026-04-04T15:35:57.999Z</time></trkpt><trkpt lat="37.82896266157337" lon="12.792744991952862"><ele>415.0</ele><time>2026-04-04T15:35:58.999Z</time></trkpt><trkpt lat="37.828852098480965" lon="12.792842812874287"><ele>408.5</ele><time>2026-04-04T15:35:59.999Z</time></trkpt><trkpt lat="37.8287621105578" lon="12.79295510343805"><ele>402.0</ele><time>2026-04-04T15:36:00.999Z</time></trkpt><trkpt lat="37.828689920956016" lon="12.793086212596561"><ele>402.0</ele><time>2026-04-04T15:36:01.999Z</time></trkpt><trkpt lat="37.82867368454069" lon="12.793261143705521"><ele>402.0</ele><time>2026-04-04T15:36:02.999Z</time></trkpt><trkpt lat="37.828639663151094" lon="12.793424877388357"><ele>402.0</ele><time>2026-04-04T15:36:03.999Z</time></trkpt><trkpt lat="37.828586582228475" lon="12.7935881968119"><ele>402.0</ele><time>2026-04-04T15:36:04.999Z</time></trkpt><trkpt lat="37.82855101554049" lon="12.79375846896345"><ele>402.5</ele><time>2026-04-04T15:36:05.999Z</time></trkpt><trkpt lat="37.828533268355656" lon="12.793907828844642"><ele>403.0</ele><time>2026-04-04T15:36:06.999Z</time></trkpt><trkpt lat="37.82849339188842" lon="12.794072117997702"><ele>403.5</ele><time>2026-04-04T15:36:07.999Z</time></trkpt><trkpt lat="37.8284820239761" lon="12.794235747890012"><ele>404.0</ele><time>2026-04-04T15:36:08.999Z</time></trkpt><trkpt lat="37.828489155160405" lon="12.794381750112304"><ele>403.99999999999994</ele><time>2026-04-04T15:36:09.999Z</time></trkpt><trkpt lat="37.828493011389256" lon="12.794492136673709"><ele>404.0</ele><time>2026-04-04T15:36:10.999Z</time></trkpt><trkpt lat="37.82850135540891" lon="12.794587284065043"><ele>404.0</ele><time>2026-04-04T15:36:11.999Z</time></trkpt><trkpt lat="37.82852924886176" lon="12.794710103251905"><ele>404.0</ele><time>2026-04-04T15:36:13.999Z</time></trkpt><trkpt lat="37.828537210653394" lon="12.794799929132672"><ele>403.99999999999994</ele><time>2026-04-04T15:36:16.999Z</time></trkpt><trkpt lat="37.82854595137368" lon="12.794879216004587"><ele>404.0</ele><time>2026-04-04T15:36:29Z</time></trkpt><trkpt lat="37.828740585007274" lon="12.794842274965799"><ele>403.99999999999994</ele><time>2026-04-04T15:36:30Z</time></trkpt><trkpt lat="37.828804987377595" lon="12.794831383651896"><ele>404.0</ele><time>2026-04-04T15:36:31Z</time></trkpt><trkpt lat="37.828877167276204" lon="12.79485456187942"><ele>404.0</ele><time>2026-04-04T15:36:32Z</time></trkpt><trkpt lat="37.82894346356365" lon="12.794914953324762"><ele>404.0</ele><time>2026-04-04T15:36:33Z</time></trkpt><trkpt lat="37.82896351811675" lon="12.795017441474428"><ele>403.99999999999994</ele><time>2026-04-04T15:36:34Z</time></trkpt><trkpt lat="37.82895562768239" lon="12.79511405949346"><ele>404.0</ele><time>2026-04-04T15:36:35Z</time></trkpt><trkpt lat="37.828935446002674" lon="12.795213265502694"><ele>404.4</ele><time>2026-04-04T15:36:36Z</time></trkpt><trkpt lat="37.82891580648339" lon="12.795322130275437"><ele>404.79999999999995</ele><time>2026-04-04T15:36:37Z</time></trkpt><trkpt lat="37.82889501030346" lon="12.79543664007576"><ele>405.20000000000005</ele><time>2026-04-04T15:36:38Z</time></trkpt><trkpt lat="37.828879538315974" lon="12.795570174516058"><ele>405.6</ele><time>2026-04-04T15:36:39Z</time></trkpt><trkpt lat="37.82886273338356" lon="12.795739262746254"><ele>406.0</ele><time>2026-04-04T15:36:40Z</time></trkpt><trkpt lat="37.828885704210535" lon="12.79589930298209"><ele>406.5</ele><time>2026-04-04T15:36:41Z</time></trkpt><trkpt lat="37.82894725689301" lon="12.796064344080959"><ele>407.0</ele><time>2026-04-04T15:36:42Z</time></trkpt><trkpt lat="37.82903692043356" lon="12.796209053847589"><ele>407.5</ele><time>2026-04-04T15:36:43Z</time></trkpt><trkpt lat="37.829114176115816" lon="12.796376488963556"><ele>408.0</ele><time>2026-04-04T15:36:44Z</time></trkpt><trkpt lat="37.82919615212282" lon="12.796546883584249"><ele>408.0</ele><time>2026-04-04T15:36:45Z</time></trkpt><trkpt lat="37.82927674729468" lon="12.796714407781206"><ele>408.0</ele><time>2026-04-04T15:36:46Z</time></trkpt><trkpt lat="37.82937909931716" lon="12.796926098235424"><ele>408.0</ele><time>2026-04-04T15:36:47Z</time></trkpt><trkpt lat="37.829506135233196" lon="12.797185474460944"><ele>403.0</ele><time>2026-04-04T15:36:48Z</time></trkpt><trkpt lat="37.8296414054089" lon="12.797461956772898"><ele>398.0</ele><time>2026-04-04T15:36:49Z</time></trkpt><trkpt lat="37.82976561259545" lon="12.79771615308731"><ele>398.0</ele><time>2026-04-04T15:36:50Z</time></trkpt><trkpt lat="37.82986145933889" lon="12.79790698081994"><ele>398.0</ele><time>2026-04-04T15:36:51Z</time></trkpt><trkpt lat="37.82994426796927" lon="12.79806074830942"><ele>398.0</ele><time>2026-04-04T15:36:52Z</time></trkpt><trkpt lat="37.83005715943144" lon="12.798188162257702"><ele>394.0</ele><time>2026-04-04T15:36:53Z</time></trkpt><trkpt lat="37.8302264834786" lon="12.798262195462934"><ele>390.0</ele><time>2026-04-04T15:36:54Z</time></trkpt><trkpt lat="37.83038746620157" lon="12.79833341539012"><ele>386.0</ele><time>2026-04-04T15:36:55Z</time></trkpt><trkpt lat="37.83051314785221" lon="12.798366273107648"><ele>386.0</ele><time>2026-04-04T15:36:56Z</time></trkpt><trkpt lat="37.830607045035286" lon="12.798402469940735"><ele>386.0</ele><time>2026-04-04T15:36:57Z</time></trkpt><trkpt lat="37.83069136925354" lon="12.798454066035044"><ele>386.0</ele><time>2026-04-04T15:36:58Z</time></trkpt><trkpt lat="37.83073478663226" lon="12.798563580769617"><ele>386.0</ele><time>2026-04-04T15:36:59Z</time></trkpt><trkpt lat="37.83076563148726" lon="12.798697609684924"><ele>386.0</ele><time>2026-04-04T15:37:00Z</time></trkpt><trkpt lat="37.83078383852013" lon="12.798857210348888"><ele>385.3333333333333</ele><time>2026-04-04T15:37:01Z</time></trkpt><trkpt lat="37.830763104159125" lon="12.799032565853471"><ele>384.66666666666663</ele><time>2026-04-04T15:37:02Z</time></trkpt><trkpt lat="37.830741761722784" lon="12.799242221220766"><ele>384.0</ele><time>2026-04-04T15:37:03Z</time></trkpt><trkpt lat="37.83070254608901" lon="12.799433096718033"><ele>380.3333333333333</ele><time>2026-04-04T15:37:04Z</time></trkpt><trkpt lat="37.830643035319994" lon="12.799610585257204"><ele>376.66666666666663</ele><time>2026-04-04T15:37:05Z</time></trkpt><trkpt lat="37.8305433786843" lon="12.799792282294622"><ele>373.0</ele><time>2026-04-04T15:37:06Z</time></trkpt><trkpt lat="37.83043935015667" lon="12.799974601599052"><ele>373.0</ele><time>2026-04-04T15:37:07Z</time></trkpt><trkpt lat="37.83034970808355" lon="12.800160841667553"><ele>373.0</ele><time>2026-04-04T15:37:08Z</time></trkpt><trkpt lat="37.83026043069749" lon="12.800334979745887"><ele>373.0</ele><time>2026-04-04T15:37:09Z</time></trkpt><trkpt lat="37.83017859931373" lon="12.80050679192532"><ele>373.5</ele><time>2026-04-04T15:37:10Z</time></trkpt><trkpt lat="37.8301045814709" lon="12.80066932904703"><ele>374.0</ele><time>2026-04-04T15:37:11Z</time></trkpt><trkpt lat="37.83002285127664" lon="12.800830024640227"><ele>374.5</ele><time>2026-04-04T15:37:12Z</time></trkpt><trkpt lat="37.82993602405144" lon="12.800964075912065"><ele>375.0</ele><time>2026-04-04T15:37:13Z</time></trkpt><trkpt lat="37.82981964352939" lon="12.801079675789525"><ele>372.6666666666667</ele><time>2026-04-04T15:37:14Z</time></trkpt><trkpt lat="37.82970638016505" lon="12.801157186888114"><ele>370.33333333333337</ele><time>2026-04-04T15:37:14.999Z</time></trkpt><trkpt lat="37.82955417944603" lon="12.801212005874715"><ele>368.0</ele><time>2026-04-04T15:37:15.999Z</time></trkpt><trkpt lat="37.82939198332893" lon="12.801182837694911"><ele>366.75</ele><time>2026-04-04T15:37:16.999Z</time></trkpt><trkpt lat="37.82925792586982" lon="12.801225925858354"><ele>365.5</ele><time>2026-04-04T15:37:17.999Z</time></trkpt><trkpt lat="37.82913604535358" lon="12.801265281947414"><ele>364.25</ele><time>2026-04-04T15:37:18.999Z</time></trkpt><trkpt lat="37.82900860436001" lon="12.801307031869115"><ele>363.0</ele><time>2026-04-04T15:37:19.999Z</time></trkpt><trkpt lat="37.828881136543124" lon="12.801348790563202"><ele>363.0</ele><time>2026-04-04T15:37:20.999Z</time></trkpt><trkpt lat="37.82875741313956" lon="12.801388258744806"><ele>363.0</ele><time>2026-04-04T15:37:21.999Z</time></trkpt><trkpt lat="37.82862697938612" lon="12.801460433226756"><ele>363.0</ele><time>2026-04-04T15:37:22.999Z</time></trkpt><trkpt lat="37.828495607231645" lon="12.80154870326203"><ele>363.0</ele><time>2026-04-04T15:37:23.999Z</time></trkpt><trkpt lat="37.828392632598806" lon="12.801669403626546"><ele>363.0</ele><time>2026-04-04T15:37:24.999Z</time></trkpt><trkpt lat="37.828303869235604" lon="12.80178844135549"><ele>363.0</ele><time>2026-04-04T15:37:25.999Z</time></trkpt><trkpt lat="37.82816204932253" lon="12.801925576658915"><ele>363.0</ele><time>2026-04-04T15:37:26.999Z</time></trkpt><trkpt lat="37.82802881229708" lon="12.802106212459012"><ele>358.5</ele><time>2026-04-04T15:37:27.999Z</time></trkpt><trkpt lat="37.82786185752151" lon="12.80230790104795"><ele>354.0</ele><time>2026-04-04T15:37:28.999Z</time></trkpt><trkpt lat="37.827695070286694" lon="12.802530856572956"><ele>350.0</ele><time>2026-04-04T15:37:29.999Z</time></trkpt><trkpt lat="37.82752482675464" lon="12.802713158470759"><ele>346.0</ele><time>2026-04-04T15:37:30.999Z</time></trkpt><trkpt lat="37.82736309408245" lon="12.802861958359244"><ele>342.0</ele><time>2026-04-04T15:37:31.999Z</time></trkpt><trkpt lat="37.82718587632832" lon="12.803001488366908"><ele>342.0</ele><time>2026-04-04T15:37:32.999Z</time></trkpt><trkpt lat="37.82701057813063" lon="12.803141046896743"><ele>342.0</ele><time>2026-04-04T15:37:33.999Z</time></trkpt><trkpt lat="37.82679210903213" lon="12.803242627334042"><ele>342.0</ele><time>2026-04-04T15:37:34.999Z</time></trkpt><trkpt lat="37.82656117275771" lon="12.803325930814458"><ele>343.3333333333333</ele><time>2026-04-04T15:37:35.999Z</time></trkpt><trkpt lat="37.82636234586004" lon="12.803405286838723"><ele>344.66666666666663</ele><time>2026-04-04T15:37:36.999Z</time></trkpt><trkpt lat="37.826166056278915" lon="12.803465082844102"><ele>346.0</ele><time>2026-04-04T15:37:37.999Z</time></trkpt><trkpt lat="37.82600057349432" lon="12.803567859165568"><ele>342.3333333333333</ele><time>2026-04-04T15:37:38.999Z</time></trkpt><trkpt lat="37.82583434770308" lon="12.803636917007625"><ele>338.6666666666667</ele><time>2026-04-04T15:37:39.999Z</time></trkpt><trkpt lat="37.82568308025213" lon="12.803694204249755"><ele>335.0</ele><time>2026-04-04T15:37:40.999Z</time></trkpt><trkpt lat="37.82554434838452" lon="12.80375527204697"><ele>335.0</ele><time>2026-04-04T15:37:41.999Z</time></trkpt><trkpt lat="37.82542374407074" lon="12.80379767126988"><ele>335.0</ele><time>2026-04-04T15:37:42.999Z</time></trkpt><trkpt lat="37.825304928918534" lon="12.803863636957335"><ele>335.0</ele><time>2026-04-04T15:37:43.999Z</time></trkpt><trkpt lat="37.82519954101064" lon="12.803912881317926"><ele>335.0</ele><time>2026-04-04T15:37:44.999Z</time></trkpt><trkpt lat="37.82511427447983" lon="12.803945324239121"><ele>335.0</ele><time>2026-04-04T15:37:45.999Z</time></trkpt><trkpt lat="37.82503067889752" lon="12.803972462811835"><ele>335.0</ele><time>2026-04-04T15:37:46.999Z</time></trkpt><trkpt lat="37.824947367795424" lon="12.804018137120732"><ele>335.0</ele><time>2026-04-04T15:37:47.999Z</time></trkpt><trkpt lat="37.82487593378813" lon="12.804043035843714"><ele>335.0</ele><time>2026-04-04T15:37:48.999Z</time></trkpt><trkpt lat="37.82481448754346" lon="12.804069587893256"><ele>335.0</ele><time>2026-04-04T15:37:49.999Z</time></trkpt><trkpt lat="37.82474510255651" lon="12.804103067504066"><ele>335.0</ele><time>2026-04-04T15:37:51.999Z</time></trkpt><trkpt lat="37.824761150615984" lon="12.804213335015714"><ele>335.0</ele><time>2026-04-04T15:37:54.999Z</time></trkpt><trkpt lat="37.8248147198845" lon="12.804273351997413"><ele>335.0</ele><time>2026-04-04T15:37:55.999Z</time></trkpt><trkpt lat="37.824892535446324" lon="12.804333474291134"><ele>335.0</ele><time>2026-04-04T15:37:56.999Z</time></trkpt><trkpt lat="37.82499700241556" lon="12.804400194744789"><ele>335.0</ele><time>2026-04-04T15:37:57.999Z</time></trkpt><trkpt lat="37.825132858104034" lon="12.804489921275735"><ele>335.0</ele><time>2026-04-04T15:37:58.999Z</time></trkpt><trkpt lat="37.82528773584555" lon="12.80460561865058"><ele>335.33333333333337</ele><time>2026-04-04T15:37:59.999Z</time></trkpt><trkpt lat="37.82547268771234" lon="12.804745156073283"><ele>335.6666666666667</ele><time>2026-04-04T15:38:00.999Z</time></trkpt><trkpt lat="37.8256510490291" lon="12.804878473428898"><ele>336.0</ele><time>2026-04-04T15:38:01.999Z</time></trkpt><trkpt lat="37.825800532813865" lon="12.805016185990484"><ele>336.0</ele><time>2026-04-04T15:38:02.999Z</time></trkpt><trkpt lat="37.82593118200952" lon="12.805151825221545"><ele>336.0</ele><time>2026-04-04T15:38:03.999Z</time></trkpt><trkpt lat="37.826068645900044" lon="12.805280968944002"><ele>336.0</ele><time>2026-04-04T15:38:04.999Z</time></trkpt><trkpt lat="37.8261835698694" lon="12.805372444700875"><ele>335.75</ele><time>2026-04-04T15:38:05.999Z</time></trkpt><trkpt lat="37.826289200700025" lon="12.805440920418155"><ele>335.5</ele><time>2026-04-04T15:38:06.999Z</time></trkpt><trkpt lat="37.826399266412466" lon="12.805465236667686"><ele>335.25</ele><time>2026-04-04T15:38:07.999Z</time></trkpt><trkpt lat="37.82653164462589" lon="12.80551407216349"><ele>335.0</ele><time>2026-04-04T15:38:08.999Z</time></trkpt><trkpt lat="37.82666402590389" lon="12.805562468250544"><ele>335.0</ele><time>2026-04-04T15:38:09.999Z</time></trkpt><trkpt lat="37.82679720172511" lon="12.80560544834911"><ele>335.0</ele><time>2026-04-04T15:38:10.999Z</time></trkpt><trkpt lat="37.82689334445448" lon="12.805644012678492"><ele>335.0</ele><time>2026-04-04T15:38:11.999Z</time></trkpt><trkpt lat="37.82695627786598" lon="12.80568380942123"><ele>335.0</ele><time>2026-04-04T15:38:12.999Z</time></trkpt><trkpt lat="37.82701631950618" lon="12.805795931385964"><ele>335.0</ele><time>2026-04-04T15:38:13.999Z</time></trkpt><trkpt lat="37.8271037163383" lon="12.805932320574836"><ele>335.33333333333337</ele><time>2026-04-04T15:38:14.999Z</time></trkpt><trkpt lat="37.827164123336416" lon="12.806138879594831"><ele>335.6666666666667</ele><time>2026-04-04T15:38:15.999Z</time></trkpt><trkpt lat="37.82720285095839" lon="12.806360703673485"><ele>336.0</ele><time>2026-04-04T15:38:16.999Z</time></trkpt><trkpt lat="37.82728486311686" lon="12.806592294334205"><ele>336.0</ele><time>2026-04-04T15:38:17.999Z</time></trkpt><trkpt lat="37.82736534923277" lon="12.806804311684092"><ele>336.0</ele><time>2026-04-04T15:38:18.999Z</time></trkpt><trkpt lat="37.827459635489475" lon="12.807026775969845"><ele>336.0</ele><time>2026-04-04T15:38:19.999Z</time></trkpt><trkpt lat="37.82753640786557" lon="12.807229944794981"><ele>335.0</ele><time>2026-04-04T15:38:20.999Z</time></trkpt><trkpt lat="37.82760603170747" lon="12.807418220939907"><ele>334.0</ele><time>2026-04-04T15:38:21.999Z</time></trkpt><trkpt lat="37.82767348255854" lon="12.807605820225453"><ele>333.0</ele><time>2026-04-04T15:38:22.999Z</time></trkpt><trkpt lat="37.827748952077535" lon="12.807784452183139"><ele>330.3333333333333</ele><time>2026-04-04T15:38:23.999Z</time></trkpt><trkpt lat="37.82781078138197" lon="12.807970909162222"><ele>327.66666666666663</ele><time>2026-04-04T15:38:24.999Z</time></trkpt><trkpt lat="37.82782046707401" lon="12.808181436052902"><ele>325.0</ele><time>2026-04-04T15:38:25.999Z</time></trkpt><trkpt lat="37.827873113231426" lon="12.808369343074508"><ele>323.25</ele><time>2026-04-04T15:38:27Z</time></trkpt><trkpt lat="37.827924853700914" lon="12.808542092437495"><ele>321.5</ele><time>2026-04-04T15:38:28Z</time></trkpt><trkpt lat="37.827970703521125" lon="12.808692886198408"><ele>319.75</ele><time>2026-04-04T15:38:29Z</time></trkpt><trkpt lat="37.82802079377714" lon="12.808819841722414"><ele>318.0</ele><time>2026-04-04T15:38:30Z</time></trkpt><trkpt lat="37.828070345258425" lon="12.808945137476158"><ele>318.0</ele><time>2026-04-04T15:38:31Z</time></trkpt><trkpt lat="37.82811533519906" lon="12.809062111350341"><ele>318.0</ele><time>2026-04-04T15:38:32Z</time></trkpt><trkpt lat="37.828108306183466" lon="12.809195590793369"><ele>318.0</ele><time>2026-04-04T15:38:34Z</time></trkpt><trkpt lat="37.828085226839484" lon="12.809289466826744"><ele>318.0</ele><time>2026-04-04T15:38:35Z</time></trkpt><trkpt lat="37.82808483585853" lon="12.80947168250147"><ele>318.0</ele><time>2026-04-04T15:38:37Z</time></trkpt><trkpt lat="37.82800742238812" lon="12.80947209595537"><ele>317.4</ele><time>2026-04-04T15:38:40Z</time></trkpt><trkpt lat="37.82792792090089" lon="12.80951683046861"><ele>316.8</ele><time>2026-04-04T15:38:43Z</time></trkpt><trkpt lat="37.82784847325887" lon="12.809556303313409"><ele>316.2</ele><time>2026-04-04T15:38:44Z</time></trkpt><trkpt lat="37.8277438307868" lon="12.80959968093246"><ele>315.6</ele><time>2026-04-04T15:38:45Z</time></trkpt><trkpt lat="37.82761010255951" lon="12.809702729559415"><ele>315.0</ele><time>2026-04-04T15:38:46Z</time></trkpt><trkpt lat="37.827460728137794" lon="12.809754360952788"><ele>315.0</ele><time>2026-04-04T15:38:47Z</time></trkpt><trkpt lat="37.82734824910727" lon="12.809815365876402"><ele>315.0</ele><time>2026-04-04T15:38:48Z</time></trkpt><trkpt lat="37.82728426673823" lon="12.80991019905278"><ele>315.0</ele><time>2026-04-04T15:38:49Z</time></trkpt><trkpt lat="37.82724562115204" lon="12.810039272120049"><ele>315.0</ele><time>2026-04-04T15:38:50Z</time></trkpt><trkpt lat="37.82721960767333" lon="12.810180996567038"><ele>315.0</ele><time>2026-04-04T15:38:51Z</time></trkpt><trkpt lat="37.82721207014235" lon="12.810342947825887"><ele>315.0</ele><time>2026-04-04T15:38:52Z</time></trkpt><trkpt lat="37.827187713205305" lon="12.81061109416793"><ele>315.0</ele><time>2026-04-04T15:38:53Z</time></trkpt><trkpt lat="37.82714983024325" lon="12.81088998784993"><ele>315.0</ele><time>2026-04-04T15:38:54Z</time></trkpt><trkpt lat="37.827100400146186" lon="12.811191021864909"><ele>313.6666666666667</ele><time>2026-04-04T15:38:55Z</time></trkpt><trkpt lat="37.82706255830091" lon="12.811465912752498"><ele>312.33333333333337</ele><time>2026-04-04T15:38:56Z</time></trkpt><trkpt lat="37.827044866685426" lon="12.811722132111358"><ele>311.0</ele><time>2026-04-04T15:38:57Z</time></trkpt><trkpt lat="37.82704967509651" lon="12.811963064978483"><ele>308.6666666666667</ele><time>2026-04-04T15:38:58Z</time></trkpt><trkpt lat="37.827055367518675" lon="12.812204959763102"><ele>306.3333333333333</ele><time>2026-04-04T15:38:59Z</time></trkpt><trkpt lat="37.82707934793481" lon="12.812459091588279"><ele>304.0</ele><time>2026-04-04T15:39:00Z</time></trkpt><trkpt lat="37.82712349572184" lon="12.812674629979936"><ele>302.5</ele><time>2026-04-04T15:39:01Z</time></trkpt><trkpt lat="37.827151795228154" lon="12.812874459513628"><ele>301.0</ele><time>2026-04-04T15:39:02Z</time></trkpt><trkpt lat="37.82717837623288" lon="12.813038423024162"><ele>299.5</ele><time>2026-04-04T15:39:03Z</time></trkpt><trkpt lat="37.827207201142095" lon="12.81316866122767"><ele>298.0</ele><time>2026-04-04T15:39:04Z</time></trkpt><trkpt lat="37.82723693095205" lon="12.813261076721691"><ele>298.0</ele><time>2026-04-04T15:39:05Z</time></trkpt><trkpt lat="37.82729566148741" lon="12.813324392589537"><ele>298.0</ele><time>2026-04-04T15:39:06Z</time></trkpt><trkpt lat="37.827430926244595" lon="12.813311430339452"><ele>298.0</ele><time>2026-04-04T15:39:08Z</time></trkpt><trkpt lat="37.827519602918436" lon="12.813280937303634"><ele>298.0</ele><time>2026-04-04T15:39:09Z</time></trkpt><trkpt lat="37.827631042101174" lon="12.813213859422639"><ele>298.0</ele><time>2026-04-04T15:39:10Z</time></trkpt><trkpt lat="37.82774169475233" lon="12.813161832838652"><ele>297.5</ele><time>2026-04-04T15:39:11Z</time></trkpt><trkpt lat="37.82782822195707" lon="12.81313059814339"><ele>297.0</ele><time>2026-04-04T15:39:12Z</time></trkpt><trkpt lat="37.8278991618031" lon="12.813082252418411"><ele>296.5</ele><time>2026-04-04T15:39:14Z</time></trkpt><trkpt lat="37.827849704096344" lon="12.813016006747043"><ele>296.0</ele><time>2026-04-04T15:39:16Z</time></trkpt><trkpt lat="37.827717859322604" lon="12.81280115776027"><ele>296.0</ele><time>2026-04-04T15:49:34.999Z</time></trkpt><trkpt lat="37.827732626830766" lon="12.812911439859718"><ele>296.0</ele><time>2026-04-04T15:49:51.999Z</time></trkpt><trkpt lat="37.82774396256918" lon="12.813022704273099"><ele>296.0</ele><time>2026-04-04T15:49:53.999Z</time></trkpt><trkpt lat="37.82775285433359" lon="12.812937677294611"><ele>296.0</ele><time>2026-04-04T15:50:00.999Z</time></trkpt></trkseg></trk></gpx>